[[{"header":{"parameterUnit":"m.s-1","parameterCategory":1,"la1":30.6,"la2":29.2853,"lo1":-89.7004,"lo2":-87.6739,"dx":0.0162,"dy":0.0183,"nx":112,"ny":82,"refTime":"2022-12-04T18:00:00:Z","depth":0,"parameterNumber":2,"parameterNumberName":"U-component_of_WINDS"},"data":[0.0,0.0,0.0,0.0,0.0,0.0,0.0,0.0,0.0,0.0,0.0,0.0,0.0,0.0,0.0,0.0,0.0,0.0,0.0,0.0,0.0,0.0,0.0,0.0,0.0,0.0,0.0,0.0,0.0,0.0,0.0,0.0,0.0,0.0,0.0,0.0,0.0,0.0,0.0,0.0,0.0,0.0,0.0,0.0,0.0,0.0,0.0,0.0,0.0,0.0,0.0,0.0,0.0,0.0,0.0,0.0,0.0,0.0,0.0,0.0,0.0,0.0,0.0,0.0,0.0,0.0,0.0,0.0,0.0,0.0,0.0,0.0,0.0,0.0,0.0,0.0,0.0,0.0,0.0,0.0,0.0,0.0,0.0,0.0,0.0,0.0,0.0,0.0,0.0,0.0,-1.2765,-1.3933,-1.6729,-1.8117,-1.7188,-1.6483,-1.5019,-1.2546,0.0,0.0,0.0,0.0,0.0,0.0,0.0,0.0,0.0,0.0,0.0,0.0,0.0,0.0,0.0,0.0,0.0,0.0,0.0,0.0,0.0,0.0,0.0,0.0,0.0,0.0,0.0,0.0,0.0,0.0,0.0,0.0,0.0,0.0,0.0,0.0,0.0,0.0,0.0,0.0,0.0,0.0,0.0,0.0,0.0,0.0,0.0,0.0,0.0,0.0,0.0,0.0,0.0,0.0,0.0,0.0,0.0,0.0,0.0,0.0,0.0,0.0,0.0,0.0,0.0,0.0,0.0,0.0,0.0,0.0,0.0,0.0,0.0,0.0,0.0,0.0,0.0,0.0,0.0,0.0,0.0,0.0,0.0,0.0,0.0,0.0,0.0,0.0,0.0,0.0,0.0,0.0,0.0,0.0,0.0,0.0,0.0,0.0,0.0,0.0,0.0,0.0,0.0,0.0,-1.3461,-1.6258,-1.8253,-1.8785,-1.7226,-1.6984,-1.5593,-1.2507,0.0,0.0,0.0,0.0,0.0,0.0,0.0,0.0,0.0,0.0,0.0,0.0,0.0,0.0,0.0,0.0,0.0,0.0,0.0,0.0,0.0,0.0,0.0,0.0,0.0,0.0,0.0,0.0,0.0,0.0,0.0,0.0,0.0,0.0,0.0,0.0,0.0,0.0,0.0,0.0,0.0,0.0,0.0,0.0,0.0,0.0,0.0,0.0,0.0,0.0,0.0,0.0,0.0,0.0,0.0,0.0,0.0,0.0,0.0,0.0,0.0,0.0,0.0,0.0,0.0,0.0,0.0,0.0,0.0,0.0,0.0,0.0,0.0,0.0,0.0,0.0,0.0,0.0,0.0,0.0,0.0,0.0,0.0,0.0,0.0,0.0,0.0,0.0,0.0,0.0,0.0,0.0,0.0,0.0,0.0,0.0,0.0,0.0,0.0,0.0,0.0,0.0,0.0,-1.2658,-1.4703,-1.7455,-1.8859,-1.9293,-1.8525,-1.7615,-1.5904,-1.3128,-1.226,0.0,0.0,0.0,0.0,0.0,0.0,0.0,0.0,0.0,0.0,0.0,0.0,0.0,0.0,0.0,0.0,0.0,0.0,0.0,0.0,0.0,0.0,0.0,0.0,0.0,0.0,0.0,0.0,0.0,0.0,0.0,0.0,0.0,0.0,0.0,0.0,0.0,0.0,0.0,0.0,0.0,0.0,0.0,0.0,0.0,0.0,0.0,0.0,0.0,0.0,0.0,0.0,0.0,0.0,0.0,0.0,0.0,0.0,0.0,0.0,0.0,0.0,0.0,0.0,0.0,0.0,0.0,0.0,0.0,0.0,0.0,0.0,0.0,0.0,0.0,0.0,0.0,0.0,0.0,0.0,0.0,0.0,0.0,0.0,0.0,0.0,0.0,0.0,0.0,0.0,0.0,0.0,0.0,0.0,0.0,0.0,0.0,0.0,0.0,0.0,0.0,0.0,-1.3989,-1.5908,-1.8333,-1.9193,-1.9609,-1.9609,-1.8061,-1.6066,-1.3658,-1.2793,0.0,0.0,0.0,0.0,0.0,0.0,0.0,0.0,0.0,0.0,0.0,0.0,0.0,0.0,0.0,0.0,0.0,0.0,0.0,0.0,0.0,0.0,0.0,0.0,0.0,0.0,0.0,0.0,0.0,0.0,0.0,0.0,0.0,0.0,0.0,0.0,0.0,0.0,0.0,0.0,0.0,0.0,0.0,0.0,0.0,0.0,0.0,0.0,0.0,0.0,0.0,0.0,0.0,0.0,0.0,0.0,0.0,0.0,0.0,0.0,0.0,0.0,0.0,0.0,0.0,0.0,0.0,0.0,0.0,0.0,0.0,0.0,0.0,0.0,0.0,0.0,0.0,0.0,0.0,0.0,0.0,0.0,0.0,0.0,0.0,0.0,0.0,0.0,0.0,0.0,0.0,0.0,0.0,0.0,0.0,0.0,0.0,0.0,0.0,0.0,0.0,0.0,-1.4825,-1.6737,-1.9166,-1.9539,-1.9609,-1.9609,-1.8061,-1.608,-1.3658,-1.2747,0.0,0.0,0.0,0.0,0.0,0.0,0.0,0.0,0.0,0.0,0.0,0.0,0.0,0.0,0.0,0.0,0.0,0.0,0.0,0.0,0.0,0.0,0.0,0.0,0.0,0.0,0.0,0.0,0.0,0.0,0.0,0.0,0.0,0.0,0.0,0.0,0.0,0.0,0.0,0.0,0.0,0.0,0.0,0.0,0.0,0.0,0.0,0.0,0.0,0.0,0.0,0.0,0.0,0.0,0.0,0.0,0.0,0.0,0.0,0.0,0.0,0.0,0.0,0.0,0.0,0.0,0.0,0.0,0.0,0.0,0.0,0.0,0.0,0.0,0.0,0.0,0.0,0.0,0.0,0.0,0.0,0.0,0.0,0.0,0.0,0.0,0.0,0.0,0.0,0.0,0.0,0.0,0.0,0.0,0.0,0.0,0.0,0.0,0.0,0.0,0.0,0.0,-1.4876,-1.6978,-1.9937,-1.9818,-1.9944,-2.0951,-1.8616,-1.6273,-1.4309,0.0,0.0,0.0,0.0,0.0,0.0,0.0,0.0,0.0,0.0,0.0,0.0,0.0,0.0,0.0,0.0,0.0,0.0,0.0,0.0,0.0,0.0,0.0,0.0,0.0,0.0,0.0,0.0,0.0,0.0,0.0,0.0,0.0,0.0,0.0,0.0,0.0,0.0,0.0,0.0,0.0,0.0,0.0,0.0,0.0,0.0,0.0,0.0,0.0,0.0,0.0,0.0,0.0,0.0,0.0,0.0,0.0,0.0,0.0,0.0,0.0,0.0,0.0,0.0,0.0,0.0,0.0,0.0,0.0,0.0,0.0,0.0,0.0,0.0,0.0,0.0,0.0,0.0,0.0,0.0,0.0,0.0,0.0,0.0,0.0,0.0,0.0,0.0,0.0,0.0,0.0,0.0,0.0,0.0,0.0,0.0,0.0,0.0,0.0,0.0,0.0,0.0,-1.363,-1.5203,-1.7438,-2.0704,-2.0355,-2.0426,-2.1789,-1.9156,-1.6633,-1.472,0.0,0.0,0.0,0.0,0.0,0.0,0.0,0.0,0.0,0.0,0.0,0.0,0.0,0.0,0.0,0.0,0.0,0.0,0.0,0.0,0.0,0.0,0.0,0.0,0.0,0.0,0.0,0.0,0.0,0.0,0.0,0.0,0.0,0.0,0.0,0.0,0.0,0.0,0.0,0.0,0.0,0.0,0.0,0.0,0.0,0.0,0.0,0.0,0.0,0.0,0.0,0.0,0.0,0.0,0.0,0.0,0.0,0.0,0.0,0.0,0.0,0.0,0.0,0.0,0.0,0.0,0.0,0.0,0.0,0.0,0.0,0.0,0.0,0.0,0.0,0.0,0.0,0.0,0.0,0.0,0.0,0.0,0.0,0.0,0.0,0.0,0.0,0.0,0.0,0.0,0.0,0.0,0.0,0.0,0.0,0.0,0.0,0.0,0.0,0.0,0.0,0.0,-1.4393,-1.6011,-1.8236,-2.1457,-2.1147,-2.1023,-2.1836,-1.9631,-1.7181,0.0,0.0,0.0,0.0,0.0,0.0,0.0,0.0,0.0,0.0,0.0,0.0,0.0,0.0,0.0,0.0,0.0,0.0,0.0,0.0,0.0,0.0,0.0,0.0,0.0,0.0,0.0,0.0,0.0,0.0,0.0,0.0,0.0,0.0,0.0,0.0,0.0,0.0,0.0,0.0,0.0,0.0,0.0,0.0,0.0,0.0,0.0,0.0,0.0,0.0,0.0,0.0,0.0,0.0,0.0,0.0,0.0,0.0,0.0,0.0,0.0,0.0,0.0,0.0,0.0,0.0,0.0,0.0,0.0,0.0,0.0,0.0,0.0,0.0,0.0,0.0,0.0,0.0,0.0,0.0,0.0,0.0,0.0,0.0,0.0,0.0,0.0,0.0,0.0,0.0,0.0,0.0,0.0,0.0,0.0,0.0,0.0,0.0,0.0,0.0,0.0,0.0,0.0,-1.4393,-1.6471,-1.8805,-2.1499,-2.1614,-2.1576,-2.18,-2.0109,-1.8017,-1.5605,0.0,0.0,0.0,0.0,0.0,0.0,0.0,0.0,0.0,0.0,0.0,0.0,0.0,0.0,0.0,0.0,0.0,0.0,0.0,0.0,0.0,0.0,0.0,0.0,0.0,0.0,0.0,0.0,0.0,0.0,0.0,0.0,0.0,0.0,0.0,0.0,0.0,0.0,0.0,0.0,0.0,0.0,0.0,0.0,0.0,0.0,0.0,0.0,0.0,0.0,0.0,0.0,0.0,0.0,0.0,0.0,0.0,0.0,0.0,0.0,0.0,0.0,0.0,0.0,0.0,0.0,0.0,0.0,0.0,0.0,0.0,0.0,0.0,0.0,0.0,0.0,0.0,0.0,0.0,0.0,0.0,0.0,0.0,0.0,0.0,0.0,0.0,0.0,0.0,0.0,0.0,0.0,0.0,0.0,0.0,0.0,0.0,0.0,0.0,0.0,0.0,0.0,-1.4388,-1.6654,-1.9051,-2.1537,-2.2087,-2.2279,-2.229,-2.078,-1.8816,-1.6386,0.0,0.0,0.0,0.0,0.0,0.0,0.0,0.0,0.0,0.0,0.0,0.0,0.0,0.0,0.0,0.0,0.0,0.0,0.0,0.0,0.0,0.0,0.0,0.0,0.0,0.0,0.0,0.0,0.0,0.0,0.0,0.0,0.0,0.0,0.0,0.0,0.0,0.0,0.0,0.0,0.0,0.0,0.0,0.0,0.0,0.0,0.0,0.0,0.0,0.0,0.0,0.0,0.0,0.0,0.0,0.0,0.0,0.0,0.0,0.0,0.0,0.0,0.0,0.0,0.0,0.0,0.0,0.0,0.0,0.0,0.0,0.0,0.0,0.0,0.0,0.0,0.0,0.0,0.0,0.0,0.0,0.0,0.0,0.0,0.0,0.0,0.0,0.0,0.0,0.0,0.0,0.0,0.0,0.0,0.0,0.0,0.0,0.0,0.0,0.0,0.0,0.0,-1.4465,-1.678,-1.917,-2.1511,-2.2548,-2.3061,-2.3006,-2.1538,-1.962,-1.7291,0.0,0.0,0.0,0.0,0.0,0.0,0.0,0.0,0.0,0.0,0.0,0.0,0.0,0.0,0.0,0.0,0.0,0.0,0.0,0.0,0.0,0.0,0.0,0.0,0.0,0.0,0.0,0.0,0.0,0.0,0.0,0.0,0.0,0.0,0.0,0.0,0.0,0.0,0.0,0.0,0.0,0.0,0.0,0.0,0.0,0.0,0.0,0.0,0.0,0.0,0.0,0.0,0.0,0.0,0.0,0.0,0.0,0.0,0.0,0.0,-1.1598,-0.9764,0.0,0.0,0.0,0.0,0.0,0.0,0.0,0.0,0.0,0.0,0.0,0.0,0.0,0.0,0.0,0.0,0.0,0.0,0.0,0.0,0.0,0.0,0.0,0.0,0.0,0.0,0.0,0.0,0.0,0.0,0.0,0.0,0.0,0.0,0.0,0.0,0.0,0.0,0.0,0.0,-1.5009,-1.7743,-2.0037,-2.1416,-2.2806,-2.3456,-2.3052,-2.2097,-2.0756,-1.8985,-1.6729,0.0,0.0,0.0,0.0,0.0,0.0,0.0,0.0,0.0,0.0,0.0,0.0,0.0,0.0,0.0,0.0,0.0,0.0,0.0,0.0,0.0,0.0,0.0,0.0,0.0,0.0,0.0,0.0,0.0,0.0,0.0,0.0,0.0,0.0,0.0,0.0,0.0,0.0,0.0,0.0,0.0,0.0,0.0,0.0,0.0,0.0,0.0,0.0,0.0,0.0,0.0,0.0,0.0,0.0,0.0,0.0,0.0,0.0,0.0,-1.3349,-1.1665,0.0,0.0,0.0,0.0,0.0,0.0,0.0,0.0,0.0,0.0,0.0,0.0,0.0,0.0,0.0,0.0,0.0,0.0,0.0,0.0,0.0,0.0,0.0,0.0,0.0,0.0,0.0,0.0,0.0,0.0,0.0,0.0,0.0,0.0,0.0,0.0,0.0,0.0,0.0,0.0,-1.576,-1.827,-2.0394,-2.1708,-2.2897,-2.348,-2.3224,-2.2455,-2.1468,-2.0246,-1.8264,0.0,0.0,0.0,0.0,0.0,0.0,0.0,0.0,0.0,0.0,0.0,0.0,0.0,0.0,0.0,0.0,0.0,0.0,0.0,0.0,0.0,0.0,0.0,0.0,0.0,0.0,0.0,0.0,0.0,0.0,0.0,0.0,0.0,0.0,0.0,0.0,0.0,0.0,0.0,0.0,0.0,0.0,0.0,0.0,0.0,0.0,0.0,0.0,0.0,0.0,0.0,0.0,0.0,-1.5729,-1.6194,-1.6353,-1.7112,-1.7534,-1.7505,-1.5225,-1.387,-1.3257,-1.2573,0.0,0.0,0.0,0.0,0.0,0.0,0.0,0.0,0.0,0.0,0.0,0.0,0.0,0.0,0.0,0.0,0.0,0.0,0.0,0.0,0.0,0.0,-1.321,0.0,-1.3963,-1.424,-1.3015,0.0,0.0,0.0,0.0,0.0,0.0,0.0,0.0,0.0,0.0,0.0,-1.6779,-1.878,-2.0637,-2.2139,-2.3001,-2.35,-2.3533,-2.2794,-2.2056,-2.1381,-1.9872,-1.8027,0.0,0.0,0.0,0.0,0.0,0.0,0.0,0.0,0.0,0.0,0.0,0.0,0.0,0.0,0.0,0.0,0.0,0.0,0.0,0.0,0.0,0.0,0.0,0.0,0.0,0.0,0.0,0.0,0.0,0.0,0.0,0.0,-0.9588,-0.968,0.0,0.0,0.0,0.0,0.0,0.0,0.0,0.0,0.0,0.0,0.0,0.0,0.0,-1.3721,-1.5221,-1.5331,-1.5784,-1.6597,-1.7392,-1.8151,-1.8849,-1.9489,-2.0038,-2.0479,-1.9267,0.0,-1.5245,-1.4294,0.0,0.0,0.0,0.0,0.0,0.0,0.0,0.0,0.0,0.0,0.0,0.0,0.0,0.0,0.0,0.0,0.0,0.0,0.0,0.0,0.0,0.0,-1.5478,-1.5496,-1.6574,-1.7576,0.0,-1.4779,-1.2473,-1.2367,-1.1695,-1.1191,0.0,0.0,0.0,0.0,0.0,0.0,-1.8288,-1.9785,-2.1174,-2.2498,-2.3304,-2.3837,-2.4074,-2.3352,-2.2849,-2.274,-2.1186,-1.9494,-1.7793,-1.6297,0.0,0.0,0.0,0.0,0.0,0.0,0.0,0.0,0.0,0.0,0.0,0.0,0.0,0.0,0.0,0.0,0.0,0.0,0.0,0.0,0.0,0.0,0.0,0.0,0.0,0.0,0.0,0.0,0.0,-0.9874,-1.0366,-1.0366,-1.0773,-1.1053,0.0,0.0,0.0,0.0,0.0,0.0,0.0,0.0,0.0,-1.4615,-1.5086,-1.6096,-1.7718,-1.817,-1.8831,-1.9656,-2.0005,-2.0362,-2.0703,-2.0825,-2.1022,-2.1251,-2.0642,-1.9747,-1.8536,-1.6696,-1.5674,-1.5185,0.0,0.0,0.0,0.0,-1.2869,-1.2839,-1.2839,-1.2781,-1.2714,-1.2714,0.0,0.0,0.0,0.0,0.0,0.0,0.0,-1.4622,0.0,0.0,-1.7811,-1.7811,-1.8637,-1.9441,-1.9441,-1.7858,-1.6071,-1.4792,-1.3624,-1.2846,-1.2877,-1.3625,0.0,0.0,0.0,-1.8049,-1.9663,-2.0672,-2.1686,-2.2807,-2.3204,-2.3502,-2.3724,-2.3428,-2.3218,-2.3218,-2.2144,-2.1015,-1.9884,-1.8372,-1.6604,0.0,0.0,0.0,0.0,0.0,0.0,0.0,0.0,0.0,0.0,0.0,0.0,0.0,0.0,0.0,0.0,0.0,0.0,0.0,0.0,0.0,0.0,0.0,0.0,0.0,0.0,0.0,0.0,-1.0865,-1.1503,-1.1503,-1.2218,-1.2719,0.0,0.0,0.0,0.0,0.0,0.0,-1.4194,-1.4952,-1.5862,-1.687,-1.7492,-1.8496,-1.9905,-2.0529,-2.1161,-2.1794,-2.1943,-2.2008,-2.1999,-2.189,-2.1821,-2.1811,-2.1547,-2.1331,-2.1013,-1.8991,-1.7813,-1.721,-1.6466,-1.6167,-1.6079,-1.5291,-1.4971,-1.4931,-1.4931,-1.4855,-1.4788,-1.4788,-1.4788,-1.4788,-1.4788,0.0,0.0,0.0,0.0,-1.6932,-1.769,-1.8861,-1.9889,-1.9889,-2.0458,-2.098,-2.098,-2.0406,-1.9269,-1.7173,-1.5774,-1.4931,-1.4931,-1.5659,0.0,-1.7002,-1.8165,-1.9472,-2.0835,-2.1399,-2.2066,-2.3075,-2.3182,-2.3236,-2.338,-2.3403,-2.3403,-2.3403,-2.2879,-2.226,-2.159,-2.0309,-1.8622,-1.6513,0.0,0.0,0.0,0.0,0.0,0.0,0.0,0.0,0.0,0.0,0.0,0.0,0.0,0.0,0.0,0.0,0.0,0.0,0.0,0.0,0.0,0.0,0.0,0.0,0.0,0.0,0.0,0.0,0.0,-1.317,-1.3893,0.0,0.0,0.0,0.0,-1.4383,-1.5123,-1.5893,-1.6595,-1.7395,-1.8549,-2.0113,-2.0255,-2.0719,-2.1578,-2.1676,-2.1757,-2.1812,-2.2316,-2.2554,-2.258,-2.2881,-2.3021,-2.3009,-2.2733,-2.222,-2.1507,-2.0818,-2.0512,-2.0379,-1.9455,-1.9084,-1.8987,-1.8256,-1.7969,-1.7987,-1.7987,-1.7969,-1.7959,-1.7959,-1.7959,-1.7959,-1.7959,-1.7959,0.0,0.0,-1.9096,-1.9303,-2.0033,-2.0854,-2.1475,-2.1475,-2.2044,-2.2578,-2.2578,-2.1992,-2.1009,0.0,-1.851,-1.7987,-1.7987,0.0,-1.9314,-1.9169,-1.9972,-2.0891,-2.1738,-2.1867,-2.2271,-2.3286,-2.338,-2.338,-2.3403,-2.3403,-2.3403,-2.3403,-2.3367,-2.3099,-2.256,-2.172,-2.0589,-1.9143,-1.6775,0.0,0.0,0.0,0.0,0.0,0.0,0.0,0.0,0.0,0.0,0.0,0.0,0.0,0.0,0.0,0.0,0.0,0.0,0.0,0.0,0.0,0.0,0.0,0.0,0.0,0.0,0.0,0.0,-1.478,-1.6004,0.0,-1.6823,-1.728,-1.7595,-1.7595,-1.8298,-1.8833,-1.9101,-1.9875,-2.0603,-2.1232,-2.1752,-2.2182,-2.2475,-2.2874,-2.3149,-2.328,-2.3303,-2.3298,-2.3306,-2.324,-2.3163,-2.3033,-2.2751,-2.2504,-2.2298,-2.2081,-2.1408,-2.046,-2.0137,-2.0015,-1.9981,-1.9705,-1.9631,-1.9631,-1.9631,-1.9631,-1.9631,-1.9631,-1.9631,-1.9631,-1.9631,-1.9631,-1.9682,-1.9929,-2.0389,-2.0837,-2.1096,-2.1733,-2.2302,-2.2302,-2.2509,-2.2699,-2.2699,-2.2492,-2.2147,-2.1595,-2.0475,-1.9631,-1.9631,-1.9889,-2.0275,-2.0711,-2.1065,-2.1559,-2.2322,-2.2408,-2.2626,-2.3158,-2.3218,-2.3254,-2.338,-2.3403,-2.3403,-2.3403,-2.3403,-2.3312,-2.3109,-2.2346,-2.1522,-2.0671,-1.8284,-1.6718,0.0,0.0,0.0,0.0,0.0,0.0,0.0,0.0,0.0,0.0,0.0,0.0,0.0,0.0,0.0,0.0,0.0,0.0,0.0,0.0,0.0,0.0,0.0,0.0,0.0,-1.4842,-1.6009,-1.679,-1.8064,-1.8979,-1.9253,-1.9768,-2.0089,-2.0105,-2.0566,-2.096,-2.1233,-2.1735,-2.2136,-2.2438,-2.2957,-2.3249,-2.3249,-2.3662,-2.3955,-2.4094,-2.3771,-2.3595,-2.3577,-2.3248,-2.301,-2.2893,-2.2712,-2.2796,-2.3078,-2.3078,-2.263,-2.1906,-2.1389,-2.1182,-2.1182,-2.1182,-2.1182,-2.1182,-2.1182,-2.1182,-2.1182,-2.1182,-2.1182,-2.1182,-2.1182,-2.1182,-2.1182,-2.1182,-2.1561,-2.1957,-2.1957,-2.2526,-2.3078,-2.3078,-2.3285,-2.3488,-2.3488,-2.3488,-2.3488,-2.3488,-2.2233,-2.1182,-2.1182,-2.1182,-2.1371,-2.1888,-2.1957,-2.2147,-2.2647,-2.2699,-2.2777,-2.2957,-2.297,-2.301,-2.3158,-2.3153,-2.3189,-2.3301,-2.3301,-2.3364,-2.3533,-2.302,-2.2486,-2.1943,-1.9817,-1.8247,-1.7293,0.0,0.0,0.0,0.0,0.0,0.0,0.0,0.0,0.0,0.0,0.0,0.0,0.0,0.0,0.0,0.0,0.0,0.0,0.0,0.0,0.0,0.0,0.0,-1.4557,-1.6627,-1.841,-1.9174,-1.9986,-2.0787,-2.1571,-2.1662,-2.1698,-2.177,-2.177,-2.2109,-2.2886,-2.2875,-2.3155,-2.3888,-2.3907,-2.3907,-2.3907,-2.3947,-2.4024,-2.411,-2.3645,-2.3441,-2.3429,-2.2992,-2.2767,-2.2754,-2.2754,-2.3168,-2.3822,-2.3822,-2.4301,-2.4836,-2.3353,-2.2767,-2.2767,-2.2767,-2.2767,-2.2767,-2.2767,-2.2767,-2.2767,-2.2767,-2.2767,-2.2767,-2.2767,-2.2767,-2.2767,-2.2767,-2.2767,-2.2767,-2.2767,-2.3302,-2.3836,-2.3836,-2.4422,-2.5005,-2.5005,-2.5005,-2.5005,-2.5005,-2.3784,-2.2767,-2.2767,-2.2767,-2.2767,-2.2767,-2.2767,0.0,-2.2767,-2.2767,-2.2767,-2.2767,-2.2767,-2.275,-2.2733,-2.2733,-2.2834,-2.3082,-2.3095,-2.3289,-2.3753,-2.3774,-2.3523,-2.2988,-2.1401,-1.9795,-1.8199,0.0,0.0,0.0,0.0,0.0,0.0,0.0,0.0,0.0,0.0,0.0,0.0,0.0,0.0,0.0,0.0,0.0,0.0,0.0,0.0,0.0,-1.5866,-1.7209,-1.7807,-1.8471,-1.9409,-2.0787,-2.168,-2.2301,-2.2529,-2.303,-2.3349,-2.3359,-2.3272,-2.3323,-2.3531,-2.3539,-2.364,-2.3878,-2.3955,-2.3976,-2.3976,-2.366,-2.3842,-2.4525,-2.4005,-2.4034,-2.4557,-2.4368,-2.4219,-2.4079,-2.4079,-2.4211,-2.4457,-2.4457,-2.4577,-2.4746,-2.4483,-2.4367,-2.4367,-2.4367,-2.4367,-2.4367,-2.4367,-2.4367,-2.4367,-2.4367,-2.4367,-2.4367,-2.4367,-2.4367,-2.4367,-2.4367,-2.4367,-2.4367,-2.4367,-2.4522,-2.4663,-2.4663,-2.485,-2.5005,-2.5005,-2.5005,-2.5005,-2.5005,-2.466,-2.4367,-2.4367,-2.4367,-2.4367,-2.4367,-2.4367,-2.4367,-2.4367,-2.4367,-2.4367,-2.4367,-2.4367,-2.4129,-2.356,-2.3509,-2.3294,-2.2838,-2.2816,-2.2863,-2.2998,-2.301,-2.2817,-2.2434,-2.2354,-2.1822,0.0,0.0,0.0,0.0,0.0,0.0,0.0,0.0,0.0,0.0,0.0,0.0,0.0,0.0,0.0,0.0,0.0,0.0,0.0,0.0,0.0,0.0,-1.7562,-1.9006,-2.0462,-2.0406,-2.0669,-2.1908,-2.2509,-2.2948,-2.3294,-2.3682,-2.3927,-2.3966,-2.3886,-2.3876,-2.3917,-2.3896,-2.3907,-2.3937,-2.4283,-2.4384,-2.4256,-2.4325,-2.4568,-2.4988,-2.4566,-2.4604,-2.5034,-2.4878,-2.4795,-2.4739,-2.4739,-2.494,-2.5289,-2.5289,-2.5495,0.0,0.0,0.0,0.0,0.0,-2.4871,-2.4871,-2.4871,-2.4871,-2.4871,-2.4871,-2.4871,-2.4871,-2.4871,-2.4871,-2.4871,-2.4871,-2.4871,-2.4871,-2.4871,-2.5111,-2.5384,-2.5384,-2.5609,-2.5848,-2.5848,-2.5848,-2.5848,-2.5848,-2.5848,0.0,-2.5848,-2.536,-2.5005,-2.5005,-2.5005,-2.5005,-2.5005,-2.5005,-2.5005,-2.5005,-2.5005,-2.4801,-2.4336,-2.4301,0.0,0.0,0.0,-2.3232,-2.301,-2.2993,0.0,0.0,0.0,0.0,0.0,0.0,0.0,0.0,-1.8302,-1.8188,0.0,0.0,0.0,0.0,0.0,0.0,0.0,0.0,0.0,0.0,0.0,0.0,0.0,0.0,0.0,0.0,-1.9391,-2.0317,-2.2419,-2.2206,-2.209,-2.2743,-2.2834,-2.3125,-2.3834,-2.3855,-2.3827,-2.3896,-2.3896,-2.3992,-2.4192,-2.4121,0.0,0.0,0.0,-2.5,-2.4735,-2.5417,-2.5675,-2.553,-2.5268,-2.5193,-2.5294,-2.5067,-2.5009,-2.5099,-2.5099,-2.5506,-2.6169,-2.6169,-2.6614,-2.7096,-2.5584,-2.4993,-2.4993,-2.4993,-2.4976,-2.4961,-2.4961,0.0,0.0,-2.4963,-2.4963,-2.4963,-2.4963,-2.4963,-2.4963,-2.4963,-2.4963,-2.4963,-2.4963,-2.549,-2.6018,-2.6018,-2.6513,-2.6991,-2.6991,-2.6991,-2.6991,-2.6991,-2.6991,-2.6991,-2.6991,-2.6006,-2.5235,-2.5235,-2.5235,-2.5235,-2.5235,-2.5235,-2.5235,-2.5235,0.0,0.0,-2.5114,-2.5111,-2.5161,-2.5247,-2.4668,-2.4121,-2.3649,-2.3682,-2.3835,-2.4067,-2.4099,-2.4221,-2.4465,-2.374,-2.341,-2.3354,-2.1612,-2.0786,0.0,0.0,0.0,0.0,0.0,0.0,0.0,0.0,0.0,0.0,0.0,0.0,0.0,0.0,0.0,-1.8998,-2.0744,-2.2184,-2.2644,-2.314,-2.3497,-2.3591,-2.3622,-2.3725,-2.3878,-2.3896,-2.3886,-2.3896,-2.3847,-2.4117,-2.478,-2.4606,-2.4772,-2.5428,-2.5384,-2.5412,-2.5563,-2.5516,-2.58,-2.6435,-2.6112,0.0,-2.6547,-2.6499,-2.6434,-2.6351,-2.6351,-2.6435,-2.6604,-2.6704,-2.6839,-2.6975,-2.6844,-2.6804,-2.6804,-2.6804,-2.6722,-2.6642,-2.6642,-2.6594,-2.6564,-2.6564,-2.6564,-2.6564,-2.6564,-2.6564,0.0,-2.6564,-2.6564,-2.6564,-2.6564,-2.6667,-2.6786,-2.6786,-2.6888,-2.6991,-2.6991,-2.6991,-2.6991,-2.6991,-2.6991,-2.6991,-2.6991,-2.6784,-2.6612,-2.6612,-2.6612,-2.6612,-2.6612,-2.6612,-2.6612,-2.6612,-2.6612,-2.6373,-2.5774,-2.5783,-2.5569,-2.5008,-2.5094,-2.5108,-2.5015,-2.544,-2.5674,-2.5737,-2.595,-2.6075,-2.6135,-2.5978,-2.5905,-2.585,-2.3575,-2.2529,0.0,0.0,0.0,0.0,0.0,0.0,0.0,0.0,0.0,0.0,0.0,-1.6757,-1.7088,0.0,-2.0263,-2.0473,-2.173,-2.2789,-2.3052,-2.3557,-2.3896,-2.3847,-2.3886,-2.3896,-2.3896,-2.3876,-2.4018,-2.4417,-2.4302,-2.4622,-2.5604,-2.5356,-2.5451,-2.6027,-2.6306,-2.6346,-2.6145,-2.6411,-2.66,-2.6703,-2.6533,-2.6581,-2.6792,-2.6792,-2.6792,-2.6792,-2.6792,-2.6825,-2.6859,-2.6925,-2.6959,-2.6959,-2.7106,-2.7088,-2.699,-2.699,-2.6957,-2.6891,-2.6891,-2.6875,-2.6859,-2.6859,-2.6859,-2.6859,-2.6859,-2.6859,-2.6859,-2.6859,-2.6859,-2.6859,-2.6859,-2.6859,-2.6859,-2.6859,-2.6859,-2.6859,-2.6859,-2.6859,-2.6859,-2.6859,-2.6859,-2.6859,-2.6859,-2.6859,-2.6875,-2.6975,-2.6991,-2.6991,-2.6991,-2.6991,-2.6991,-2.6991,-2.6991,-2.6854,-2.6479,-2.6475,-2.6199,-2.5463,-2.5572,-2.5467,-2.5068,-2.5312,-2.5612,-2.5943,-2.6081,-2.6295,-2.6602,-2.6602,-2.6602,-2.6565,-2.5354,-2.4804,0.0,0.0,0.0,0.0,0.0,0.0,0.0,-1.4934,-1.6094,-1.6145,-1.7845,-1.9272,-1.9189,-2.0493,-2.1688,-2.1941,-2.2475,-2.302,-2.3486,-2.375,-2.3886,-2.3886,-2.3886,-2.3941,-2.4104,-2.4009,-2.4303,-2.5172,-2.498,-2.5309,-2.6449,-2.6219,-2.6199,-2.6561,-2.7144,-2.7179,-2.6638,-2.7282,-2.7336,-2.6825,-2.6825,-2.6791,-2.6742,-2.6742,-2.6792,-2.6859,-2.6859,-2.6909,-2.6992,-2.6992,-2.6992,-2.6992,-2.6992,-2.6859,-2.6708,-2.6741,-2.6758,-2.6742,-2.6742,-2.6725,-2.6691,-2.6691,-2.6691,-2.6691,-2.6691,-2.6691,-2.6691,-2.6691,-2.6691,-2.6691,-2.6691,-2.6691,-2.6691,-2.6691,-2.6691,-2.6691,-2.6691,-2.6691,-2.6691,-2.6691,-2.6691,-2.6691,-2.6691,-2.6691,-2.6758,-2.6925,-2.6942,-2.6942,-2.6942,-2.6942,-2.6942,-2.6942,-2.6942,-2.6958,-2.6992,-2.6992,-2.6736,-2.6154,-2.6166,-2.5906,-2.5257,-2.5298,-2.5588,-2.6117,-2.6131,-2.636,-2.6847,-2.6877,-2.691,-2.6955,-2.6977,-2.6852,-1.377,-1.3382,-1.3176,-1.3995,-1.4812,-1.5361,0.0,-1.6362,-1.7604,-1.8072,-1.8783,-1.9532,-2.0344,-2.1098,-2.1744,-2.2183,-2.2903,-2.3479,-2.3724,-2.3795,-2.3806,-2.3806,-2.3806,-2.4096,-2.4802,-2.465,-2.4944,-2.5982,-2.5817,-2.6138,-2.7224,-2.7025,-2.7081,-2.7536,-2.733,-2.7199,-2.7106,-2.7208,-2.7243,-2.7224,-2.7224,-2.7117,-2.6893,-2.6893,-2.6809,-2.6725,-2.6725,-2.6792,-2.6909,-2.6909,-2.6909,-2.6909,-2.6909,-2.6825,-2.6708,-2.6892,-2.6925,-2.6893,-2.6893,-2.6792,-2.6691,-2.6691,-2.6691,-2.6691,-2.6691,-2.6691,-2.6691,-2.6691,-2.6691,-2.6691,-2.6691,-2.6691,-2.6691,-2.6691,-2.6691,-2.6691,-2.6691,-2.6691,-2.6691,-2.6691,-2.6691,-2.6691,-2.6691,-2.6691,-2.6708,-2.6725,-2.6725,-2.6725,-2.6725,-2.6725,-2.6725,-2.6725,-2.6725,-2.6775,-2.6909,-2.6909,-2.6908,-2.6888,-2.7108,-2.7191,-2.7089,-2.7373,-2.7593,-2.7646,-2.7646,-2.7688,-2.7743,-2.7798,-2.796,-2.8187,-2.8329,-2.7747,-1.5468,-1.5335,-1.5377,-1.635,-1.7197,-1.7899,-1.8278,-1.9148,-1.9903,-2.0094,-2.0566,-2.0974,-2.1143,-2.1996,-2.267,-2.2538,-2.3181,-2.3602,-2.3416,-2.3913,-2.428,-2.4266,-2.4675,-2.4972,-2.4998,-2.5323,-2.5913,-2.6844,-2.6654,-2.6969,-2.8044,-2.7674,-2.7565,-2.7922,-2.7654,-2.74,-2.7197,-2.7197,-2.7117,-2.6955,-2.6955,-2.6891,-2.6792,-2.6792,-2.6742,-2.6691,-2.6691,-2.6742,-2.6792,-2.6792,-2.6792,-2.6792,-2.6792,-2.6742,-2.6708,-2.6792,-2.6809,-2.6792,-2.6792,-2.6742,-2.6691,-2.6691,-2.6691,-2.6691,-2.6691,-2.6691,-2.6691,-2.6691,-2.6691,-2.6691,-2.6691,-2.6691,-2.6691,-2.6691,-2.6691,-2.6691,-2.6691,-2.6691,-2.6691,-2.6691,-2.6691,-2.6691,-2.6691,-2.6691,-2.6691,-2.6691,-2.6691,-2.6691,-2.6691,-2.6691,-2.6691,-2.6691,-2.6691,-2.6725,-2.6792,-2.6792,-2.6809,-2.6808,-2.694,-2.6987,-2.6987,-2.7131,-2.7319,-2.7562,-2.7545,-2.7681,-2.7897,-2.8088,-2.8219,-2.835,-2.8633,-2.8462,-1.7144,-1.7411,-1.7858,-1.8866,-1.9554,-2.0126,-2.0654,-2.1197,-2.1564,-2.1435,-2.1821,-2.2111,-2.1865,-2.2627,-2.3206,-2.2947,-2.3307,-2.3585,-2.3524,-2.4135,-2.4688,-2.4908,-2.5707,-2.6086,-2.5692,-2.6116,-2.6772,-2.7646,-2.7396,-2.7562,-2.8417,-2.7989,-2.7757,-2.7851,-2.7651,-2.7398,-2.7069,-2.7259,-2.723,-2.7012,-2.7232,-2.7317,-2.7317,-2.7317,-2.7317,-2.7317,-2.7317,-2.7317,-2.7317,-2.7317,-2.7317,-2.7317,-2.7317,-2.7317,-2.7317,-2.7317,-2.7063,-2.6691,-2.6691,-2.6691,-2.6691,-2.6691,-2.6691,-2.6691,-2.6691,-2.6691,-2.6691,-2.6691,-2.6691,-2.6691,-2.6691,-2.6691,-2.6691,-2.6691,-2.6691,-2.6691,-2.6691,-2.6691,-2.6691,-2.6691,-2.6691,-2.6691,-2.6691,-2.6691,-2.6691,-2.6691,-2.6691,-2.6691,-2.6691,-2.6691,-2.6691,-2.6691,-2.6691,-2.6691,-2.6691,-2.6691,-2.6691,-2.6691,-2.6691,-2.6691,-2.6691,-2.6691,-2.6841,-2.7131,-2.7131,-2.7288,-2.756,-2.7791,-2.796,-2.8053,-2.8464,-2.87,-1.8681,-1.9452,-2.0424,-2.1429,-2.1702,-2.1677,-2.1498,-2.1793,-2.2009,-2.1744,-2.2057,-2.2453,-2.2624,-2.2694,-2.2889,-2.3383,-2.3277,-2.347,-2.4432,-2.4593,-2.489,-2.5674,-2.6693,-2.7351,-2.7333,-2.711,-2.7412,-2.8466,-2.801,-2.7808,-2.8102,-2.784,-2.755,-2.7244,-2.7213,-2.7053,-2.6708,-2.7418,-2.7773,-2.7773,-2.8552,-2.8925,-2.8925,-2.8925,-2.8925,-2.8925,-2.8925,-2.8925,-2.8925,-2.8925,-2.8925,-2.8925,-2.8925,-2.8925,-2.8925,-2.8925,-2.7994,-2.6691,-2.6691,-2.6691,-2.6691,-2.6691,-2.6691,-2.6691,-2.6691,-2.6691,-2.6691,-2.6691,-2.6691,-2.6691,-2.6691,-2.6691,-2.6691,-2.6691,-2.6691,-2.6691,-2.6691,-2.6691,-2.6691,-2.6691,-2.6691,-2.6691,-2.6691,-2.6691,-2.6691,-2.6691,-2.6691,-2.6691,-2.6691,-2.6691,-2.6691,-2.6691,-2.6691,-2.6691,-2.6691,-2.6691,-2.6691,-2.6691,-2.6691,-2.6691,-2.6691,-2.6691,-2.6708,-2.6725,-2.6725,-2.6725,-2.6741,-2.6892,-2.7119,-2.7439,-2.7855,-2.8246,-2.0371,-2.0843,-2.1343,-2.2328,-2.2593,-2.2722,-2.3179,-2.3256,-2.3127,-2.2782,-2.275,-2.2725,-2.2487,-2.2623,-2.2816,-2.2952,-2.3047,-2.3409,-2.4277,-2.4824,-2.5503,-2.6483,-2.7201,-2.7664,-2.7847,-2.7988,-2.8126,-2.825,-2.8093,-2.794,-2.7826,-2.7535,-2.7322,-2.7197,-2.7468,-2.7538,-2.7418,-2.8213,-2.8602,-2.8602,-2.8874,-2.8993,-2.8993,-2.8993,-2.8993,-2.8993,-2.8993,-2.8993,-2.8993,-2.8993,-2.8993,-2.8993,-2.8993,-2.8993,-2.8993,-2.8993,-2.8671,-2.8231,-2.8231,-2.8231,-2.8231,-2.8231,-2.8231,-2.8231,-2.8231,-2.8231,-2.8231,-2.8231,-2.8231,-2.8231,-2.8231,-2.8231,-2.8231,-2.8231,-2.8231,-2.8231,-2.8231,-2.8231,-2.8231,-2.8231,-2.8231,-2.8231,-2.8231,-2.8231,-2.8231,-2.8231,-2.7368,-2.6691,-2.6691,-2.6691,-2.6691,-2.6691,-2.6691,-2.6691,-2.6691,-2.6691,-2.6691,-2.6691,-2.6691,-2.6691,-2.6691,-2.6691,-2.6691,-2.6691,-2.6691,-2.6691,-2.6691,-2.6973,-2.7166,-2.7274,-2.7681,-2.7968,-2.1639,-2.218,-2.262,-2.3281,-2.3428,-2.3566,-2.408,-2.3966,-2.3639,-2.3271,-2.3042,-2.2803,-2.2501,-2.2619,-2.2812,-2.2955,-2.3042,-2.351,-2.4668,-2.5252,-2.5972,-2.7112,-2.7596,-2.7869,-2.7954,-2.8151,-2.8197,-2.7982,-2.7968,-2.7826,-2.7552,-2.7322,-2.7271,-2.7398,-2.7674,-2.7942,-2.823,-2.8991,-2.9534,-2.9788,-2.9788,-2.9788,-2.9788,-2.9788,-2.9788,-2.9788,-2.9788,-2.9788,-2.9788,-2.9788,-2.9788,-2.9788,-2.9788,-2.9788,-2.9788,-2.9788,-2.9788,-2.9721,-2.9179,-2.8993,-2.8993,-2.8993,-2.8993,-2.8993,-2.8993,-2.8993,-2.8993,-2.8993,-2.8993,-2.8993,-2.8993,-2.8993,-2.8993,-2.8993,-2.8993,-2.8993,-2.8993,-2.8993,-2.8993,-2.8993,-2.8993,-2.8993,-2.8993,-2.8993,-2.8993,-2.8993,-2.8163,-2.752,-2.752,-2.752,-2.752,-2.752,-2.752,-2.752,-2.752,-2.752,-2.752,-2.752,-2.752,-2.752,-2.752,-2.752,-2.752,-2.752,-2.752,-2.752,-2.752,-2.7725,-2.786,-2.7893,-2.8244,-2.8461,-2.256,-2.347,-2.419,-2.419,-2.419,-2.419,-2.4153,-2.3842,-2.3461,-2.3141,-2.2833,-2.2608,-2.2616,-2.2634,-2.2824,-2.3369,-2.3242,-2.3723,-2.5526,-2.5777,-2.625,-2.7552,-2.7911,-2.795,-2.7713,-2.7672,-2.7672,-2.7669,-2.7669,-2.7537,-2.7197,-2.72,-2.7415,-2.779,-2.7874,-2.828,-2.9044,-2.9786,-3.0514,-3.119,-3.119,-3.119,-3.119,-3.119,-3.119,-3.119,-3.119,-3.119,-3.119,-3.119,-3.119,-3.119,-3.119,-3.119,-3.119,-3.119,-3.119,-3.0987,-2.9602,-2.9111,-2.9111,-2.9111,-2.9111,-2.9111,-2.9111,-2.9111,-2.9111,-2.9111,-2.9111,-2.9111,-2.9111,-2.9111,-2.9111,-2.9111,-2.9111,-2.9111,-2.9111,-2.9111,-2.9111,-2.9111,-2.9111,-2.9111,-2.9111,-2.9111,-2.9111,-2.9111,-2.9111,-2.9094,-2.901,-2.8993,-2.8993,-2.8993,-2.8993,-2.8993,-2.8993,-2.8993,-2.8993,-2.8993,-2.8993,-2.8993,-2.8993,-2.8993,-2.8993,-2.8993,-2.8993,-2.8993,-2.8993,-2.8993,-2.9029,-2.9101,-2.9369,-2.9539,-2.3562,-2.3996,-2.419,-2.419,-2.419,-2.4043,-2.3428,-2.3111,-2.2646,-2.1683,-2.1351,-2.1288,-2.161,-2.1664,-2.1949,-2.2835,-2.2889,-2.3424,-2.5253,-2.5491,-2.6045,-2.7523,-2.7535,-2.7504,-2.7669,-2.7243,-2.7052,-2.7307,-2.7322,-2.7181,-2.6841,-2.7352,-2.7691,-2.7807,-2.8906,-2.9599,-2.982,-3.0548,-3.1004,-3.119,-3.119,-3.119,-3.119,-3.119,-3.119,-3.119,-3.119,-3.119,-3.119,-3.119,-3.119,-3.119,-3.119,-3.119,-3.119,-3.119,-3.119,-3.114,-3.0768,-3.0632,-3.0632,-3.0632,-3.0632,-3.0632,-3.0632,-3.0632,-3.0632,-3.0632,-3.0632,-3.0632,-3.0632,-3.0632,-3.0632,-3.0632,-3.0632,-3.0632,-3.0632,-3.0632,-3.0632,-3.0632,-3.0632,-3.0632,-3.0632,-3.0632,-3.0632,-3.0632,-3.0632,-3.0245,-2.9145,-2.8993,-2.8993,-2.8993,-2.8993,-2.8993,-2.8993,-2.8993,-2.8993,-2.8993,-2.8993,-2.8993,-2.8993,-2.8993,-2.8993,-2.8993,-2.8993,-2.8993,-2.8993,-2.8993,-2.9011,-2.9029,-2.9102,-2.9157,-2.395,-2.419,-2.419,-2.419,-2.419,-2.3969,-2.3069,-2.2743,-2.2262,-2.1015,-2.0665,-2.0651,-2.0859,-2.0912,-2.129,-2.244,-2.2471,-2.3092,-2.5279,-2.5464,-2.5925,-2.7315,-2.7428,-2.7384,-2.7274,-2.7052,-2.694,-2.6972,-2.7117,-2.719,-2.7182,-2.7709,-2.8252,-2.8787,-2.9651,-3.026,-3.0581,-3.0987,-3.119,-3.119,-3.119,-3.119,-3.119,-3.119,-3.119,-3.119,-3.119,-3.119,-3.119,-3.119,-3.119,-3.119,-3.119,-3.119,-3.119,-3.119,-3.119,-3.119,-3.119,-3.119,-3.119,-3.119,-3.119,-3.119,-3.119,-3.119,-3.119,-3.119,-3.119,-3.119,-3.119,-3.119,-3.119,-3.119,-3.119,-3.119,-3.119,-3.119,-3.119,-3.119,-3.119,-3.119,-3.119,-3.119,-3.119,-3.119,-3.119,-3.0886,-3.0076,-2.9974,-2.9974,-2.9974,-2.9974,-2.9974,-2.9974,-2.9974,-2.9974,-2.9974,-2.9974,-2.9974,-2.9974,-2.9974,-2.9974,-2.9974,-2.9974,-2.9974,-2.9974,-2.9974,-2.9974,-2.9974,-2.9974,-2.9993,-2.4006,-2.419,-2.419,-2.419,-2.4097,-2.3728,-2.2761,-2.2313,-2.1728,-2.0414,-2.0027,-1.9958,-2.0056,-2.0073,-2.0547,-2.2075,-2.2064,-2.271,-2.5189,-2.542,-2.5746,-2.6855,-2.733,-2.7352,-2.6825,-2.6989,-2.7071,-2.6927,-2.7142,-2.7433,-2.7791,-2.8271,-2.9058,-3.0209,-3.026,-3.0548,-3.119,-3.119,-3.119,-3.119,-3.119,-3.119,-3.119,-3.119,-3.119,-3.119,-3.119,-3.119,-3.119,-3.119,-3.119,-3.119,-3.119,-3.119,-3.119,-3.119,-3.119,-3.119,-3.119,-3.119,-3.119,-3.119,-3.119,-3.119,-3.119,-3.119,-3.119,-3.119,-3.119,-3.119,-3.119,-3.119,-3.119,-3.119,-3.119,-3.119,-3.119,-3.119,-3.119,-3.119,-3.119,-3.119,-3.119,-3.119,-3.119,-3.119,-3.119,-3.119,-3.119,-3.119,-3.119,-3.119,-3.119,-3.119,-3.119,-3.119,-3.119,-3.119,-3.119,-3.119,-3.119,-3.119,-3.119,-3.119,-3.119,-3.119,-3.119,-3.119,-3.119,-3.119,-3.119,-3.119,-2.4153,-2.419,-2.419,-2.419,-2.3523,-2.2666,-2.1821,-2.0787,-1.9587,-1.8039,-1.7549,-1.7635,-1.8299,-1.833,-1.9053,-2.1511,-2.177,-2.2245,-2.3914,-2.4639,-2.5205,-2.5822,-2.6467,-2.694,-2.7101,-2.6923,-2.713,-2.796,-2.7811,-2.7741,-2.7807,-2.9063,-3.0165,-3.097,-3.1004,-3.1072,-3.119,-3.119,-3.119,-3.119,-3.119,-3.119,-3.119,-3.119,-3.119,-3.119,-3.119,-3.119,-3.119,-3.119,-3.119,-3.119,-3.119,-3.119,-3.119,-3.119,-3.119,-3.119,-3.119,-3.119,-3.119,-3.119,-3.119,-3.119,-3.119,-3.119,-3.119,-3.119,-3.119,-3.119,-3.119,-3.119,-3.119,-3.119,-3.119,-3.119,-3.119,-3.119,-3.119,-3.119,-3.119,-3.119,-3.119,-3.119,-3.119,-3.119,-3.119,-3.119,-3.119,-3.119,-3.119,-3.119,-3.119,-3.119,-3.119,-3.119,-3.119,-3.119,-3.119,-3.119,-3.119,-3.119,-3.119,-3.119,-3.119,-3.119,-3.119,-3.119,-3.119,-3.119,-3.119,-3.119,-2.419,-2.419,-2.419,-2.419,-2.348,-2.2487,-2.1478,-2.0093,-1.8631,-1.7228,-1.6533,-1.6339,-1.6871,-1.7188,-1.7996,-1.9825,-2.0605,-2.1505,-2.3026,-2.3744,-2.449,-2.5489,-2.6058,-2.6528,-2.6888,-2.6956,-2.7263,-2.7981,-2.8268,-2.8602,-2.8973,-3.0074,-3.0835,-3.119,-3.119,-3.119,-3.119,-3.119,-3.119,-3.119,-3.119,-3.119,-3.119,-3.119,-3.119,-3.119,-3.119,-3.119,-3.119,-3.119,-3.119,-3.119,-3.119,-3.119,-3.119,-3.119,-3.119,-3.119,-3.119,-3.119,-3.119,-3.119,-3.119,-3.119,-3.119,-3.119,-3.119,-3.119,-3.119,-3.119,-3.119,-3.119,-3.119,-3.119,-3.119,-3.119,-3.119,-3.119,-3.119,-3.119,-3.119,-3.119,-3.119,-3.119,-3.119,-3.119,-3.119,-3.119,-3.119,-3.119,-3.119,-3.119,-3.119,-3.119,-3.119,-3.119,-3.119,-3.119,-3.119,-3.119,-3.119,-3.119,-3.119,-3.119,-3.119,-3.119,-3.119,-3.119,-3.119,-3.119,-3.119,-3.119,-2.419,-2.419,-2.4153,-2.396,-2.3197,-2.2141,-2.0855,-1.933,-1.7794,-1.6365,-1.5566,-1.5207,-1.5418,-1.6003,-1.6905,-1.8235,-1.9551,-2.0864,-2.2203,-2.3016,-2.3958,-2.5203,-2.5743,-2.6182,-2.6657,-2.7076,-2.7536,-2.801,-2.8924,-2.9719,-3.0311,-3.0886,-3.119,-3.119,-3.119,-3.119,-3.119,-3.119,-3.119,-3.119,-3.119,-3.119,-3.119,-3.119,-3.119,-3.119,-3.119,-3.119,-3.119,-3.119,-3.119,-3.119,-3.119,-3.119,-3.119,-3.119,-3.119,-3.119,-3.119,-3.119,-3.119,-3.119,-3.119,-3.119,-3.119,-3.119,-3.1171,-3.1075,-3.1055,-3.1055,-3.1055,-3.1055,-3.1092,-3.1171,-3.119,-3.119,-3.119,-3.119,-3.119,-3.119,-3.119,-3.119,-3.119,-3.119,-3.119,-3.119,-3.119,-3.119,-3.119,-3.119,-3.119,-3.119,-3.119,-3.119,-3.119,-3.119,-3.119,-3.119,-3.119,-3.119,-3.119,-3.119,-3.119,-3.119,-3.119,-3.119,-3.119,-3.119,-3.119,-3.119,-3.119,-3.119,-2.419,-2.419,-2.4015,-2.3217,-2.2092,-2.0759,-1.9193,-1.7828,-1.6268,-1.4159,-1.365,-1.3633,-1.3701,-1.427,-1.545,-1.7608,-1.9333,-2.0622,-2.1253,-2.273,-2.397,-2.4521,-2.5217,-2.5912,-2.664,-2.7334,-2.8062,-2.884,-3.0211,-3.1021,-3.1089,-3.1157,-3.119,-3.119,-3.119,-3.119,-3.119,-3.119,-3.119,-3.119,-3.119,-3.119,-3.119,-3.119,-3.119,-3.119,-3.119,-3.119,-3.119,-3.119,-3.119,-3.119,-3.119,-3.119,-3.119,-3.119,-3.119,-3.119,-3.119,-3.119,-3.119,-3.119,-3.119,-3.119,-3.119,-3.119,-3.1112,-3.0679,-3.0559,-3.0559,-3.0559,-3.0559,-3.0679,-3.1095,-3.119,-3.119,-3.119,-3.119,-3.119,-3.119,-3.119,-3.119,-3.119,-3.119,-3.119,-3.119,-3.119,-3.119,-3.119,-3.119,-3.119,-3.119,-3.119,-3.119,-3.119,-3.119,-3.119,-3.119,-3.119,-3.119,-3.119,-3.119,-3.119,-3.119,-3.119,-3.119,-3.119,-3.119,-3.119,-3.119,-3.119,-3.119,-2.3679,-2.3503,-2.3173,-2.263,-2.1376,-1.9944,-1.8698,-1.7275,-1.5683,-1.3795,-1.3049,-1.2753,-1.2769,-1.3362,-1.4429,-1.6228,-1.782,-1.9216,-2.0327,-2.1487,-2.279,-2.432,-2.4762,-2.5389,-2.6589,-2.7385,-2.8314,-2.9567,-3.0615,-3.119,-3.119,-3.119,-3.119,-3.119,-3.119,-3.119,-3.119,-3.119,-3.119,-3.119,-3.119,-3.119,-3.119,-3.119,-3.119,-3.119,-3.119,-3.119,-3.119,-3.119,-3.119,-3.119,-3.119,-3.119,-3.119,-3.119,-3.119,-3.119,-3.119,-3.1151,-3.1092,-3.1092,-3.0838,-3.0576,-3.072,-3.0781,-3.0679,-3.0204,-3.0075,-3.0075,-2.9978,-3.0123,-3.033,-3.058,-3.0838,-3.1012,-3.1012,-3.0757,-3.0539,-3.0539,-3.0293,-3.0208,-3.0477,-3.0539,-3.0638,-3.0972,-3.1012,-3.1012,-3.1012,-3.1012,-3.1012,-3.1012,-3.1131,-3.119,-3.119,-3.119,-3.119,-3.119,-3.119,-3.119,-3.119,-3.119,-3.119,-3.119,-3.119,-3.119,-3.119,-3.119,-3.119,-3.119,-3.119,-3.119,-2.2708,-2.2488,-2.2102,-2.1607,-2.0405,-1.9054,-1.7857,-1.6334,-1.471,-1.3048,-1.2128,-1.162,-1.162,-1.2423,-1.3557,-1.5037,-1.6757,-1.841,-1.9794,-2.0764,-2.2112,-2.4252,-2.4491,-2.5083,-2.6556,-2.7588,-2.8805,-3.0311,-3.0903,-3.119,-3.119,-3.119,-3.119,-3.119,-3.119,-3.119,-3.119,-3.119,-3.119,-3.119,-3.119,-3.119,-3.119,-3.119,-3.119,-3.119,-3.119,-3.119,-3.119,-3.119,-3.119,-3.119,-3.119,-3.119,-3.119,-3.119,-3.1171,-3.1151,-3.1151,-3.1072,-3.0935,-3.0797,-3.0435,-3.0081,-3.0,-3.0064,-3.0081,-2.9601,-2.9467,-2.9445,-2.9361,-2.9607,-2.993,-3.0016,-3.0246,-3.0452,-3.0452,-3.0161,-2.9908,-2.9908,-2.9739,-2.9673,-2.9848,-3.0123,-3.041,-3.0634,-3.0794,-3.0892,-3.0892,-3.0892,-3.0892,-3.0892,-3.1032,-3.1112,-3.1112,-3.1112,-3.1112,-3.1112,-3.1112,-3.1112,-3.1112,-3.1131,-3.1151,-3.1151,-3.1171,-3.119,-3.119,-3.119,-3.119,-3.119,-3.119,-3.119,-2.1217,-2.1167,-2.0919,-2.0038,-1.9069,-1.7897,-1.6292,-1.4632,-1.299,-1.1441,-1.0531,-1.0018,-1.0018,-1.1275,-1.2787,-1.4267,-1.6588,-1.8616,-1.9832,-2.0925,-2.231,-2.4267,-2.4491,-2.5083,-2.6556,-2.8096,-2.9602,-3.1072,-3.119,-3.119,-3.119,-3.119,-3.119,-3.119,-3.119,-3.119,-3.119,-3.119,-3.119,-3.119,-3.119,-3.119,-3.119,-3.119,-3.119,-3.119,-3.119,-3.119,0.0,-3.119,-3.119,-3.119,-3.119,-3.119,-3.119,-3.119,-3.1112,-3.0995,-3.0995,-3.0972,-3.0814,-3.0288,-3.0102,-2.993,-2.8996,-2.9042,-2.9316,-2.885,-2.8709,-2.8709,-2.8709,-2.9042,-2.9406,-2.9406,-2.9406,-2.9406,-2.9406,-2.9406,-2.9406,-2.9406,-2.9783,-2.9951,-2.9496,-3.0225,-3.0712,-3.0204,-3.0572,-3.0892,-3.0892,-3.0892,-3.0892,-3.0892,-3.0892,-3.0912,-3.0912,-3.0912,-3.0912,-3.0912,-3.0912,-3.0912,-3.0912,-3.0972,-3.0995,-3.0995,-3.1131,-3.119,-3.119,-3.119,-3.119,-3.119,-3.119,-3.119,-2.0405,-2.0344,-1.9815,-1.8756,-1.7876,-1.6867,-1.5303,-1.4143,-1.2956,-1.1424,-1.0514,-1.0153,-1.0656,-1.1147,-1.2314,-1.4834,-1.5911,-1.7248,-1.9659,-2.0293,-2.1504,-2.4184,-2.5828,-2.7148,-2.818,-2.9161,-3.0159,-3.1123,-3.119,-3.119,-3.119,-3.119,-3.119,-3.119,-3.119,-3.119,-3.119,-3.119,-3.119,-3.119,-3.119,-3.119,-3.119,-3.119,-3.119,-3.119,-3.119,-3.119,-3.119,-3.119,-3.119,-3.119,-3.119,-3.1151,-3.1055,-3.1055,-3.1012,-3.0932,-3.0932,-3.0654,-3.0262,-3.0075,-2.9496,-2.8818,-2.8528,-2.8646,-2.8826,-2.835,-2.8171,-2.8122,-2.8195,-2.8415,-2.867,-2.8756,-2.8989,-2.9196,-2.9196,-2.8919,-2.8764,-2.9127,-2.9019,-2.9027,-2.9579,-2.9924,-3.0092,-2.9924,-3.0305,-3.051,-3.0199,-3.0426,-3.063,-3.063,-3.063,-3.0692,-3.0892,-3.0892,-3.0892,-3.0892,-3.0892,-3.0892,-3.0892,-3.0932,-3.0932,-3.0932,-3.0972,-3.1012,-3.1055,-3.1055,-3.1112,-3.119,-3.119,-3.119,-1.8347,-1.8373,-1.7965,-1.7253,-1.6506,-1.56,-1.4369,-1.3286,-1.2186,-1.0944,-1.0098,-0.981,-1.0555,-1.1164,-1.2348,-1.48,-1.59,-1.7259,-1.9664,-2.0268,-2.1465,-2.4186,-2.6454,-2.8111,-2.8925,-2.9668,-3.0412,-3.114,-3.119,-3.119,-3.119,-3.119,-3.119,-3.119,-3.119,-3.119,-3.119,-3.119,-3.119,-3.119,-3.119,-3.119,-3.119,-3.119,-3.119,-3.119,-3.119,-3.1171,0.0,-3.1131,-3.1112,-3.1092,-3.1092,-3.1032,-3.0955,-3.0955,-3.0895,-3.081,-3.0613,-3.0284,-2.9859,-2.9473,-2.8764,-2.8027,-2.8027,-2.8149,-2.8222,-2.7925,-2.779,-2.774,-2.7815,-2.7934,-2.8052,-2.814,-2.8343,-2.8535,-2.8535,-2.8271,-2.8198,-2.8685,-2.8543,-2.8551,-2.9377,-2.9528,-2.9528,-2.9528,-2.9772,-2.9875,-2.9572,-2.9793,-2.9984,-2.9984,-2.9984,-3.0049,-3.022,-3.0568,-3.0733,-3.0733,-3.0733,-3.0733,-3.0733,-3.081,-3.0814,-3.0814,-3.0871,-3.0932,-3.0955,-3.0995,-3.1072,-3.119,-3.119,-3.119,0.0,-1.5672,-1.5695,-1.5634,-1.505,-1.4301,-1.3574,-1.2254,0.0,-1.0305,-0.958,-0.9281,-1.0024,-1.1383,-1.2872,-1.4402,-1.6414,-1.8341,-1.9866,-2.0856,-2.2223,-2.4321,-2.6539,-2.8197,-2.8925,-2.9702,-3.0463,-3.114,-3.119,-3.119,-3.119,-3.119,-3.119,-3.119,-3.119,-3.119,-3.119,-3.119,-3.119,-3.119,-3.119,-3.119,-3.119,-3.119,-3.119,-3.119,-3.1171,-3.1112,-3.0995,-3.0995,-3.0972,-3.0892,-3.0892,-3.0892,-3.0892,-3.0892,-3.081,-3.063,-3.0156,-2.9881,-2.9579,-2.8591,-2.7953,-2.76,-2.76,-2.76,-2.76,-2.76,-2.76,-2.76,-2.76,-2.76,-2.76,-2.76,-2.76,-2.76,-2.76,-2.76,-2.7735,-2.8207,-2.8288,-2.8472,-2.9005,-2.9097,-2.909,-2.9051,-2.9074,-2.909,-2.9051,-2.9074,-2.9097,-2.9097,-2.9097,-2.9097,-2.9097,-2.9897,-3.0405,-3.0405,-3.0405,-3.0405,-3.0447,-3.0568,-3.0651,-3.0651,-3.0773,-3.0851,-3.0892,-3.0955,-3.1055,-3.119,-3.119,-3.119,-1.3769,0.0,-1.5556,-1.4939,-1.4631,-1.4301,0.0,-1.2677,-1.1975,-1.1806,-1.113,-1.0815,-1.162,-1.2525,-1.3811,-1.5842,-1.7084,-1.8538,-2.0619,-2.2544,-2.4135,-2.522,-2.7334,-2.8807,-2.8976,-3.0194,-3.1004,-3.119,-3.119,-3.119,-3.119,-3.119,-3.119,-3.119,-3.119,-3.119,-3.119,-3.119,-3.119,-3.119,-3.119,-3.119,-3.119,-3.1075,-3.1052,-3.1035,-3.0992,-3.0952,-3.0932,-3.0932,-3.0912,-3.0892,-3.0892,-3.0851,-3.0733,-3.0733,-3.0651,-3.0468,-3.0006,-2.9595,-2.9097,-2.8076,-2.7685,-2.76,-2.76,-2.76,-2.76,-2.76,-2.76,-2.76,-2.76,-2.76,-2.76,-2.76,-2.76,-2.76,-2.76,-2.76,-2.7735,-2.8207,-2.8288,-2.8472,-2.9005,-2.9097,-2.8958,-2.8543,-2.8842,-2.8958,-2.8543,-2.8865,-2.9097,-2.9097,-2.9097,-2.9097,-2.9097,-2.9303,-2.9438,-2.9438,-2.9438,-2.9595,-2.9962,-3.0006,-3.0027,-3.0027,-3.0135,-3.0405,-3.0733,-3.0871,-3.0972,-3.1052,-3.1052,-3.1112,-1.2795,-1.3752,-1.4533,-1.4099,-1.4005,-1.3802,-1.3066,-1.2592,-1.2195,-1.1823,-1.1705,-1.1898,-1.266,-1.3676,-1.503,-1.6908,-1.8104,-1.9608,-2.1901,-2.3831,-2.527,-2.6015,-2.7825,-2.9128,-2.9465,-3.0531,-3.119,-3.119,-3.119,-3.119,-3.119,-3.119,-3.119,-3.119,-3.119,-3.119,-3.119,-3.119,-3.1171,-3.1112,-3.1112,-3.1092,-3.1052,-3.0992,-3.0955,-3.0952,-3.0912,-3.0871,-3.081,-3.081,-3.0773,-3.0712,-3.0712,-3.0671,-3.0609,-3.0609,-3.0426,-3.0113,-2.9639,-2.9005,-2.8319,-2.7785,-2.776,-2.7894,-2.7675,-2.776,-2.787,-2.766,-2.776,-2.787,-2.766,-2.776,-2.787,-2.7635,-2.76,-2.76,-2.76,-2.76,-2.7735,-2.8207,-2.8149,-2.8222,-2.8958,-2.8724,-2.8391,-2.8328,-2.8352,-2.8295,-2.8027,-2.8222,-2.8415,-2.8415,-2.8415,-2.8415,-2.8415,-2.8415,-2.8606,-2.9074,-2.9097,-2.9212,-2.9461,-2.9483,-2.9483,-2.9483,-2.955,-2.9733,-3.0016,-3.0326,-3.0531,-3.0597,-3.0855,-3.0975,-1.2263,-1.2846,-1.3396,-1.3396,-1.3396,-1.3278,-1.2754,-1.2635,-1.2466,-1.1891,-1.2331,-1.3032,-1.3769,-1.5013,-1.6424,-1.7901,-1.949,-2.1231,-2.3274,-2.4746,-2.593,-2.6776,-2.813,-2.9297,-3.004,-3.0768,-3.119,-3.119,-3.119,-3.119,-3.119,-3.119,-3.119,-3.119,-3.119,-3.119,-3.1171,-3.1171,-3.1112,-3.0975,-3.0975,-3.0955,-3.0892,-3.0892,-3.0871,-3.0871,-3.0851,0.0,-3.0671,-3.0671,-3.0609,-3.0506,-3.0506,-3.0447,-3.0384,-3.0384,-3.0092,-2.9617,-2.9143,-2.8367,-2.761,-2.7685,-2.7978,-2.8231,-2.782,-2.7978,-2.8207,-2.7735,-2.7894,-2.8085,-2.771,-2.7894,-2.81,-2.7685,-2.76,-2.76,-2.76,-2.76,-2.771,-2.811,-2.787,-2.7885,-2.8724,-2.8165,-2.7735,-2.8134,-2.7845,-2.76,-2.76,-2.76,-2.76,-2.76,-2.76,-2.76,-2.76,-2.76,-2.7944,-2.8818,-2.8865,-2.8912,-2.8982,-2.8982,-2.9028,-2.9097,-2.9028,-2.9058,-2.9194,-2.9645,-2.9903,-2.9995,-3.0514,-3.0773,-1.2111,-1.2846,-1.3396,-1.3396,-1.3396,-1.3523,-1.4047,-1.4165,-1.4301,-1.48,-1.5003,-1.5317,-1.6072,-1.6881,-1.7952,-1.941,-2.1468,-2.3224,-2.4186,-2.5067,-2.61,-2.7469,-2.8433,-2.9297,-3.004,-3.0768,-3.119,-3.119,-3.119,-3.119,-3.119,-3.119,-3.119,-3.119,-3.119,-3.1151,-3.1035,-3.1035,-3.0975,-3.0912,-3.0912,-3.0912,-3.0892,-3.0773,-3.0733,-3.0712,0.0,-3.0547,-3.0531,-3.0531,-3.0526,-3.0506,-3.0506,-3.0258,-2.9919,-2.9919,-2.9617,-2.9143,-2.8614,-2.8052,-2.7675,-2.8076,-2.8255,-2.8304,-2.8207,-2.8255,-2.8207,-2.7735,-2.7635,-2.7685,-2.7625,-2.766,-2.7685,-2.7625,-2.76,-2.76,-2.76,-2.76,-2.7625,-2.7685,-2.7635,-2.7635,-2.781,-2.771,-2.7625,-2.771,-2.7635,-2.76,-2.76,-2.76,-2.76,-2.76,-2.76,-2.76,-2.76,-2.76,-2.7675,-2.781,-2.7835,-2.8018,-2.8424,-2.8424,-2.8638,-2.9097,-2.8662,-2.8662,-2.912,-2.9189,-2.9271,-2.9352,-2.9886,-3.0161,-1.2077,-1.3126,-1.3988,-1.3988,-1.3988,-1.409,-1.4419,-1.4808,-1.5308,-1.6045,-1.6509,-1.7016,-1.7754,-1.8493,-1.9478,-2.0995,-2.2784,-2.4254,-2.4983,-2.6082,-2.7198,-2.8315,-2.9127,-2.9871,-3.0615,-3.1004,-3.1171,-3.1112,-3.1151,-3.1171,-3.1092,-3.1075,-3.1075,-3.1075,-3.1052,-3.0972,-3.0834,-3.0834,-3.0814,-3.0794,-3.0794,-3.0753,-3.0671,-3.063,-3.0589,-3.0589,0.0,-3.0506,-3.0506,-3.0506,-3.0363,-3.0156,-3.0405,-3.007,-2.9393,-2.9104,-2.885,-2.8591,-2.81,-2.777,-2.7685,-2.8134,-2.8496,-2.8685,-2.84,-2.8496,-2.8567,-2.781,-2.777,-2.7904,-2.7675,-2.7795,-2.7904,-2.766,-2.76,-2.76,-2.76,-2.76,-2.76,-2.76,-2.76,-2.76,-2.76,-2.76,-2.76,-2.76,-2.76,-2.76,-2.76,-2.76,-2.76,-2.76,-2.76,-2.76,-2.76,-2.76,-2.76,-2.76,-2.76,-2.771,-2.7904,-2.7904,-2.8042,-2.8271,-2.8052,-2.8027,-2.8286,-2.8543,-2.867,-2.8725,-2.9248,-2.9661,-1.2077,-1.3371,-1.4504,-1.4504,-1.4639,-1.4842,-1.5197,-1.5704,-1.6373,-1.7298,-1.7929,-1.8544,-1.9299,-2.0183,-2.1181,-2.2378,-2.3799,-2.4949,-2.5524,-2.6877,-2.8094,-2.8908,-2.9651,-3.0376,-3.1083,-3.1151,-3.1112,-3.0975,-3.1072,-3.1092,-3.0975,-3.0992,-3.0992,-3.0992,-3.0932,-3.0831,-3.0692,-3.0692,-3.0692,-3.0651,-3.0651,-3.0609,-3.0506,-3.0384,-3.0405,-3.0489,-3.0384,-3.0342,-3.0342,-3.0447,-3.0156,-2.9683,-3.0156,-2.975,-2.8865,-2.8328,-2.8134,-2.8085,-2.7735,-2.76,-2.771,-2.828,-2.8685,-2.8865,-2.8567,-2.8685,-2.8724,-2.786,-2.787,-2.8052,-2.7685,-2.787,-2.8052,-2.7685,-2.76,-2.76,-2.76,-2.76,-2.76,-2.76,-2.76,-2.76,-2.76,-2.76,-2.76,-2.76,-2.76,-2.76,-2.76,-2.76,-2.76,-2.76,-2.76,-2.76,-2.76,-2.76,-2.76,-2.76,-2.76,-2.76,-2.76,-2.76,-2.76,-2.76,-2.76,-2.76,-2.76,-2.7953,-2.8134,-2.8134,-2.8662,-2.912,-1.2077,-1.3371,-1.4504,-1.4504,-1.5011,-1.5883,-1.7242,-1.7597,-1.8053,-1.9473,-1.9799,-2.0099,-2.0886,-2.2206,-2.319,-2.3291,-2.456,-2.5541,-2.5592,-2.6877,-2.8094,-2.8908,-2.9651,-3.0338,-3.0948,-3.1015,-3.0975,-3.0912,-3.0912,-3.0912,-3.0912,-3.0912,-3.0912,-3.0912,-3.0912,-3.0831,-3.0692,-3.0692,-3.0651,-3.051,-3.051,-3.0506,-3.0506,-3.0049,-3.0092,-3.0468,-3.0049,-2.9853,-2.9881,-3.0321,-2.9984,-2.9189,-2.9661,-2.9241,-2.8304,-2.782,-2.7635,-2.7635,-2.761,-2.76,-2.776,-2.8724,-2.8732,-2.8432,-2.8912,-2.8709,-2.8255,-2.7735,-2.7625,-2.7635,-2.7625,-2.7625,-2.7635,-2.7625,-2.76,-2.76,-2.76,-2.76,-2.76,-2.76,-2.76,-2.76,-2.76,-2.76,-2.76,-2.76,-2.76,-2.76,-2.76,-2.76,-2.76,-2.76,-2.76,-2.76,-2.76,-2.76,-2.76,-2.76,-2.76,-2.76,-2.76,-2.76,-2.76,-2.76,-2.76,-2.76,-2.76,-2.7635,-2.7635,-2.766,-2.8149,-2.8376,-1.3202,-1.4402,-1.5399,-1.6312,-1.7117,-1.7676,-1.7783,-1.851,-1.9473,-2.0534,-2.0737,-2.1126,-2.2341,-2.3021,-2.3697,-2.4628,-2.5236,-2.5761,-2.6218,-2.7588,-2.8653,-2.8959,-2.9983,-3.0749,-3.0978,-3.0955,-3.0892,-3.0773,-3.0851,-3.0871,-3.0773,-3.079,-3.079,-3.079,-3.0692,-3.063,-3.0589,-3.0589,-3.0405,-3.007,-3.007,-3.007,-3.0049,-2.9572,-2.9617,-3.0049,-2.9572,-2.9528,-2.9793,-2.9661,-2.9416,-2.9074,-2.8943,-2.8622,-2.8255,-2.777,-2.76,-2.76,-2.76,-2.76,-2.771,-2.8376,-2.8472,-2.8336,-2.8543,-2.8757,-2.8817,-2.8342,-2.8528,-2.8753,-2.8323,-2.8203,-2.8334,-2.8753,-2.8843,-2.8843,-2.8843,-2.8843,-2.8843,-2.8843,-2.8843,-2.8843,-2.8843,-2.8843,-2.8843,-2.8843,-2.8843,-2.8843,-2.8843,-2.8498,-2.8203,-2.8203,-2.7854,-2.76,-2.76,-2.76,-2.76,-2.76,-2.76,-2.76,-2.76,-2.76,-2.76,-2.76,-2.76,-2.76,-2.76,-2.76,-2.76,-2.7585,-2.777,-2.8027,-1.3878,-1.5206,-1.6248,-1.749,-1.8724,-1.9486,-1.8995,-1.9642,-2.0589,-2.1393,-2.1732,-2.2274,-2.3526,-2.3934,-2.4425,-2.5439,-2.5779,-2.61,-2.6623,-2.7993,-2.8956,-2.8993,-3.0181,-3.0995,-3.0955,-3.0892,-3.0773,-3.0651,-3.0712,-3.0733,-3.0651,-3.0651,-3.0651,-3.0651,-3.0547,-3.0506,-3.0506,-3.0506,-3.0262,-2.9793,-2.9639,-2.9572,-2.955,-2.9058,-2.912,-2.955,-2.9058,-2.9035,-2.9309,-2.9166,-2.9005,-2.8818,-2.828,-2.8076,-2.8052,-2.771,-2.76,-2.76,-2.76,-2.771,-2.787,-2.8207,-2.8288,-2.8334,-2.8565,-2.8832,-2.9073,-2.8952,-2.9235,-2.9547,-2.9265,-2.9056,-2.9026,-2.9502,-2.9606,-2.9606,-2.9606,-2.9606,-2.9606,-2.9606,-2.9606,-2.9606,-2.9606,-2.9552,-2.9525,-2.9579,-2.9552,-2.9525,-2.9579,-2.919,-2.8906,-2.8906,-2.8513,-2.8154,-2.7944,-2.7929,-2.7824,-2.76,-2.7809,-2.7824,-2.76,-2.76,-2.76,-2.76,-2.76,-2.76,-2.76,-2.76,-2.76,-2.76,-2.76,-2.777,-1.3895,-1.5595,-1.6891,-1.7642,-1.9519,-2.119,-2.1207,-2.1207,-2.1427,-2.2175,-2.2902,-2.363,-2.4372,-2.5101,-2.5592,-2.5609,-2.6168,-2.6623,-2.6674,-2.7905,-2.8864,-2.8975,-3.0181,-3.0975,-3.0912,-3.0773,-3.0651,-3.0506,-3.0506,-3.0506,-3.0506,-3.0506,-3.0506,-3.0506,-3.0506,-3.0506,-3.0506,-3.0506,-3.0258,-2.9788,-2.9325,-2.9097,-2.9074,-2.8543,-2.8591,-2.9051,-2.8519,-2.8304,-2.8336,-2.8873,-2.8779,-2.8255,-2.7795,-2.7585,-2.76,-2.76,-2.76,-2.76,-2.76,-2.7919,-2.8288,-2.8288,-2.8304,-2.8427,-2.9085,-2.8991,-2.8757,-2.94,-2.9621,-2.9771,-3.0357,-3.0058,-2.9636,-2.9636,-2.9636,-2.9636,-2.9594,-2.9594,-2.9594,-2.9594,-2.9594,-2.9594,-2.9594,-2.9459,-2.9389,-2.9567,-2.9459,-2.9389,-2.9579,-2.9621,-2.9621,-2.9606,-2.9606,-2.9337,-2.8667,-2.8607,-2.8323,-2.766,-2.8233,-2.8308,-2.763,-2.7615,-2.7615,-2.7615,-2.76,-2.76,-2.76,-2.76,-2.76,-2.76,-2.76,-2.76,-1.48,-1.6356,-1.7777,-1.9022,-2.0281,-2.1343,-2.1854,-2.1972,-2.2175,-2.2919,-2.3619,-2.4332,-2.5072,-2.5393,-2.5697,-2.6219,-2.6471,-2.6606,-2.664,-2.7868,-2.8809,-2.879,-3.0046,-3.0875,-3.0773,-3.0651,-3.0547,-3.0506,-3.0506,-3.0506,-3.0506,-3.0506,-3.0506,-3.0506,-3.0506,-3.0506,-3.0506,-3.0156,-2.9772,-2.9303,-2.8779,-2.8543,-2.8519,-2.8027,-2.8076,-2.8519,-2.8027,-2.7978,-2.8312,-2.8472,-2.8247,-2.782,-2.8027,-2.7894,-2.76,-2.76,-2.76,-2.76,-2.76,-2.7919,-2.8255,-2.7904,-2.8362,-2.8989,-2.8838,-2.9354,-2.9983,-3.0178,-3.0582,-3.0972,-3.1022,-3.0933,-3.0799,-3.0799,-3.0799,-3.077,-3.0686,-3.0657,-3.0657,-3.0657,-3.0657,-3.0657,-3.0657,-3.0628,-3.0584,-3.0657,-3.0685,-3.0592,-3.0255,-3.0223,-3.0058,-2.9651,-2.9606,-2.9532,-2.931,-2.928,-2.9232,-2.9022,-2.9202,-2.8981,-2.8323,-2.8768,-2.9022,-2.9022,-2.8532,-2.8293,-2.8293,-2.7839,-2.76,-2.76,-2.76,-2.76,-1.5112,-1.6898,-1.851,-1.9697,-2.0839,-2.182,-2.2581,-2.275,-2.3023,-2.4039,-2.4551,-2.5042,-2.5782,-2.59,-2.6034,-2.6487,-2.652,-2.6604,-2.6906,-2.7961,-2.8781,-2.9063,-3.0115,-3.079,-3.0712,-3.0589,-3.0506,-3.0506,-3.0506,-3.0506,-3.0506,-3.0506,-3.0506,-3.0506,-3.0321,-3.022,-3.022,-2.975,-2.9264,-2.8779,-2.8448,-2.8207,-2.8002,-2.7735,-2.7745,-2.8002,-2.7735,-2.776,-2.8027,-2.8027,-2.7845,-2.7625,-2.7919,-2.7845,-2.76,-2.76,-2.76,-2.76,-2.76,-2.7919,-2.8277,-2.8052,-2.8591,-2.9307,-2.935,-2.9894,-3.0524,-3.0765,-3.1124,-3.138,-3.1278,-3.1205,-3.1205,-3.1205,-3.1205,-3.122,-3.1102,-3.1117,-3.1117,-3.1117,-3.1117,-3.1117,-3.1117,-3.1014,-3.1014,-3.1087,-3.1205,-3.1187,-3.0871,-3.0854,-3.0776,-3.0387,-3.0357,-3.0253,-2.9968,-2.9953,-2.9849,-2.9621,-2.9804,-2.9774,-2.937,-2.9505,-2.9606,-2.9606,-2.919,-2.8996,-2.8996,-2.8603,-2.8259,-2.8004,-2.8004,-2.7854,-1.5009,-1.7253,-1.9164,-1.9816,-2.1201,-2.2584,-2.3325,-2.353,-2.3955,-2.5242,-2.5546,-2.5765,-2.6368,-2.6485,-2.6485,-2.6485,-2.6382,-2.658,-2.7385,-2.8081,-2.8796,-2.9574,-3.0266,-3.0692,-3.0671,-3.0568,-3.0506,-3.0506,-3.0506,-3.0506,-3.0506,-3.0506,-3.0468,-3.0426,-3.0027,-2.9772,-2.9728,-2.9257,-2.8779,-2.8288,-2.8255,-2.8002,-2.76,-2.76,-2.76,-2.76,-2.76,-2.76,-2.76,-2.76,-2.76,-2.76,-2.76,-2.76,-2.76,-2.76,-2.76,-2.76,-2.76,-2.7919,-2.8314,-2.8508,-2.8944,-2.9511,-3.0228,-3.0496,-3.0647,-3.1143,-3.1292,-3.1263,-3.1102,-3.1087,-3.1087,-3.1043,-3.1043,-3.1087,-3.1043,-3.1043,-3.1043,-3.1043,-3.1043,-3.1043,-3.1043,-3.0895,-3.0851,-3.1043,-3.1176,-3.1263,-3.1292,-3.138,-3.1453,-3.1453,-3.1467,-3.1256,-3.0614,-3.0569,-3.0357,-2.9804,-3.0283,-3.0597,-3.0597,-3.0058,-2.9786,-2.9786,-2.9726,-2.9696,-2.9696,-2.9636,-2.9307,-2.8682,-2.8682,-2.8323,-1.5279,-1.7631,-1.9786,-1.9891,-2.1521,-2.327,-2.4027,-2.4634,-2.5141,-2.5444,-2.5916,-2.6301,-2.6331,-2.6347,-2.6347,-2.6347,-2.6313,-2.6563,-2.7313,-2.8044,-2.8738,-2.9394,-3.0202,-3.0651,-3.0568,-3.0526,-3.0506,-3.0506,-3.0506,-3.0506,-3.0506,-3.0506,-3.0342,-2.9962,-2.9837,-2.9617,-2.9257,-2.8732,-2.8408,-2.8304,-2.7929,-2.771,-2.76,-2.76,-2.76,-2.76,-2.76,-2.76,-2.76,-2.76,-2.76,-2.76,-2.76,-2.76,-2.76,-2.76,-2.76,-2.76,-2.76,-2.7919,-2.8314,-2.8334,-2.9075,-2.9955,-3.0131,-3.054,-3.1013,-3.1117,-3.1132,-3.1102,-3.091,-3.0866,-3.0821,-3.0732,-3.0791,-3.0821,-3.0732,-3.0702,-3.0702,-3.0702,-3.0702,-3.0702,-3.0702,-3.0672,-3.0702,-3.0821,-3.0881,-3.0969,-3.1132,-3.1161,-3.119,-3.119,-3.1263,-3.1276,-3.1142,-3.1214,-3.1227,-3.1092,-3.1212,-3.1286,-3.1286,-3.1152,-3.1077,-3.1077,-3.0582,-3.0313,-3.0313,-2.9819,-2.9532,-2.937,-2.937,-2.9037,-1.5027,-1.7401,-1.9652,-2.0663,-2.2327,-2.3835,-2.4221,-2.5161,-2.5967,-2.5899,-2.6149,-2.6381,-2.6259,-2.6241,-2.6241,-2.6241,-2.6241,-2.6623,-2.7719,-2.8201,-2.8813,-2.9814,-3.0336,-3.0589,-3.0506,-3.0506,-3.0506,-3.0506,-3.0506,-3.0506,-3.0506,-3.03,-3.0049,-2.981,-2.9332,-2.895,-2.8709,-2.8222,-2.7953,-2.7953,-2.771,-2.76,-2.76,-2.76,-2.76,-2.76,-2.76,-2.76,-2.76,-2.76,-2.76,-2.76,-2.76,-2.76,-2.76,-2.7539,-2.7549,-2.7575,-2.7448,-2.7805,-2.8354,-2.8601,-2.9339,-3.0148,-3.0495,-3.0807,-3.1087,-3.0984,-3.0955,-3.0925,-3.0762,-3.0702,-3.0702,-3.0612,-3.0642,-3.0702,-3.0612,-3.0598,-3.0598,-3.0598,-3.0598,-3.0598,-3.0598,-3.0598,-3.0612,-3.0702,-3.0762,-3.0821,-3.0955,-3.1043,-3.1132,-3.119,-3.1263,-3.1322,-3.138,-3.1467,-3.1511,-3.1511,-3.1511,-3.1511,-3.1511,-3.1511,-3.1511,-3.1511,-3.1152,-3.0972,-3.0972,-3.0672,-3.0342,-3.0028,-3.0028,-2.9684,-1.4427,-1.6908,-1.9357,-2.1315,-2.2906,-2.4027,-2.4144,-2.5263,-2.6283,-2.6296,-2.6295,-2.6294,-2.6203,-2.6202,-2.6202,-2.6202,-2.6202,-2.6684,-2.8028,-2.8326,-2.889,-3.0158,-3.0423,-3.0485,-3.0384,-3.0447,-3.0485,-3.0384,-3.0447,-3.0447,-3.0384,-3.0006,-2.9728,-2.955,-2.874,-2.8255,-2.8183,-2.7795,-2.76,-2.76,-2.76,-2.76,-2.76,-2.76,-2.76,-2.76,-2.76,-2.76,-2.76,-2.76,-2.76,-2.76,-2.76,-2.76,-2.7549,-2.7437,-2.7463,-2.7514,-2.7402,-2.7746,-2.8376,-2.9009,-2.9587,-3.0175,-3.0822,-3.1014,-3.0984,-3.0791,-3.0762,-3.0732,-3.0642,-3.0598,-3.0598,-3.0598,-3.0598,-3.0598,-3.0598,-3.0598,-3.0598,-3.0598,-3.0598,-3.0598,-3.0598,-3.0598,-3.0598,-3.0598,-3.0702,-3.0762,-3.0762,-3.0925,-3.1073,-3.1176,-3.1234,-3.1322,-3.1424,-3.1467,-3.1511,-3.1511,-3.1511,-3.1511,-3.1511,-3.1511,-3.1511,-3.1511,-3.1511,-3.1511,-3.1511,-3.1511,-3.1212,-3.0687,-3.0687,-3.0342,-1.3477,-1.6519,-1.9515,-2.0677,-2.2065,-2.333,-2.3964,-2.4763,-2.5547,-2.6179,-2.6295,-2.6294,-2.6203,-2.6202,-2.6202,-2.6202,-2.6202,-2.6501,-2.7332,-2.7995,-2.8691,-2.9466,-3.0108,-3.0342,-2.9941,-3.0262,-3.0342,-2.9924,-3.0279,-3.0321,-2.9919,-2.9815,-2.94,-2.8528,-2.836,-2.8085,-2.771,-2.7625,-2.76,-2.76,-2.76,-2.76,-2.76,-2.76,-2.76,-2.76,-2.76,-2.76,-2.76,-2.76,-2.76,-2.76,-2.76,-2.7539,-2.7412,-2.7401,-2.735,-2.7332,-2.7815,-2.8024,-2.8304,-2.9356,-2.9753,-2.9944,-3.0498,-3.0672,-3.0672,-3.0642,-3.0642,-3.0612,-3.0598,-3.0598,-3.0598,-3.0598,-3.0598,-3.0598,-3.0598,-3.0598,-3.0598,-3.0598,-3.0598,-3.0598,-3.0598,-3.0598,-3.0598,-3.0598,-3.0612,-3.0642,-3.0642,-3.0642,-3.0657,-3.0687,-3.094,-3.1132,-3.1132,-3.1366,-3.1511,-3.1511,-3.1511,-3.1511,-3.1511,-3.1511,-3.1511,-3.1511,-3.1511,-3.1511,-3.1511,-3.1511,-3.1451,-3.1376,-3.1376,-3.1002,-1.3719,-1.6261,-1.8556,-2.0307,-2.1541,-2.2521,-2.3268,-2.4331,-2.5245,-2.556,-2.5958,-2.6222,-2.6203,-2.6202,-2.6097,-2.5848,-2.5811,-2.6073,-2.6795,-2.7532,-2.8252,-2.8915,-2.9672,-2.9924,-2.9438,-2.9815,-3.0027,-2.9832,-2.9984,-3.0027,-2.9815,-2.9264,-2.8764,-2.8312,-2.8036,-2.7795,-2.76,-2.76,-2.76,-2.76,-2.76,-2.76,-2.76,-2.76,-2.76,-2.76,-2.76,-2.76,-2.76,-2.7539,-2.7488,-2.7488,-2.7412,-2.7335,-2.7299,-2.7196,-2.7196,-2.727,-2.7705,-2.8174,-2.8682,-2.942,-2.993,-3.0279,-3.051,-3.0598,-3.0598,-3.0598,-3.0598,-3.0598,-3.0598,-3.0598,-3.0598,-3.0598,-3.0598,-3.0598,-3.0598,-3.0598,-3.0598,-3.0598,-3.0598,-3.0598,-3.0598,-3.0598,-3.0598,-3.0598,-3.0598,-3.0598,-3.0598,-3.0598,-3.0642,-3.0702,-3.0821,-3.1014,-3.122,-3.1322,-3.1409,-3.1511,-3.1511,-3.1511,-3.1511,-3.1511,-3.1511,-3.1511,-3.1511,-3.1511,-3.1511,-3.1511,-3.1511,-3.1511,-3.1511,-3.1346,-1.35,-1.5535,-1.7214,-1.9259,-2.0617,-2.1609,-2.232,-2.3555,-2.4563,-2.4677,-2.5339,-2.5921,-2.5921,-2.607,-2.6043,-2.5594,-2.5503,-2.5659,-2.6095,-2.7049,-2.783,-2.8217,-2.9157,-2.9572,-2.8958,-2.9348,-2.9572,-2.9422,-2.955,-2.9572,-2.9422,-2.8717,-2.8255,-2.8149,-2.777,-2.76,-2.76,-2.76,-2.76,-2.76,-2.76,-2.76,-2.76,-2.76,-2.7575,-2.7549,-2.76,-2.7575,-2.7524,-2.7437,-2.7376,-2.735,-2.7233,-2.7181,-2.713,-2.7055,-2.7143,-2.7389,-2.7806,-2.8446,-2.9171,-2.9682,-3.019,-3.0598,-3.0598,-3.0598,-3.0598,-3.0598,-3.0598,-3.0598,-3.0598,-3.0598,-3.0598,-3.0598,-3.0598,-3.0598,-3.0598,-3.0598,-3.0598,-3.0598,-3.0598,-3.0598,-3.0598,-3.0598,-3.0598,-3.0598,-3.0598,-3.0598,-3.0598,-3.0598,-3.0642,-3.0732,-3.0791,-3.091,-3.1146,-3.1234,-3.1292,-3.1395,-3.1424,-3.1438,-3.1438,-3.1467,-3.1511,-3.1511,-3.1511,-3.1511,-3.1511,-3.1511,-3.1511,-3.1511,-3.1511,-3.1511,-1.1985,-1.389,-1.57,-1.6982,-1.8857,-2.054,-2.1227,-2.2243,-2.3126,-2.3502,-2.4426,-2.5176,-2.5176,-2.5722,-2.6043,-2.5594,-2.5503,-2.5387,-2.5029,-2.6547,-2.755,-2.7142,-2.8677,-2.9422,-2.8432,-2.8826,-2.8935,-2.8424,-2.885,-2.8896,-2.8408,-2.8312,-2.81,-2.7635,-2.761,-2.76,-2.76,-2.76,-2.76,-2.76,-2.76,-2.76,-2.76,-2.76,-2.7524,-2.7427,-2.7549,-2.7539,-2.7401,-2.7401,-2.7335,-2.7207,-2.7207,-2.7119,-2.7003,-2.7003,-2.7278,-2.7766,-2.8405,-2.9044,-2.9682,-3.0321,-3.0583,-3.0598,-3.0598,-3.0598,-3.0598,-3.0598,-3.0598,-3.0598,-3.0598,-3.0598,-3.0598,-3.0598,-3.0598,-3.0598,-3.0598,-3.0598,-3.0598,-3.0598,-3.0598,-3.0598,-3.0598,-3.0598,-3.0598,-3.0598,-3.0598,-3.0598,-3.0598,-3.0598,-3.0598,-3.0598,-3.0732,-3.0791,-3.0821,-3.1014,-3.1102,-3.1102,-3.1234,-3.1307,-3.1307,-3.1438,-3.1511,-3.1511,-3.1511,-3.1511,-3.1511,-3.1511,-3.1511,-3.1511,-3.1511,-3.1511,-1.0696,-1.2141,-1.3776,-1.5711,-1.7428,-1.8925,-2.008,-2.1311,-2.231,-2.2718,-2.3845,-2.4764,-2.4729,-2.5266,-2.561,-2.5179,-2.4902,-2.4679,-2.4533,-2.5884,-2.6773,-2.6516,-2.7889,-2.8591,-2.7904,-2.8295,-2.8519,-2.8312,-2.8472,-2.8496,-2.8328,-2.8002,-2.777,-2.7625,-2.76,-2.76,-2.76,-2.76,-2.76,-2.76,-2.76,-2.7549,-2.7463,-2.7463,-2.7386,-2.7284,-2.7321,-2.7335,-2.7258,-2.717,-2.7093,-2.7067,-2.6989,-2.691,-2.6916,-2.7297,-2.7561,-2.7855,-2.8899,-2.9407,-2.9697,-3.0364,-3.0598,-3.0598,-3.0598,-3.0598,-3.0598,-3.0598,-3.0598,-3.0598,-3.0598,-3.0598,-3.0598,-3.0598,-3.0598,-3.0598,-3.0598,-3.0598,-3.0598,-3.0598,-3.0598,-3.0598,-3.0598,-3.0598,-3.0598,-3.0598,-3.0598,-3.0598,-3.0598,-3.0598,-3.0598,-3.0598,-3.0642,-3.0702,-3.0791,-3.0866,-3.0955,-3.1087,-3.1132,-3.1161,-3.1161,-3.1292,-3.138,-3.138,-3.1467,-3.1511,-3.1511,-3.1511,-3.1511,-3.1511,-3.1511,-3.1511,-0.9596,-1.0758,-1.2185,-1.4061,-1.5883,-1.7532,-1.8668,-2.0067,-2.124,-2.1596,-2.2724,-2.3647,-2.3595,-2.4241,-2.4754,-2.4712,-2.4472,-2.424,-2.4094,-2.5407,-2.6296,-2.6016,-2.7355,-2.811,-2.7635,-2.7894,-2.8076,-2.8076,-2.8076,0.0,-2.8076,-2.7785,-2.76,-2.76,-2.76,-2.76,-2.76,-2.76,-2.76,-2.76,-2.7549,-2.7488,-2.7401,-2.735,-2.7258,-2.713,-2.713,-2.713,-2.7144,-2.7055,-2.6977,-2.6925,-2.6832,-2.691,-2.7157,-2.755,-2.7971,-2.8464,-2.9305,-2.974,-3.0016,-3.0467,-3.0598,-3.0598,-3.0598,-3.0598,-3.0598,-3.0598,-3.0598,-3.0598,-3.0598,-3.0598,-3.0598,-3.0598,-3.0598,-3.0598,-3.0598,-3.0598,-3.0598,-3.0598,-3.0598,-3.0598,-3.0598,-3.0598,-3.0598,-3.0598,-3.0598,-3.0598,-3.0598,-3.0598,-3.0598,-3.0598,-3.0598,-3.0642,-3.0732,-3.0732,-3.0791,-3.0925,-3.0984,-3.0984,-3.0984,-3.1205,-3.1307,-3.1307,-3.1438,-3.1511,-3.1511,-3.1511,-3.1511,-3.1511,-3.1511,-3.1511,0.0,0.0,0.0,-1.1927,-1.4194,-1.6382,-1.7008,-1.8468,-1.9799,-2.0107,-2.1013,-2.1758,-2.1774,-2.2599,-2.348,-2.4112,-2.4251,-2.4114,-2.3659,-2.5194,-2.616,-2.5646,-2.7165,-2.807,-2.7635,-2.76,-2.76,-2.76,-2.76,-2.76,-2.76,-2.76,-2.76,-2.76,-2.76,-2.76,-2.76,-2.76,-2.76,-2.76,-2.7463,-2.7401,-2.7376,-2.7258,-2.7119,-2.6977,-2.6977,-2.6977,-2.6977,-2.6977,-2.6925,-2.6806,-2.6835,-2.7186,-2.7695,-2.7739,-2.8536,-2.9595,-2.961,-3.006,-3.0598,-3.0598,-3.0598,-3.0598,-3.0598,-3.0598,-3.0598,-3.0598,-3.0598,-3.0598,-3.0598,-3.0598,-3.0598,-3.0598,-3.0598,-3.0598,-3.0598,-3.0598,-3.0598,-3.0598,-3.0598,-3.0598,-3.0598,-3.0598,-3.0598,-3.0598,-3.0598,-3.0598,-3.0598,-3.0598,-3.0598,-3.0598,-3.0598,-3.0598,-3.0598,-3.0598,-3.0598,-3.0598,-3.0732,-3.0791,-3.0791,-3.1117,-3.1278,-3.1278,-3.1438,-3.1511,-3.1511,-3.1511,-3.1511,-3.1511,-3.1511,-3.1511,-0.8124,0.0,0.0,0.0,0.0,0.0,-1.5822,-1.6894,-1.7929,-1.9206,-2.0142,-2.0848,-2.1293,-2.2025,-2.2536,-2.243,-2.3185,-2.376,-2.3616,-2.4454,-2.5213,-2.5555,-2.6477,-2.7208,-2.758,-2.76,-2.76,0.0,-2.76,-2.76,-2.76,-2.76,-2.76,-2.76,-2.7514,-2.7478,-2.7478,-2.7361,-2.7295,-2.7295,-2.7284,-2.7181,-2.7107,-2.7067,-2.6963,-2.6873,-2.6873,-2.6873,-2.6873,-2.6873,-2.6832,-2.6849,-2.7287,-2.755,-2.7811,-2.8725,-2.9291,-2.9668,-3.0147,-3.0422,-3.0598,-3.0598,-3.0598,-3.0598,-3.0598,-3.0598,-3.0598,-3.0598,-3.0598,-3.0598,-3.0598,-3.0598,-3.0598,-3.0598,-3.0598,-3.0598,-3.0598,-3.0598,-3.0598,-3.0598,-3.0598,-3.0598,-3.0598,-3.0598,-3.0598,-3.0598,-3.0598,-3.0598,-3.0598,-3.0598,-3.0598,-3.0598,-3.0598,-3.0598,-3.0598,-3.0598,-3.0642,-3.0732,-3.0702,-3.0702,-3.0791,-3.1043,-3.1161,-3.1161,-3.1395,-3.1511,-3.1511,-3.1511,-3.1511,-3.1511,-3.1511,-3.1511,-0.7899,-0.8387,-0.9077,-0.9824,0.0,0.0,-1.4225,-1.5246,-1.6338,-1.785,-1.8492,-1.9087,-1.9997,-2.0731,-2.1238,-2.127,-2.2143,-2.2906,-2.3197,-2.3789,-2.4425,-2.5098,-2.5779,-2.6333,-2.6746,-2.6776,-2.6896,-2.7165,-2.718,-2.73,-2.7585,-2.76,-2.7575,-2.7539,-2.7437,-2.7376,-2.731,-2.7233,-2.7207,-2.7207,-2.713,-2.7081,-2.7003,-2.6951,-2.6873,-2.6806,-2.6806,-2.6806,-2.6835,-2.707,-2.7186,-2.7215,-2.755,-2.8029,-2.858,-2.932,-2.9798,-3.0074,-3.0467,-3.0598,-3.0598,-3.0598,-3.0598,-3.0598,-3.0598,-3.0598,-3.0598,-3.0598,-3.0598,-3.0598,-3.0598,-3.0598,-3.0598,-3.0598,-3.0598,-3.0598,-3.0598,-3.0598,-3.0598,-3.0598,-3.0598,-3.0598,-3.0598,-3.0598,-3.0598,-3.0598,-3.0598,-3.0598,-3.0598,-3.0598,-3.0598,-3.0598,-3.0598,-3.0598,-3.0598,-3.0598,-3.0642,-3.0702,-3.0642,-3.0672,-3.0791,-3.0984,-3.1132,-3.119,-3.1395,-3.1511,-3.1511,-3.1511,-3.1511,-3.1511,-3.1511,-3.1511,-0.8004,-0.8387,-0.8815,-0.8875,-1.0193,0.0,-1.24,-1.3508,-1.4737,-1.6099,-1.6383,-1.6816,-1.8207,-1.8972,-1.9585,-2.0255,-2.0872,-2.156,-2.2463,-2.3041,-2.367,-2.4395,-2.4948,-2.5375,-2.5585,-2.5516,-2.5779,-2.6437,-2.6557,-2.6896,-2.7555,-2.76,-2.7539,-2.7401,-2.7376,-2.7299,-2.7181,-2.7155,-2.7155,-2.7155,-2.7015,-2.6977,-2.6977,-2.6846,-2.6806,-2.6806,-2.6806,-2.6849,-2.6924,-2.7478,-2.7695,-2.771,-2.7855,-2.8594,-2.961,-2.9668,-3.0089,-3.0598,-3.0598,-3.0598,-3.0598,-3.0598,-3.0598,-3.0598,-3.0598,-3.0598,-3.0598,-3.0598,-3.0598,-3.0598,-3.0598,-3.0598,-3.0598,-3.0598,-3.0598,-3.0598,-3.0598,-3.0598,-3.0598,-3.0598,-3.0598,-3.0598,-3.0598,-3.0598,-3.0598,-3.0598,-3.0598,-3.0598,-3.0598,-3.0598,-3.0598,-3.0598,-3.0598,-3.0598,-3.0598,-3.0598,-3.0598,-3.0612,-3.0598,-3.0672,-3.0791,-3.0984,-3.1161,-3.1292,-3.1409,-3.1511,-3.1511,-3.1511,-3.1511,-3.1511,-3.1511,-3.1511,-0.871,-0.8402,-0.8222,-0.877,-0.919,0.0,-1.0937,-1.139,-1.2108,-1.3976,-1.438,-1.4933,-1.6756,-1.7204,-1.7503,-1.8192,-1.8401,-1.9268,-2.156,-2.1994,-2.2503,-2.367,-2.3475,-2.3864,-2.545,-2.5113,-2.5068,-2.5749,-2.6303,-2.6896,-2.7555,-2.7514,-2.7427,-2.7401,-2.7196,-2.7055,-2.7055,-2.6937,-2.6884,-2.6884,-2.6858,-2.6846,-2.6846,-2.6806,-2.6806,-2.6806,-2.6806,-2.7084,-2.7521,-2.7652,-2.7695,-2.7797,-2.8826,-2.9378,-2.9653,-3.0205,-3.0496,-3.0598,-3.0598,-3.0598,-3.0598,-3.0598,-3.0598,-3.0598,-3.0598,-3.0598,-3.0598,-3.0598,-3.0598,-3.0598,-3.0598,-3.0598,-3.0598,-3.0598,-3.0598,-3.0598,-3.0598,-3.0598,-3.0598,-3.0598,-3.0598,-3.0598,-3.0598,-3.0598,-3.0598,-3.0598,-3.0598,-3.0598,-3.0598,-3.0598,-3.0598,-3.0598,-3.0598,-3.0598,-3.0598,-3.0598,-3.0642,-3.0762,-3.0672,-3.0672,-3.0791,-3.0984,-3.1102,-3.1132,-3.1395,-3.1511,-3.1511,-3.1511,-3.1511,-3.1511,-3.1511,-3.1511,-0.9488,-0.8912,-0.8477,-0.8815,-0.8905,0.0,0.0,-1.0114,-1.0718,-1.2033,-1.2302,-1.2903,-1.489,-1.522,-1.5533,-1.6532,-1.6696,-1.7278,-1.8964,-2.006,-2.1205,-2.2503,-2.2327,-2.25,-2.3565,-2.3291,-2.3478,-2.4485,-2.5446,-2.6122,-2.644,-2.6668,-2.6771,-2.6695,-2.6905,-2.6977,-2.6899,-2.6832,-2.6806,-2.6806,-2.6806,-2.6806,-2.6806,-2.6806,-2.6806,-2.6835,-2.7128,-2.7405,-2.7753,-2.8391,-2.8652,-2.871,-2.9349,-2.9813,-3.0132,-3.0481,-3.0598,-3.0598,-3.0598,-3.0598,-3.0598,-3.0598,-3.0598,-3.0598,-3.0598,-3.0598,-3.0598,-3.0598,-3.0598,-3.0598,-3.0598,-3.0598,-3.0598,-3.0598,-3.0598,-3.0598,-3.0598,-3.0598,-3.0598,-3.0598,-3.0598,-3.0598,-3.0598,-3.0598,-3.0598,-3.0598,-3.0598,-3.0598,-3.0598,-3.0598,-3.0598,-3.0598,-3.0598,-3.0598,-3.0598,-3.0598,-3.0642,-3.0702,-3.0642,-3.0672,-3.0791,-3.0984,-3.1161,-3.1307,-3.1424,-3.1511,-3.1511,-3.1511,-3.1511,-3.1511,-3.1511,-3.1511,-1.0473,-0.9779,-0.9212,-0.8965,-0.8905,-0.886,0.0,0.0,0.0,-1.0299,-1.0434,-1.1002,-1.2873,-1.318,-1.3528,-1.473,-1.4938,-1.5207,-1.598,-1.7502,0.0,-2.0897,-2.0895,0.0,-2.1411,-2.1466,-2.2034,-2.3362,-2.4408,-2.5073,-2.5283,-2.5845,-2.6109,-2.5994,-2.6626,-2.6925,-2.6806,-2.6806,-2.6806,-2.6806,-2.6806,-2.6806,-2.6806,-2.6806,-2.6806,-2.6849,-2.7434,-2.7768,-2.7971,-2.9116,-2.9668,-2.9798,-2.9798,-3.0118,-3.0598,-3.0598,-3.0598,-3.0598,-3.0598,-3.0598,-3.0598,-3.0598,-3.0598,-3.0598,-3.0598,-3.0598,-3.0598,-3.0598,-3.0598,-3.0598,-3.0598,-3.0598,-3.0598,-3.0598,-3.0598,-3.0598,-3.0598,-3.0598,-3.0598,-3.0598,-3.0598,-3.0598,-3.0598,-3.0598,-3.0598,-3.0598,-3.0598,-3.0598,-3.0598,-3.0598,-3.0598,-3.0598,-3.0598,-3.0598,-3.0598,-3.0598,-3.0598,-3.0598,-3.0598,-3.0642,-3.0762,-3.0955,-3.1161,-3.1453,-3.1467,-3.1467,-3.1511,-3.1511,-3.1511,-3.1511,-3.1511,-3.1511,-1.1925,-1.1091,-1.0314,-0.9182,-0.8905,-0.874,-0.8147,0.0,-0.8319,-0.8972,0.0,-0.9524,-1.0887,0.0,0.0,-1.2041,-1.2148,-1.2589,-1.3773,-1.4142,-1.5446,-1.8587,-1.8472,0.0,0.0,-2.1079,-2.1952,-2.3216,-2.3452,-2.4058,-2.5239,-2.5756,-2.6019,-2.5994,-2.6549,-2.6806,-2.6806,-2.6806,-2.6806,-2.6806,-2.6806,-2.6806,-2.6806,-2.6806,-2.6806,-2.6849,-2.7434,-2.8057,-2.8623,-2.9305,-2.9958,-3.0496,-3.0496,-3.0539,-3.0598,-3.0598,-3.0598,-3.0598,-3.0598,-3.0598,-3.0598,-3.0598,-3.0598,-3.0598,-3.0598,-3.0598,-3.0598,-3.0598,-3.0598,-3.0598,-3.0598,-3.0598,-3.0598,-3.0598,-3.0598,-3.0598,-3.0598,-3.0598,-3.0598,-3.0598,-3.0598,-3.0598,-3.0598,-3.0598,-3.0598,-3.0598,-3.0598,-3.0598,-3.0598,-3.0598,-3.0598,-3.0598,-3.0598,-3.0598,-3.0598,-3.0598,-3.0598,-3.0598,-3.0598,-3.0598,-3.0612,-3.0762,-3.0999,-3.1322,-3.1322,-3.138,-3.1511,-3.1511,-3.1511,-3.1511,-3.1511,-3.1511,-1.3899,-1.2774,-1.1741,-1.0812,-1.0028,-0.9308,-0.8627,-0.8477,-0.8447,-0.8342,0.0,0.0,0.0,0.0,0.0,0.0,-1.048,-1.0799,-1.1733,-1.1885,-1.327,-1.6943,0.0,0.0,0.0,0.0,0.0,0.0,-2.2217,-2.2871,-2.3346,-2.4606,-2.5315,-2.5315,-2.6268,-2.6806,-2.6806,-2.6806,-2.6806,-2.6806,-2.6806,-2.6806,-2.6806,-2.6806,-2.6982,-2.7374,-2.7998,-2.8637,-2.9276,-2.9914,-3.0335,-3.0598,-3.0598,-3.0598,-3.0598,-3.0598,-3.0598,-3.0598,-3.0598,-3.0598,-3.0598,-3.0598,-3.0598,-3.0598,-3.0598,-3.0598,-3.0598,-3.0598,-3.0598,-3.0598,-3.0598,-3.0598,-3.0598,-3.0598,-3.0598,-3.0598,-3.0598,-3.0598,-3.0598,-3.0598,-3.0598,-3.0598,-3.0598,-3.0598,-3.0598,-3.0598,-3.0598,-3.0598,-3.0598,-3.0598,-3.0598,-3.0598,-3.0598,-3.0598,-3.0598,-3.0598,-3.0598,-3.0598,-3.0598,-3.0642,-3.0702,-3.0762,-3.091,-3.119,-3.1263,-3.1322,-3.138,-3.1467,-3.1467,-3.138,-3.1467,-3.1511,-1.5666,-1.4496,-1.343,-1.2568,-1.1386,-1.0258,-0.9578,-0.9143,-0.8731,-0.8244,-0.796,0.0,0.0,0.0,-0.8564,0.0,0.0,-0.9249,-0.9957,-1.0044,-1.1384,-1.4991,0.0,0.0,0.0,0.0,0.0,0.0,0.0,-2.1733,-2.1975,-2.3606,-2.4636,-2.4795,-2.6112,-2.6806,-2.6806,-2.6806,-2.6806,-2.6806,-2.6806,-2.6806,-2.682,-2.6968,-2.7302,-2.7753,-2.8579,-2.9203,-2.9639,-3.0306,-3.0598,-3.0598,-3.0598,-3.0598,-3.0598,-3.0598,-3.0598,-3.0598,-3.0598,-3.0598,-3.0598,-3.0598,-3.0598,-3.0598,-3.0598,-3.0598,-3.0598,-3.0598,-3.0598,-3.0598,-3.0598,-3.0598,-3.0598,-3.0598,-3.0598,-3.0598,-3.0598,-3.0598,-3.0598,-3.0598,-3.0598,-3.0598,-3.0598,-3.0598,-3.0598,-3.0598,-3.0598,-3.0598,-3.0598,-3.0598,-3.0598,-3.0598,-3.0598,-3.0598,-3.0598,-3.0598,-3.0598,-3.0598,-3.0598,-3.0642,-3.0732,-3.0762,-3.0821,-3.1014,-3.1117,-3.1205,-3.1234,-3.1322,-3.1336,-3.1234,-3.1409,-3.1467,-1.701,-1.6189,-1.5394,-1.4079,-1.2732,-1.1565,-1.0897,-0.9734,-0.88,-0.8771,-0.825,-0.779,-0.7746,-0.7731,0.0,0.0,0.0,0.0,0.0,-0.8499,-0.9432,-1.2296,0.0,0.0,0.0,0.0,0.0,0.0,0.0,0.0,-2.1931,-2.3223,-2.421,-2.4795,-2.6112,-2.6806,-2.6806,-2.6806,-2.6806,-2.6806,-2.6806,-2.6806,-2.6835,-2.7391,-2.7681,-2.7768,-2.9015,-2.9581,-2.9639,-3.0306,-3.0598,-3.0598,-3.0598,-3.0598,-3.0598,-3.0598,-3.0598,-3.0598,-3.0598,-3.0598,-3.0598,-3.0598,-3.0598,-3.0598,-3.0598,-3.0598,-3.0598,-3.0598,-3.0598,-3.0598,-3.0598,-3.0598,-3.0598,-3.0598,-3.0598,-3.0598,-3.0598,-3.0598,-3.0598,-3.0598,-3.0598,-3.0598,-3.0598,-3.0598,-3.0598,-3.0598,-3.0598,-3.0598,-3.0598,-3.0598,-3.0598,-3.0598,-3.0598,-3.0598,-3.0598,-3.0598,-3.0598,-3.0598,-3.0598,-3.0598,-3.0598,-3.0598,-3.0672,-3.0791,-3.0821,-3.091,-3.1117,-3.1117,-3.1117,-3.1102,-3.1395,-3.1438,0.0,0.0,-1.6832,-1.5935,-1.4739,-1.3603,-1.2883,-1.1684,-1.0579,-1.0092,-0.946,-0.8861,-0.8449,-0.8224,0.0,0.0,0.0,0.0,0.0,0.0,-0.8358,0.0,0.0,0.0,0.0,0.0,0.0,0.0,0.0,0.0,0.0,-2.2548,-2.3737,-2.4834,-2.5691,-2.6344,-2.6806,-2.6806,-2.6806,-2.6806,-2.6806,-2.6806,-2.6835,-2.7405,-2.7927,-2.8405,-2.9233,-2.9856,-3.0263,-3.0525,-3.0598,-3.0598,-3.0598,-3.0598,-3.0598,-3.0598,-3.0598,-3.0598,-3.0598,-3.0598,-3.0598,-3.0598,-3.0598,-3.0598,-3.0598,-3.0598,-3.0598,-3.0598,-3.0598,-3.0598,-3.0598,-3.0598,-3.0598,-3.0598,-3.0598,-3.0598,-3.0598,-3.0598,-3.0598,-3.0598,-3.0598,-3.0598,-3.0598,-3.0598,-3.0598,-3.0598,-3.0598,-3.0598,-3.0598,-3.0598,-3.0598,-3.0598,-3.0598,-3.0598,-3.0598,-3.0598,-3.0598,-3.0598,-3.0598,-3.0598,-3.0598,-3.0598,-3.0612,-3.0672,-3.0762,-3.0821,-3.0895,-3.1043,-3.1014,-3.0925,-3.1132,-3.122,-2.0243,-1.9256,0.0,-1.7594,-1.6443,0.0,-1.4878,-1.353,-1.2236,-1.1766,-1.0733,-0.9807,-0.9413,-0.8827,0.0,0.0,0.0,0.0,0.0,-0.7249,0.0,0.0,0.0,0.0,0.0,0.0,0.0,0.0,0.0,0.0,0.0,0.0,-2.307,-2.4143,-2.5226,-2.6021,-2.6457,-2.6689,-2.6806,-2.6806,-2.6806,-2.6895,-2.7142,-2.7781,-2.8419,-2.9058,-2.9682,-3.019,-3.0598,-3.0598,-3.0598,-3.0598,-3.0598,-3.0598,-3.0598,-3.0598,-3.0598,-3.0598,-3.0598,-3.0598,-3.0641,-3.0843,-3.0916,-3.0945,-3.1192,-3.1264,-3.1221,-3.0974,-3.1076,-3.1206,-3.0974,-3.0916,-3.0916,-3.0916,-3.0772,-3.0598,-3.0598,-3.0598,-3.0598,-3.0598,-3.0598,-3.0598,-3.0598,-3.0598,-3.0598,-3.0598,-3.0598,-3.0598,-3.0598,-3.0598,-3.0598,-3.0598,-3.0598,-3.0598,-3.0598,-3.0598,-3.0598,-3.0598,-3.0598,-3.0598,-3.0598,-3.0598,-3.0714,-3.0916,-3.0774,-3.0848,-3.1037,-3.0968,-3.0866,-3.0732,-3.0866,-3.0925]},{"header":{"parameterUnit":"m.s-1","parameterCategory":1,"la1":30.6,"la2":29.2853,"lo1":-89.7004,"lo2":-87.6739,"dx":0.0162,"dy":0.0183,"nx":112,"ny":82,"refTime":"2022-12-04T18:00:00:Z","depth":0,"parameterNumber":3,"parameterNumberName":"V-component_of_WINDS"},"data":[0.0,0.0,0.0,0.0,0.0,0.0,0.0,0.0,0.0,0.0,0.0,0.0,0.0,0.0,0.0,0.0,0.0,0.0,0.0,0.0,0.0,0.0,0.0,0.0,0.0,0.0,0.0,0.0,0.0,0.0,0.0,0.0,0.0,0.0,0.0,0.0,0.0,0.0,0.0,0.0,0.0,0.0,0.0,0.0,0.0,0.0,0.0,0.0,0.0,0.0,0.0,0.0,0.0,0.0,0.0,0.0,0.0,0.0,0.0,0.0,0.0,0.0,0.0,0.0,0.0,0.0,0.0,0.0,0.0,0.0,0.0,0.0,0.0,0.0,0.0,0.0,0.0,0.0,0.0,0.0,0.0,0.0,0.0,0.0,0.0,0.0,0.0,0.0,0.0,0.0,0.3736,0.4193,0.5335,0.593,0.5626,0.5395,0.4717,0.3435,0.0,0.0,0.0,0.0,0.0,0.0,0.0,0.0,0.0,0.0,0.0,0.0,0.0,0.0,0.0,0.0,0.0,0.0,0.0,0.0,0.0,0.0,0.0,0.0,0.0,0.0,0.0,0.0,0.0,0.0,0.0,0.0,0.0,0.0,0.0,0.0,0.0,0.0,0.0,0.0,0.0,0.0,0.0,0.0,0.0,0.0,0.0,0.0,0.0,0.0,0.0,0.0,0.0,0.0,0.0,0.0,0.0,0.0,0.0,0.0,0.0,0.0,0.0,0.0,0.0,0.0,0.0,0.0,0.0,0.0,0.0,0.0,0.0,0.0,0.0,0.0,0.0,0.0,0.0,0.0,0.0,0.0,0.0,0.0,0.0,0.0,0.0,0.0,0.0,0.0,0.0,0.0,0.0,0.0,0.0,0.0,0.0,0.0,0.0,0.0,0.0,0.0,0.0,0.0,0.386,0.5204,0.5953,0.6149,0.5639,0.556,0.4973,0.3645,0.0,0.0,0.0,0.0,0.0,0.0,0.0,0.0,0.0,0.0,0.0,0.0,0.0,0.0,0.0,0.0,0.0,0.0,0.0,0.0,0.0,0.0,0.0,0.0,0.0,0.0,0.0,0.0,0.0,0.0,0.0,0.0,0.0,0.0,0.0,0.0,0.0,0.0,0.0,0.0,0.0,0.0,0.0,0.0,0.0,0.0,0.0,0.0,0.0,0.0,0.0,0.0,0.0,0.0,0.0,0.0,0.0,0.0,0.0,0.0,0.0,0.0,0.0,0.0,0.0,0.0,0.0,0.0,0.0,0.0,0.0,0.0,0.0,0.0,0.0,0.0,0.0,0.0,0.0,0.0,0.0,0.0,0.0,0.0,0.0,0.0,0.0,0.0,0.0,0.0,0.0,0.0,0.0,0.0,0.0,0.0,0.0,0.0,0.0,0.0,0.0,0.0,0.0,0.3615,0.4548,0.5692,0.6173,0.6292,0.6064,0.5766,0.5091,0.3889,0.3371,0.0,0.0,0.0,0.0,0.0,0.0,0.0,0.0,0.0,0.0,0.0,0.0,0.0,0.0,0.0,0.0,0.0,0.0,0.0,0.0,0.0,0.0,0.0,0.0,0.0,0.0,0.0,0.0,0.0,0.0,0.0,0.0,0.0,0.0,0.0,0.0,0.0,0.0,0.0,0.0,0.0,0.0,0.0,0.0,0.0,0.0,0.0,0.0,0.0,0.0,0.0,0.0,0.0,0.0,0.0,0.0,0.0,0.0,0.0,0.0,0.0,0.0,0.0,0.0,0.0,0.0,0.0,0.0,0.0,0.0,0.0,0.0,0.0,0.0,0.0,0.0,0.0,0.0,0.0,0.0,0.0,0.0,0.0,0.0,0.0,0.0,0.0,0.0,0.0,0.0,0.0,0.0,0.0,0.0,0.0,0.0,0.0,0.0,0.0,0.0,0.0,0.0,0.4411,0.5207,0.6023,0.6283,0.6395,0.6395,0.5912,0.5162,0.4159,0.3638,0.0,0.0,0.0,0.0,0.0,0.0,0.0,0.0,0.0,0.0,0.0,0.0,0.0,0.0,0.0,0.0,0.0,0.0,0.0,0.0,0.0,0.0,0.0,0.0,0.0,0.0,0.0,0.0,0.0,0.0,0.0,0.0,0.0,0.0,0.0,0.0,0.0,0.0,0.0,0.0,0.0,0.0,0.0,0.0,0.0,0.0,0.0,0.0,0.0,0.0,0.0,0.0,0.0,0.0,0.0,0.0,0.0,0.0,0.0,0.0,0.0,0.0,0.0,0.0,0.0,0.0,0.0,0.0,0.0,0.0,0.0,0.0,0.0,0.0,0.0,0.0,0.0,0.0,0.0,0.0,0.0,0.0,0.0,0.0,0.0,0.0,0.0,0.0,0.0,0.0,0.0,0.0,0.0,0.0,0.0,0.0,0.0,0.0,0.0,0.0,0.0,0.0,0.4746,0.5499,0.6366,0.6419,0.6395,0.6395,0.5912,0.5244,0.4421,0.3867,0.0,0.0,0.0,0.0,0.0,0.0,0.0,0.0,0.0,0.0,0.0,0.0,0.0,0.0,0.0,0.0,0.0,0.0,0.0,0.0,0.0,0.0,0.0,0.0,0.0,0.0,0.0,0.0,0.0,0.0,0.0,0.0,0.0,0.0,0.0,0.0,0.0,0.0,0.0,0.0,0.0,0.0,0.0,0.0,0.0,0.0,0.0,0.0,0.0,0.0,0.0,0.0,0.0,0.0,0.0,0.0,0.0,0.0,0.0,0.0,0.0,0.0,0.0,0.0,0.0,0.0,0.0,0.0,0.0,0.0,0.0,0.0,0.0,0.0,0.0,0.0,0.0,0.0,0.0,0.0,0.0,0.0,0.0,0.0,0.0,0.0,0.0,0.0,0.0,0.0,0.0,0.0,0.0,0.0,0.0,0.0,0.0,0.0,0.0,0.0,0.0,0.0,0.4905,0.5763,0.6768,0.6631,0.6625,0.7061,0.6161,0.5346,0.4753,0.0,0.0,0.0,0.0,0.0,0.0,0.0,0.0,0.0,0.0,0.0,0.0,0.0,0.0,0.0,0.0,0.0,0.0,0.0,0.0,0.0,0.0,0.0,0.0,0.0,0.0,0.0,0.0,0.0,0.0,0.0,0.0,0.0,0.0,0.0,0.0,0.0,0.0,0.0,0.0,0.0,0.0,0.0,0.0,0.0,0.0,0.0,0.0,0.0,0.0,0.0,0.0,0.0,0.0,0.0,0.0,0.0,0.0,0.0,0.0,0.0,0.0,0.0,0.0,0.0,0.0,0.0,0.0,0.0,0.0,0.0,0.0,0.0,0.0,0.0,0.0,0.0,0.0,0.0,0.0,0.0,0.0,0.0,0.0,0.0,0.0,0.0,0.0,0.0,0.0,0.0,0.0,0.0,0.0,0.0,0.0,0.0,0.0,0.0,0.0,0.0,0.0,0.4379,0.5161,0.6047,0.718,0.6934,0.6909,0.7449,0.6456,0.5565,0.4943,0.0,0.0,0.0,0.0,0.0,0.0,0.0,0.0,0.0,0.0,0.0,0.0,0.0,0.0,0.0,0.0,0.0,0.0,0.0,0.0,0.0,0.0,0.0,0.0,0.0,0.0,0.0,0.0,0.0,0.0,0.0,0.0,0.0,0.0,0.0,0.0,0.0,0.0,0.0,0.0,0.0,0.0,0.0,0.0,0.0,0.0,0.0,0.0,0.0,0.0,0.0,0.0,0.0,0.0,0.0,0.0,0.0,0.0,0.0,0.0,0.0,0.0,0.0,0.0,0.0,0.0,0.0,0.0,0.0,0.0,0.0,0.0,0.0,0.0,0.0,0.0,0.0,0.0,0.0,0.0,0.0,0.0,0.0,0.0,0.0,0.0,0.0,0.0,0.0,0.0,0.0,0.0,0.0,0.0,0.0,0.0,0.0,0.0,0.0,0.0,0.0,0.0,0.4991,0.5572,0.6368,0.7572,0.7333,0.7213,0.7492,0.6759,0.5895,0.0,0.0,0.0,0.0,0.0,0.0,0.0,0.0,0.0,0.0,0.0,0.0,0.0,0.0,0.0,0.0,0.0,0.0,0.0,0.0,0.0,0.0,0.0,0.0,0.0,0.0,0.0,0.0,0.0,0.0,0.0,0.0,0.0,0.0,0.0,0.0,0.0,0.0,0.0,0.0,0.0,0.0,0.0,0.0,0.0,0.0,0.0,0.0,0.0,0.0,0.0,0.0,0.0,0.0,0.0,0.0,0.0,0.0,0.0,0.0,0.0,0.0,0.0,0.0,0.0,0.0,0.0,0.0,0.0,0.0,0.0,0.0,0.0,0.0,0.0,0.0,0.0,0.0,0.0,0.0,0.0,0.0,0.0,0.0,0.0,0.0,0.0,0.0,0.0,0.0,0.0,0.0,0.0,0.0,0.0,0.0,0.0,0.0,0.0,0.0,0.0,0.0,0.0,0.4991,0.5853,0.6752,0.7745,0.7654,0.7587,0.7773,0.7047,0.6226,0.5373,0.0,0.0,0.0,0.0,0.0,0.0,0.0,0.0,0.0,0.0,0.0,0.0,0.0,0.0,0.0,0.0,0.0,0.0,0.0,0.0,0.0,0.0,0.0,0.0,0.0,0.0,0.0,0.0,0.0,0.0,0.0,0.0,0.0,0.0,0.0,0.0,0.0,0.0,0.0,0.0,0.0,0.0,0.0,0.0,0.0,0.0,0.0,0.0,0.0,0.0,0.0,0.0,0.0,0.0,0.0,0.0,0.0,0.0,0.0,0.0,0.0,0.0,0.0,0.0,0.0,0.0,0.0,0.0,0.0,0.0,0.0,0.0,0.0,0.0,0.0,0.0,0.0,0.0,0.0,0.0,0.0,0.0,0.0,0.0,0.0,0.0,0.0,0.0,0.0,0.0,0.0,0.0,0.0,0.0,0.0,0.0,0.0,0.0,0.0,0.0,0.0,0.0,0.5007,0.598,0.6934,0.7812,0.7957,0.7999,0.8085,0.7435,0.6663,0.5802,0.0,0.0,0.0,0.0,0.0,0.0,0.0,0.0,0.0,0.0,0.0,0.0,0.0,0.0,0.0,0.0,0.0,0.0,0.0,0.0,0.0,0.0,0.0,0.0,0.0,0.0,0.0,0.0,0.0,0.0,0.0,0.0,0.0,0.0,0.0,0.0,0.0,0.0,0.0,0.0,0.0,0.0,0.0,0.0,0.0,0.0,0.0,0.0,0.0,0.0,0.0,0.0,0.0,0.0,0.0,0.0,0.0,0.0,0.0,0.0,0.0,0.0,0.0,0.0,0.0,0.0,0.0,0.0,0.0,0.0,0.0,0.0,0.0,0.0,0.0,0.0,0.0,0.0,0.0,0.0,0.0,0.0,0.0,0.0,0.0,0.0,0.0,0.0,0.0,0.0,0.0,0.0,0.0,0.0,0.0,0.0,0.0,0.0,0.0,0.0,0.0,0.0,0.514,0.6149,0.712,0.7883,0.829,0.8479,0.8402,0.7866,0.7141,0.6229,0.0,0.0,0.0,0.0,0.0,0.0,0.0,0.0,0.0,0.0,0.0,0.0,0.0,0.0,0.0,0.0,0.0,0.0,0.0,0.0,0.0,0.0,0.0,0.0,0.0,0.0,0.0,0.0,0.0,0.0,0.0,0.0,0.0,0.0,0.0,0.0,0.0,0.0,0.0,0.0,0.0,0.0,0.0,0.0,0.0,0.0,0.0,0.0,0.0,0.0,0.0,0.0,0.0,0.0,0.0,0.0,0.0,0.0,0.0,0.0,0.4394,0.3554,0.0,0.0,0.0,0.0,0.0,0.0,0.0,0.0,0.0,0.0,0.0,0.0,0.0,0.0,0.0,0.0,0.0,0.0,0.0,0.0,0.0,0.0,0.0,0.0,0.0,0.0,0.0,0.0,0.0,0.0,0.0,0.0,0.0,0.0,0.0,0.0,0.0,0.0,0.0,0.0,0.5969,0.7486,0.848,0.8463,0.8984,0.9092,0.8447,0.8043,0.7503,0.677,0.5945,0.0,0.0,0.0,0.0,0.0,0.0,0.0,0.0,0.0,0.0,0.0,0.0,0.0,0.0,0.0,0.0,0.0,0.0,0.0,0.0,0.0,0.0,0.0,0.0,0.0,0.0,0.0,0.0,0.0,0.0,0.0,0.0,0.0,0.0,0.0,0.0,0.0,0.0,0.0,0.0,0.0,0.0,0.0,0.0,0.0,0.0,0.0,0.0,0.0,0.0,0.0,0.0,0.0,0.0,0.0,0.0,0.0,0.0,0.0,0.5174,0.4654,0.0,0.0,0.0,0.0,0.0,0.0,0.0,0.0,0.0,0.0,0.0,0.0,0.0,0.0,0.0,0.0,0.0,0.0,0.0,0.0,0.0,0.0,0.0,0.0,0.0,0.0,0.0,0.0,0.0,0.0,0.0,0.0,0.0,0.0,0.0,0.0,0.0,0.0,0.0,0.0,0.6508,0.7991,0.908,0.9242,0.969,0.9816,0.9412,0.9072,0.8701,0.8231,0.7402,0.0,0.0,0.0,0.0,0.0,0.0,0.0,0.0,0.0,0.0,0.0,0.0,0.0,0.0,0.0,0.0,0.0,0.0,0.0,0.0,0.0,0.0,0.0,0.0,0.0,0.0,0.0,0.0,0.0,0.0,0.0,0.0,0.0,0.0,0.0,0.0,0.0,0.0,0.0,0.0,0.0,0.0,0.0,0.0,0.0,0.0,0.0,0.0,0.0,0.0,0.0,0.0,0.0,0.5725,0.5874,0.5952,0.6377,0.6643,0.6719,0.6268,0.6013,0.5902,0.5321,0.0,0.0,0.0,0.0,0.0,0.0,0.0,0.0,0.0,0.0,0.0,0.0,0.0,0.0,0.0,0.0,0.0,0.0,0.0,0.0,0.0,0.0,0.664,0.0,0.6924,0.7158,0.633,0.0,0.0,0.0,0.0,0.0,0.0,0.0,0.0,0.0,0.0,0.0,0.7058,0.8337,0.935,0.977,1.0091,1.0218,1.0141,0.9882,0.9619,0.9408,0.8666,0.7815,0.0,0.0,0.0,0.0,0.0,0.0,0.0,0.0,0.0,0.0,0.0,0.0,0.0,0.0,0.0,0.0,0.0,0.0,0.0,0.0,0.0,0.0,0.0,0.0,0.0,0.0,0.0,0.0,0.0,0.0,0.0,0.0,0.3466,0.3499,0.0,0.0,0.0,0.0,0.0,0.0,0.0,0.0,0.0,0.0,0.0,0.0,0.0,0.496,0.5521,0.5561,0.5745,0.6082,0.6352,0.6607,0.686,0.7652,0.8377,0.8984,0.901,0.0,0.5738,0.5757,0.0,0.0,0.0,0.0,0.0,0.0,0.0,0.0,0.0,0.0,0.0,0.0,0.0,0.0,0.0,0.0,0.0,0.0,0.0,0.0,0.0,0.0,0.8208,0.8174,0.8766,0.9296,0.0,0.7389,0.5833,0.5783,0.5422,0.5115,0.0,0.0,0.0,0.0,0.0,0.0,0.8047,0.9147,0.9678,0.9175,0.9475,0.951,0.9061,0.876,0.86,0.8559,0.7974,0.7313,0.6675,0.5992,0.0,0.0,0.0,0.0,0.0,0.0,0.0,0.0,0.0,0.0,0.0,0.0,0.0,0.0,0.0,0.0,0.0,0.0,0.0,0.0,0.0,0.0,0.0,0.0,0.0,0.0,0.0,0.0,0.0,0.3594,0.3786,0.3786,0.3921,0.4009,0.0,0.0,0.0,0.0,0.0,0.0,0.0,0.0,0.0,0.5301,0.5491,0.5858,0.6427,0.6613,0.6854,0.7154,0.7281,0.7386,0.7535,0.8203,0.8708,0.902,0.9434,0.8947,0.7868,0.7543,0.7288,0.7041,0.0,0.0,0.0,0.0,0.6138,0.6245,0.6245,0.632,0.6409,0.6409,0.0,0.0,0.0,0.0,0.0,0.0,0.0,0.7653,0.0,0.0,0.952,0.952,0.9962,1.0364,1.0364,0.9346,0.8211,0.7537,0.6774,0.6231,0.6211,0.6227,0.0,0.0,0.0,0.8706,0.9405,1.0278,1.0694,1.0334,1.0452,1.031,0.9736,0.9585,0.9529,0.9529,0.9059,0.8571,0.8084,0.7237,0.6395,0.0,0.0,0.0,0.0,0.0,0.0,0.0,0.0,0.0,0.0,0.0,0.0,0.0,0.0,0.0,0.0,0.0,0.0,0.0,0.0,0.0,0.0,0.0,0.0,0.0,0.0,0.0,0.0,0.3955,0.4201,0.4201,0.4462,0.4629,0.0,0.0,0.0,0.0,0.0,0.0,0.5201,0.5516,0.5872,0.6244,0.6475,0.6801,0.727,0.7497,0.7702,0.7905,0.8123,0.8228,0.8252,0.9011,0.9375,0.9399,0.999,1.0174,1.0023,0.9314,0.8833,0.851,0.8031,0.7842,0.7799,0.7499,0.7485,0.7608,0.7608,0.7713,0.7842,0.7842,0.7842,0.7842,0.7842,0.0,0.0,0.0,0.0,0.905,0.9456,1.0082,1.0603,1.0603,1.0906,1.1214,1.1214,1.0879,1.0272,0.9179,0.8233,0.7608,0.7608,0.7637,0.0,0.8224,0.8958,0.9708,1.0388,1.0962,1.1243,1.1099,1.1057,1.0897,1.044,1.0389,1.0389,1.0389,1.0126,0.9737,0.922,0.8386,0.7453,0.6359,0.0,0.0,0.0,0.0,0.0,0.0,0.0,0.0,0.0,0.0,0.0,0.0,0.0,0.0,0.0,0.0,0.0,0.0,0.0,0.0,0.0,0.0,0.0,0.0,0.0,0.0,0.0,0.0,0.0,0.4761,0.5057,0.0,0.0,0.0,0.0,0.5253,0.5504,0.5844,0.6308,0.6569,0.7051,0.7771,0.7674,0.7772,0.8041,0.7943,0.7892,0.7912,0.8734,0.9141,0.918,1.0548,1.1166,1.1191,1.174,1.1752,1.1346,1.0465,1.0116,1.0077,1.0128,1.012,1.0095,0.9681,0.9554,0.9564,0.9564,0.9554,0.9574,0.9574,0.9574,0.9574,0.9574,0.9574,0.0,0.0,1.018,1.0291,1.0708,1.1118,1.1448,1.1448,1.1752,1.2036,1.2036,1.1724,1.12,0.0,0.9868,0.9564,0.9564,0.0,0.963,1.0085,1.0149,1.0274,1.0632,1.0724,1.0653,1.0459,1.044,1.044,1.0389,1.0389,1.0389,1.0389,1.0373,1.0014,0.923,0.8858,0.811,0.6967,0.6106,0.0,0.0,0.0,0.0,0.0,0.0,0.0,0.0,0.0,0.0,0.0,0.0,0.0,0.0,0.0,0.0,0.0,0.0,0.0,0.0,0.0,0.0,0.0,0.0,0.0,0.0,0.0,0.0,0.5361,0.5825,0.0,0.6144,0.6375,0.6535,0.6535,0.6887,0.7182,0.7356,0.7629,0.7857,0.8018,0.8187,0.8321,0.8431,0.8809,0.8857,0.8617,0.9267,0.9591,0.9624,1.0561,1.1141,1.1452,1.2002,1.2092,1.1856,1.1556,1.1115,1.0651,1.0679,1.0698,1.068,1.0533,1.0465,1.0465,1.0465,1.0465,1.0465,1.0465,1.0465,1.0465,1.0465,1.0465,1.0493,1.0652,1.087,1.1108,1.1246,1.1586,1.1889,1.1889,1.2,1.2101,1.2101,1.1991,1.1807,1.1513,1.0916,1.0465,1.0465,1.0436,1.0583,1.1012,1.1054,1.1163,1.1558,1.1603,1.1435,1.1015,1.0981,1.0812,1.044,1.0389,1.0389,1.0389,1.0389,1.0257,0.9988,0.9687,0.908,0.8116,0.7248,0.648,0.0,0.0,0.0,0.0,0.0,0.0,0.0,0.0,0.0,0.0,0.0,0.0,0.0,0.0,0.0,0.0,0.0,0.0,0.0,0.0,0.0,0.0,0.0,0.0,0.0,0.5476,0.5926,0.6236,0.6731,0.7072,0.7175,0.7416,0.7561,0.7517,0.7792,0.8019,0.8124,0.8343,0.8497,0.8529,0.8755,0.8866,0.8866,0.9261,0.9316,0.9008,0.9725,1.0046,1.0038,1.0871,1.141,1.1728,1.2076,1.2249,1.2303,1.2303,1.2064,1.1678,1.1402,1.1292,1.1292,1.1292,1.1292,1.1292,1.1292,1.1292,1.1292,1.1292,1.1292,1.1292,1.1292,1.1292,1.1292,1.1292,1.1494,1.1706,1.1706,1.2009,1.2303,1.2303,1.2413,1.2489,1.2489,1.2489,1.2489,1.2489,1.1853,1.1292,1.1292,1.1292,1.1393,1.1669,1.1706,1.1807,1.2073,1.2101,1.1952,1.1603,1.1578,1.141,1.1015,1.0981,1.0906,1.0711,1.0711,1.0525,1.0141,0.995,0.9458,0.8616,0.7831,0.7073,0.6337,0.0,0.0,0.0,0.0,0.0,0.0,0.0,0.0,0.0,0.0,0.0,0.0,0.0,0.0,0.0,0.0,0.0,0.0,0.0,0.0,0.0,0.0,0.0,0.557,0.6279,0.6975,0.7384,0.7722,0.8032,0.828,0.8315,0.8275,0.814,0.814,0.8294,0.8614,0.8752,0.9004,0.938,0.9387,0.9387,0.9387,0.9283,0.9192,0.9075,1.0128,1.059,1.0523,1.162,1.2138,1.2162,1.2162,1.2383,1.2733,1.2733,1.2955,1.324,1.245,1.2138,1.2138,1.2138,1.2138,1.2138,1.2138,1.2138,1.2138,1.2138,1.2138,1.2138,1.2138,1.2138,1.2138,1.2138,1.2138,1.2138,1.2138,1.2422,1.2707,1.2707,1.302,1.3296,1.3296,1.3296,1.3296,1.3296,1.268,1.2138,1.2138,1.2138,1.2138,1.2138,1.2138,0.0,1.2138,1.2138,1.2138,1.2138,1.2138,1.2128,1.2119,1.2119,1.1886,1.1352,1.1326,1.0829,0.9718,0.9666,0.9296,0.8452,0.7842,0.7229,0.6646,0.0,0.0,0.0,0.0,0.0,0.0,0.0,0.0,0.0,0.0,0.0,0.0,0.0,0.0,0.0,0.0,0.0,0.0,0.0,0.0,0.0,0.619,0.6671,0.6858,0.709,0.7426,0.7979,0.8268,0.8449,0.8507,0.8783,0.8934,0.8908,0.9079,0.9217,0.9328,0.9361,0.9372,0.9406,0.9316,0.9263,0.9263,0.9891,1.0213,1.0253,1.1418,1.2114,1.2378,1.2787,1.315,1.3485,1.3485,1.3489,1.3487,1.3487,1.3553,1.3611,1.3155,1.2956,1.2956,1.2956,1.2956,1.2956,1.2956,1.2956,1.2956,1.2956,1.2956,1.2956,1.2956,1.2956,1.2956,1.2956,1.2956,1.2956,1.2956,1.3039,1.3148,1.3148,1.3213,1.3296,1.3296,1.3296,1.3296,1.3296,1.3112,1.2956,1.2956,1.2956,1.2956,1.2956,1.2956,1.2956,1.2956,1.2956,1.2956,1.2956,1.2956,1.2863,1.256,1.2533,1.2353,1.192,1.1877,1.1744,1.1435,1.141,1.0822,0.9581,0.8637,0.7943,0.0,0.0,0.0,0.0,0.0,0.0,0.0,0.0,0.0,0.0,0.0,0.0,0.0,0.0,0.0,0.0,0.0,0.0,0.0,0.0,0.0,0.0,0.6896,0.7439,0.806,0.7935,0.796,0.8492,0.8669,0.878,0.8913,0.921,0.9335,0.929,0.9439,0.9465,0.9361,0.9413,0.9387,0.9309,0.9443,0.9667,0.9985,1.0671,1.1132,1.1388,1.2315,1.2842,1.3032,1.3368,1.3603,1.3784,1.3784,1.3825,1.3838,1.3838,1.3951,0.0,0.0,0.0,0.0,0.0,1.3504,1.3504,1.3504,1.3504,1.3504,1.3504,1.3504,1.3504,1.3504,1.3504,1.3504,1.3504,1.3504,1.3504,1.3504,1.3634,1.3747,1.3747,1.3905,1.3998,1.3998,1.3998,1.3998,1.3998,1.3998,0.0,1.3998,1.3626,1.3296,1.3296,1.3296,1.3296,1.3296,1.3296,1.3296,1.3296,1.3296,1.3222,1.2974,1.2955,0.0,0.0,0.0,1.1837,1.141,1.1401,0.0,0.0,0.0,0.0,0.0,0.0,0.0,0.0,0.6707,0.662,0.0,0.0,0.0,0.0,0.0,0.0,0.0,0.0,0.0,0.0,0.0,0.0,0.0,0.0,0.0,0.0,0.7687,0.8054,0.9058,0.8747,0.8563,0.893,0.8966,0.908,0.9358,0.9517,0.9536,0.9413,0.9413,0.933,0.9135,0.932,0.0,0.0,0.0,1.0483,1.1142,1.1483,1.1904,1.2348,1.2875,1.3149,1.3167,1.3717,1.3862,1.3699,1.3699,1.3849,1.4061,1.4061,1.4263,1.4521,1.4072,1.389,1.389,1.389,1.388,1.3908,1.3908,0.0,0.0,1.3944,1.3944,1.3944,1.3944,1.3944,1.3944,1.3944,1.3944,1.3944,1.3944,1.4202,1.4459,1.4459,1.4734,1.5,1.5,1.5,1.5,1.5,1.5,1.5,1.5,1.4157,1.3488,1.3488,1.3488,1.3488,1.3488,1.3488,1.3488,1.3488,0.0,0.0,1.3424,1.3387,1.3168,1.2657,1.2198,1.1537,1.0653,1.0482,1.0179,0.9724,0.9645,0.9388,0.8905,0.867,0.8549,0.8529,0.7893,0.7591,0.0,0.0,0.0,0.0,0.0,0.0,0.0,0.0,0.0,0.0,0.0,0.0,0.0,0.0,0.0,0.7724,0.8355,0.8963,0.9178,0.9202,0.9256,0.9442,0.9364,0.9316,0.9406,0.9413,0.9439,0.9413,0.9484,0.9652,0.9886,1.0413,1.0868,1.1122,1.1602,1.1682,1.1348,1.183,1.2237,1.2538,1.3197,0.0,1.4753,1.4878,1.4955,1.5022,1.5022,1.5071,1.509,1.4993,1.4992,1.5029,1.4537,1.4364,1.4364,1.4364,1.4434,1.4541,1.4541,1.4628,1.4763,1.4763,1.4763,1.4763,1.4763,1.4763,0.0,1.4763,1.4763,1.4763,1.4763,1.482,1.4886,1.4886,1.4943,1.5,1.5,1.5,1.5,1.5,1.5,1.5,1.5,1.4809,1.4676,1.4676,1.4676,1.4676,1.4676,1.4676,1.4676,1.4676,1.4676,1.4544,1.4213,1.4035,1.3774,1.3332,1.2614,1.2144,1.1932,1.0996,1.0438,1.0333,0.9896,0.962,0.9512,0.9487,0.9461,0.944,0.861,0.8228,0.0,0.0,0.0,0.0,0.0,0.0,0.0,0.0,0.0,0.0,0.0,0.6856,0.7231,0.0,0.8549,0.9142,0.914,0.9236,0.9726,0.9578,0.9413,0.9484,0.9439,0.9413,0.9413,0.9465,0.9582,0.9742,1.0128,1.0325,1.0247,1.0894,1.1166,1.1014,1.1404,1.1799,1.2192,1.2633,1.3226,1.4012,1.4331,1.4772,1.5313,1.5313,1.5313,1.5313,1.5313,1.5254,1.5196,1.5117,1.5098,1.5098,1.4832,1.4823,1.4961,1.4961,1.4981,1.5059,1.5059,1.5128,1.5196,1.5196,1.5196,1.5196,1.5196,1.5196,1.5196,1.5196,1.5196,1.5196,1.5196,1.5196,1.5196,1.5196,1.5196,1.5196,1.5196,1.5196,1.5196,1.5196,1.5196,1.5196,1.5196,1.5196,1.5167,1.5029,1.5,1.5,1.5,1.5,1.5,1.5,1.5,1.4924,1.4715,1.46,1.4373,1.3969,1.3561,1.3257,1.305,1.2483,1.1807,1.1112,1.0836,1.0358,0.9715,0.9715,0.9715,0.9702,0.926,0.9059,0.0,0.0,0.0,0.0,0.0,0.0,0.0,0.5677,0.6198,0.6441,0.7187,0.7983,0.8569,0.8805,0.929,1.0436,0.9831,0.9447,1.0151,0.9777,0.9439,0.9439,0.9439,0.9461,0.9525,0.9761,0.9973,1.017,1.0829,1.1005,1.0552,1.1163,1.1358,1.1002,1.1382,1.2136,1.3281,1.3565,1.4192,1.5177,1.5177,1.5235,1.5362,1.5362,1.5313,1.5235,1.5235,1.5147,1.5039,1.5039,1.5039,1.5039,1.5039,1.5196,1.5381,1.5323,1.5332,1.5362,1.5362,1.5391,1.541,1.541,1.541,1.541,1.541,1.541,1.541,1.541,1.541,1.541,1.541,1.541,1.541,1.541,1.541,1.541,1.541,1.541,1.541,1.541,1.541,1.541,1.541,1.541,1.5332,1.5117,1.5088,1.5088,1.5088,1.5088,1.5088,1.5088,1.5088,1.5059,1.5039,1.5039,1.4896,1.4535,1.4392,1.4176,1.3857,1.37,1.3108,1.1971,1.1943,1.1427,1.0339,1.0317,1.0229,1.0112,1.0053,0.994,0.6239,0.5715,0.524,0.5233,0.5446,0.5762,0.0,0.684,0.7563,0.8475,0.9339,0.9979,1.006,1.0605,1.0841,1.0197,1.0167,1.0118,0.9736,0.9614,0.9588,0.9588,0.9588,0.9705,0.9989,1.0559,1.0814,1.0563,1.1158,1.1399,1.1034,1.1611,1.2306,1.3134,1.3775,1.4159,1.4337,1.4353,1.4371,1.4323,1.4323,1.4647,1.5215,1.5215,1.5284,1.5391,1.5391,1.5313,1.5186,1.5186,1.5186,1.5186,1.5186,1.5254,1.5381,1.5137,1.5117,1.5215,1.5215,1.5313,1.541,1.541,1.541,1.541,1.541,1.541,1.541,1.541,1.541,1.541,1.541,1.541,1.541,1.541,1.541,1.541,1.541,1.541,1.541,1.541,1.541,1.541,1.541,1.541,1.5381,1.5352,1.5352,1.5352,1.5352,1.5352,1.5352,1.5352,1.5352,1.5303,1.5186,1.5186,1.5108,1.4943,1.4375,1.4004,1.3989,1.3425,1.3014,1.2855,1.2855,1.2764,1.2643,1.2522,1.2157,1.1568,1.1374,1.0721,0.6746,0.6411,0.6154,0.6072,0.6259,0.6559,0.6993,0.7664,0.8346,0.8842,0.9645,1.0372,1.086,1.0817,1.0813,1.1175,1.0503,1.0079,1.0456,1.0491,1.0431,1.0363,1.0601,1.06,1.0131,1.0522,1.0833,1.088,1.1486,1.1692,1.1402,1.2321,1.289,1.2909,1.3563,1.4112,1.4499,1.4499,1.4647,1.4903,1.4903,1.5059,1.5313,1.5313,1.5362,1.541,1.541,1.5362,1.5313,1.5313,1.5313,1.5313,1.5313,1.5362,1.5381,1.5274,1.5284,1.5313,1.5313,1.5362,1.541,1.541,1.541,1.541,1.541,1.541,1.541,1.541,1.541,1.541,1.541,1.541,1.541,1.541,1.541,1.541,1.541,1.541,1.541,1.541,1.541,1.541,1.541,1.541,1.541,1.541,1.541,1.541,1.541,1.541,1.541,1.541,1.541,1.5391,1.5313,1.5313,1.5284,1.5245,1.4971,1.4805,1.4805,1.454,1.4183,1.3704,1.3696,1.3463,1.3009,1.2543,1.2197,1.1888,1.1351,1.0819,0.7299,0.7167,0.7102,0.6983,0.7093,0.735,0.7722,0.8484,0.9181,0.9431,1.0233,1.1024,1.1504,1.1128,1.0914,1.1535,1.0744,1.0316,1.1063,1.1094,1.1056,1.109,1.1311,1.1174,1.0446,1.0751,1.1055,1.124,1.1983,1.2236,1.188,1.2903,1.3351,1.3061,1.3524,1.4073,1.4736,1.4877,1.5172,1.5596,1.5723,1.5771,1.5771,1.5771,1.5771,1.5771,1.5771,1.5771,1.5771,1.5771,1.5771,1.5771,1.5771,1.5771,1.5771,1.5771,1.5625,1.541,1.541,1.541,1.541,1.541,1.541,1.541,1.541,1.541,1.541,1.541,1.541,1.541,1.541,1.541,1.541,1.541,1.541,1.541,1.541,1.541,1.541,1.541,1.541,1.541,1.541,1.541,1.541,1.541,1.541,1.541,1.541,1.541,1.541,1.541,1.541,1.541,1.541,1.541,1.541,1.541,1.541,1.541,1.541,1.541,1.5147,1.454,1.454,1.4243,1.3666,1.3144,1.2779,1.2527,1.1717,1.1233,0.8269,0.8057,0.7942,0.7879,0.7872,0.7997,0.8468,0.9391,1.0292,1.0841,1.1851,1.251,1.2157,1.2067,1.1694,1.0625,1.0854,1.1132,1.1102,1.0982,1.1082,1.1531,1.1296,1.1085,1.1078,1.1612,1.1848,1.1609,1.2765,1.3152,1.2512,1.313,1.3773,1.441,1.4469,1.4765,1.5381,1.583,1.6075,1.6075,1.6484,1.6658,1.6658,1.6658,1.6658,1.6658,1.6658,1.6658,1.6658,1.6658,1.6658,1.6658,1.6658,1.6658,1.6658,1.6658,1.6122,1.541,1.541,1.541,1.541,1.541,1.541,1.541,1.541,1.541,1.541,1.541,1.541,1.541,1.541,1.541,1.541,1.541,1.541,1.541,1.541,1.541,1.541,1.541,1.541,1.541,1.541,1.541,1.541,1.541,1.541,1.541,1.541,1.541,1.541,1.541,1.541,1.541,1.541,1.541,1.541,1.541,1.541,1.541,1.541,1.541,1.5381,1.5352,1.5352,1.5352,1.5323,1.5176,1.4686,1.3906,1.31,1.2282,0.8594,0.8421,0.838,0.8265,0.8223,0.8326,0.8666,0.9278,0.9996,1.0714,1.1405,1.2051,1.2529,1.2283,1.1877,1.1569,1.1334,1.126,1.1482,1.1741,1.1858,1.1826,1.2325,1.2534,1.2072,1.1844,1.1867,1.2174,1.2581,1.2917,1.3161,1.3803,1.4261,1.4499,1.5187,1.566,1.587,1.6289,1.6514,1.6514,1.6629,1.6697,1.6697,1.6697,1.6697,1.6697,1.6697,1.6697,1.6697,1.6697,1.6697,1.6697,1.6697,1.6697,1.6697,1.6697,1.6512,1.6258,1.6258,1.6258,1.6258,1.6258,1.6258,1.6258,1.6258,1.6258,1.6258,1.6258,1.6258,1.6258,1.6258,1.6258,1.6258,1.6258,1.6258,1.6258,1.6258,1.6258,1.6258,1.6258,1.6258,1.6258,1.6258,1.6258,1.6258,1.6258,1.5761,1.541,1.541,1.541,1.541,1.541,1.541,1.541,1.541,1.541,1.541,1.541,1.541,1.541,1.541,1.541,1.541,1.541,1.541,1.541,1.541,1.4951,1.4597,1.4312,1.3463,1.2856,0.8798,0.8709,0.8655,0.856,0.8556,0.8577,0.8764,0.929,0.9943,1.0636,1.1301,1.1902,1.2505,1.2249,1.1843,1.1476,1.1301,1.1277,1.1569,1.1842,1.2146,1.2427,1.2868,1.307,1.2887,1.2497,1.2444,1.2826,1.2856,1.3161,1.3812,1.4261,1.4692,1.507,1.5737,1.6173,1.6299,1.6738,1.7009,1.7155,1.7155,1.7155,1.7155,1.7155,1.7155,1.7155,1.7155,1.7155,1.7155,1.7155,1.7155,1.7155,1.7155,1.7155,1.7155,1.7155,1.7155,1.7116,1.6804,1.6697,1.6697,1.6697,1.6697,1.6697,1.6697,1.6697,1.6697,1.6697,1.6697,1.6697,1.6697,1.6697,1.6697,1.6697,1.6697,1.6697,1.6697,1.6697,1.6697,1.6697,1.6697,1.6697,1.6697,1.6697,1.6697,1.6697,1.6219,1.5849,1.5849,1.5849,1.5849,1.5849,1.5849,1.5849,1.5849,1.5849,1.5849,1.5849,1.5849,1.5849,1.5849,1.5849,1.5849,1.5849,1.5849,1.5849,1.5849,1.5487,1.5245,1.5184,1.4391,1.3958,0.8915,0.8892,0.8804,0.8804,0.8804,0.8804,0.8791,0.9392,1.011,1.0637,1.1415,1.2021,1.2089,1.2098,1.1692,1.0466,1.0838,1.1283,1.1432,1.1443,1.1963,1.3326,1.2978,1.2848,1.3442,1.3571,1.3571,1.3532,1.3532,1.3842,1.4499,1.4577,1.504,1.6085,1.6134,1.6369,1.6726,1.7197,1.7617,1.8008,1.8008,1.8008,1.8008,1.8008,1.8008,1.8008,1.8008,1.8008,1.8008,1.8008,1.8008,1.8008,1.8008,1.8008,1.8008,1.8008,1.8008,1.7891,1.7048,1.6765,1.6765,1.6765,1.6765,1.6765,1.6765,1.6765,1.6765,1.6765,1.6765,1.6765,1.6765,1.6765,1.6765,1.6765,1.6765,1.6765,1.6765,1.6765,1.6765,1.6765,1.6765,1.6765,1.6765,1.6765,1.6765,1.6765,1.6765,1.6755,1.6707,1.6697,1.6697,1.6697,1.6697,1.6697,1.6697,1.6697,1.6697,1.6697,1.6697,1.6697,1.6697,1.6697,1.6697,1.6697,1.6697,1.6697,1.6697,1.6697,1.6634,1.6507,1.5863,1.55,0.8868,0.8823,0.8804,0.8804,0.8804,0.8751,0.8556,0.89,0.938,0.9881,1.0356,1.0964,1.1856,1.204,1.1886,1.1541,1.1694,1.1935,1.2113,1.2159,1.2493,1.3387,1.3803,1.3863,1.3532,1.4371,1.4726,1.4291,1.4261,1.4529,1.5147,1.5514,1.5827,1.6095,1.6731,1.7132,1.7217,1.7637,1.79,1.8008,1.8008,1.8008,1.8008,1.8008,1.8008,1.8008,1.8008,1.8008,1.8008,1.8008,1.8008,1.8008,1.8008,1.8008,1.8008,1.8008,1.8008,1.7978,1.7764,1.7686,1.7686,1.7686,1.7686,1.7686,1.7686,1.7686,1.7686,1.7686,1.7686,1.7686,1.7686,1.7686,1.7686,1.7686,1.7686,1.7686,1.7686,1.7686,1.7686,1.7686,1.7686,1.7686,1.7686,1.7686,1.7686,1.7686,1.7686,1.7418,1.6785,1.6697,1.6697,1.6697,1.6697,1.6697,1.6697,1.6697,1.6697,1.6697,1.6697,1.6697,1.6697,1.6697,1.6697,1.6697,1.6697,1.6697,1.6697,1.6697,1.6665,1.6634,1.6465,1.6329,0.8776,0.8804,0.8804,0.8804,0.8804,0.8783,0.8682,0.893,0.9335,0.9883,1.0247,1.0665,1.1355,1.1503,1.138,1.0975,1.1265,1.1639,1.1922,1.2214,1.2785,1.3805,1.4013,1.4142,1.4312,1.4726,1.4971,1.4913,1.4647,1.484,1.5654,1.5677,1.5984,1.6662,1.7119,1.7471,1.7656,1.7891,1.8008,1.8008,1.8008,1.8008,1.8008,1.8008,1.8008,1.8008,1.8008,1.8008,1.8008,1.8008,1.8008,1.8008,1.8008,1.8008,1.8008,1.8008,1.8008,1.8008,1.8008,1.8008,1.8008,1.8008,1.8008,1.8008,1.8008,1.8008,1.8008,1.8008,1.8008,1.8008,1.8008,1.8008,1.8008,1.8008,1.8008,1.8008,1.8008,1.8008,1.8008,1.8008,1.8008,1.8008,1.8008,1.8008,1.8008,1.8008,1.8008,1.7832,1.7321,1.7262,1.7262,1.7262,1.7262,1.7262,1.7262,1.7262,1.7262,1.7262,1.7262,1.7262,1.7262,1.7262,1.7262,1.7262,1.7262,1.7262,1.7262,1.7262,1.7262,1.7262,1.7262,1.7229,0.8738,0.8804,0.8804,0.8804,0.883,0.8871,0.8937,0.9214,0.9589,1.0095,1.0425,1.064,1.0664,1.0757,1.0611,0.9915,1.0406,1.1046,1.1513,1.2125,1.3012,1.4392,1.4076,1.4163,1.5177,1.4883,1.4813,1.5312,1.4968,1.5128,1.6045,1.5671,1.6024,1.7441,1.7471,1.7637,1.8008,1.8008,1.8008,1.8008,1.8008,1.8008,1.8008,1.8008,1.8008,1.8008,1.8008,1.8008,1.8008,1.8008,1.8008,1.8008,1.8008,1.8008,1.8008,1.8008,1.8008,1.8008,1.8008,1.8008,1.8008,1.8008,1.8008,1.8008,1.8008,1.8008,1.8008,1.8008,1.8008,1.8008,1.8008,1.8008,1.8008,1.8008,1.8008,1.8008,1.8008,1.8008,1.8008,1.8008,1.8008,1.8008,1.8008,1.8008,1.8008,1.8008,1.8008,1.8008,1.8008,1.8008,1.8008,1.8008,1.8008,1.8008,1.8008,1.8008,1.8008,1.8008,1.8008,1.8008,1.8008,1.8008,1.8008,1.8008,1.8008,1.8008,1.8008,1.8008,1.8008,1.8008,1.8008,1.8008,0.8791,0.8804,0.8804,0.8804,0.8971,0.9072,0.8816,0.9255,0.9606,0.9167,0.9429,0.9801,1.0013,1.0239,1.0507,1.0784,1.1093,1.158,1.2349,1.286,1.3543,1.4609,1.4936,1.4971,1.4677,1.5001,1.5232,1.5142,1.5575,1.5896,1.6095,1.6653,1.7284,1.7881,1.79,1.7939,1.8008,1.8008,1.8008,1.8008,1.8008,1.8008,1.8008,1.8008,1.8008,1.8008,1.8008,1.8008,1.8008,1.8008,1.8008,1.8008,1.8008,1.8008,1.8008,1.8008,1.8008,1.8008,1.8008,1.8008,1.8008,1.8008,1.8008,1.8008,1.8008,1.8008,1.8008,1.8008,1.8008,1.8008,1.8008,1.8008,1.8008,1.8008,1.8008,1.8008,1.8008,1.8008,1.8008,1.8008,1.8008,1.8008,1.8008,1.8008,1.8008,1.8008,1.8008,1.8008,1.8008,1.8008,1.8008,1.8008,1.8008,1.8008,1.8008,1.8008,1.8008,1.8008,1.8008,1.8008,1.8008,1.8008,1.8008,1.8008,1.8008,1.8008,1.8008,1.8008,1.8008,1.8008,1.8008,1.8008,0.8804,0.8804,0.8804,0.8804,0.8808,0.8886,0.9034,0.913,0.9162,0.916,0.9211,0.9197,0.9041,0.9357,0.967,0.9831,1.0584,1.1434,1.2275,1.2959,1.375,1.4679,1.4668,1.4667,1.4943,1.4942,1.5112,1.559,1.6116,1.6514,1.677,1.7363,1.7803,1.8008,1.8008,1.8008,1.8008,1.8008,1.8008,1.8008,1.8008,1.8008,1.8008,1.8008,1.8008,1.8008,1.8008,1.8008,1.8008,1.8008,1.8008,1.8008,1.8008,1.8008,1.8008,1.8008,1.8008,1.8008,1.8008,1.8008,1.8008,1.8008,1.8008,1.8008,1.8008,1.8008,1.8008,1.8008,1.8008,1.8008,1.8008,1.8008,1.8008,1.8008,1.8008,1.8008,1.8008,1.8008,1.8008,1.8008,1.8008,1.8008,1.8008,1.8008,1.8008,1.8008,1.8008,1.8008,1.8008,1.8008,1.8008,1.8008,1.8008,1.8008,1.8008,1.8008,1.8008,1.8008,1.8008,1.8008,1.8008,1.8008,1.8008,1.8008,1.8008,1.8008,1.8008,1.8008,1.8008,1.8008,1.8008,1.8008,0.8804,0.8804,0.8791,0.875,0.8731,0.8806,0.9149,0.9014,0.8872,0.9071,0.8897,0.8582,0.8155,0.8509,0.8894,0.8993,1.007,1.1182,1.1992,1.2824,1.3659,1.4551,1.427,1.4364,1.5313,1.5047,1.5224,1.6172,1.6699,1.7158,1.75,1.7832,1.8008,1.8008,1.8008,1.8008,1.8008,1.8008,1.8008,1.8008,1.8008,1.8008,1.8008,1.8008,1.8008,1.8008,1.8008,1.8008,1.8008,1.8008,1.8008,1.8008,1.8008,1.8008,1.8008,1.8008,1.8008,1.8008,1.8008,1.8008,1.8008,1.8008,1.8008,1.8008,1.8008,1.8008,1.8042,1.8168,1.8202,1.8202,1.8202,1.8202,1.8178,1.8042,1.8008,1.8008,1.8008,1.8008,1.8008,1.8008,1.8008,1.8008,1.8008,1.8008,1.8008,1.8008,1.8008,1.8008,1.8008,1.8008,1.8008,1.8008,1.8008,1.8008,1.8008,1.8008,1.8008,1.8008,1.8008,1.8008,1.8008,1.8008,1.8008,1.8008,1.8008,1.8008,1.8008,1.8008,1.8008,1.8008,1.8008,1.8008,0.8804,0.8804,0.877,0.8565,0.8982,0.927,0.8797,0.9108,0.9204,0.8093,0.7841,0.7792,0.7673,0.8094,0.8786,0.981,1.0442,1.1138,1.2055,1.2535,1.3116,1.4051,1.4486,1.4885,1.5342,1.5742,1.6161,1.6609,1.7399,1.791,1.7949,1.7988,1.8008,1.8008,1.8008,1.8008,1.8008,1.8008,1.8008,1.8008,1.8008,1.8008,1.8008,1.8008,1.8008,1.8008,1.8008,1.8008,1.8008,1.8008,1.8008,1.8008,1.8008,1.8008,1.8008,1.8008,1.8008,1.8008,1.8008,1.8008,1.8008,1.8008,1.8008,1.8008,1.8008,1.8008,1.8144,1.8754,1.8911,1.8911,1.8911,1.8911,1.8754,1.8134,1.8008,1.8008,1.8008,1.8008,1.8008,1.8008,1.8008,1.8008,1.8008,1.8008,1.8008,1.8008,1.8008,1.8008,1.8008,1.8008,1.8008,1.8008,1.8008,1.8008,1.8008,1.8008,1.8008,1.8008,1.8008,1.8008,1.8008,1.8008,1.8008,1.8008,1.8008,1.8008,1.8008,1.8008,1.8008,1.8008,1.8008,1.8008,0.9537,0.9347,0.9011,0.9316,0.9322,0.9221,0.9069,0.8945,0.8649,0.7864,0.7515,0.7326,0.7298,0.7676,0.8289,0.9275,1.0031,1.0816,1.1706,1.2157,1.2828,1.397,1.426,1.4658,1.5313,1.5811,1.6388,1.707,1.7676,1.8008,1.8008,1.8008,1.8008,1.8008,1.8008,1.8008,1.8008,1.8008,1.8008,1.8008,1.8008,1.8008,1.8008,1.8008,1.8008,1.8008,1.8008,1.8008,1.8008,1.8008,1.8008,1.8008,1.8008,1.8008,1.8008,1.8008,1.8008,1.8008,1.8008,1.8076,1.8178,1.8178,1.8529,1.8921,1.8687,1.8586,1.8754,1.9474,1.9671,1.9671,1.9748,1.9562,1.9276,1.8877,1.8529,1.8313,1.8313,1.8664,1.8944,1.8944,1.9299,1.9431,1.9044,1.8944,1.8821,1.8381,1.8313,1.8313,1.8313,1.8313,1.8313,1.8313,1.811,1.8008,1.8008,1.8008,1.8008,1.8008,1.8008,1.8008,1.8008,1.8008,1.8008,1.8008,1.8008,1.8008,1.8008,1.8008,1.8008,1.8008,1.8008,1.8008,0.9785,0.9604,0.9212,0.962,0.9434,0.9139,0.905,0.8594,0.8028,0.7439,0.7002,0.6709,0.6709,0.7154,0.7807,0.8682,0.9529,1.0416,1.1457,1.1808,1.2479,1.3931,1.4104,1.4445,1.5332,1.5928,1.6631,1.75,1.7842,1.8008,1.8008,1.8008,1.8008,1.8008,1.8008,1.8008,1.8008,1.8008,1.8008,1.8008,1.8008,1.8008,1.8008,1.8008,1.8008,1.8008,1.8008,1.8008,1.8008,1.8008,1.8008,1.8008,1.8008,1.8008,1.8008,1.8008,1.8042,1.8076,1.8076,1.8212,1.8405,1.8596,1.911,1.9628,1.9716,1.9617,1.9628,2.0344,2.0537,2.057,2.0655,2.0301,1.9857,1.9726,1.9408,1.9121,1.9121,1.954,1.989,1.989,2.0107,2.0204,1.9944,1.9562,1.9187,1.8865,1.864,1.8516,1.8516,1.8516,1.8516,1.8516,1.8279,1.8144,1.8144,1.8144,1.8144,1.8144,1.8144,1.8144,1.8144,1.811,1.8076,1.8076,1.8042,1.8008,1.8008,1.8008,1.8008,1.8008,1.8008,1.8008,0.9198,0.9313,0.9341,0.9158,0.9198,0.9144,0.8549,0.8048,0.7462,0.6589,0.6095,0.5813,0.5813,0.6526,0.7383,0.8258,0.903,1.0003,1.1392,1.148,1.2082,1.3905,1.4104,1.4445,1.5332,1.618,1.7048,1.7939,1.8008,1.8008,1.8008,1.8008,1.8008,1.8008,1.8008,1.8008,1.8008,1.8008,1.8008,1.8008,1.8008,1.8008,1.8008,1.8008,1.8008,1.8008,1.8008,1.8008,0.0,1.8008,1.8008,1.8008,1.8008,1.8008,1.8008,1.8008,1.8144,1.8303,1.8303,1.8381,1.8607,1.9342,1.9595,1.9857,2.1164,2.1101,2.0719,2.1396,2.1585,2.1585,2.1585,2.1101,2.059,2.059,2.059,2.059,2.059,2.059,2.059,2.059,2.0042,1.9824,2.0462,1.9441,1.8774,1.9474,1.8965,1.8516,1.8516,1.8516,1.8516,1.8516,1.8516,1.8482,1.8482,1.8482,1.8482,1.8482,1.8482,1.8482,1.8482,1.8381,1.8303,1.8303,1.811,1.8008,1.8008,1.8008,1.8008,1.8008,1.8008,1.8008,1.0201,1.006,0.9584,0.9738,0.9605,0.9253,0.857,0.8042,0.7442,0.6579,0.6086,0.5891,0.6152,0.6436,0.7109,0.8564,0.9002,0.9733,1.1379,1.1569,1.2166,1.3893,1.4912,1.5674,1.6229,1.6836,1.7412,1.7969,1.8008,1.8008,1.8008,1.8008,1.8008,1.8008,1.8008,1.8008,1.8008,1.8008,1.8008,1.8008,1.8008,1.8008,1.8008,1.8008,1.8008,1.8008,1.8008,1.8008,1.8008,1.8008,1.8008,1.8008,1.8008,1.8076,1.8202,1.8202,1.8313,1.8448,1.8448,1.8831,1.9419,1.9671,2.0462,2.1373,2.1791,2.1635,2.1428,2.2149,2.2408,2.2469,2.2377,2.2002,2.1604,2.1522,2.1207,2.0921,2.0921,2.1302,2.1479,2.1017,2.1132,2.1089,2.0376,1.9901,1.9682,1.9901,1.9353,1.9065,1.9518,1.9198,1.8908,1.8908,1.8908,1.8808,1.8516,1.8516,1.8516,1.8516,1.8516,1.8516,1.8516,1.8448,1.8448,1.8448,1.8381,1.8313,1.8202,1.8202,1.8144,1.8008,1.8008,1.8008,0.9884,0.9795,0.9352,0.9564,0.9339,0.8916,0.8275,0.7652,0.7018,0.6318,0.583,0.5664,0.6094,0.6445,0.7129,0.8545,0.918,0.999,1.141,1.1731,1.2393,1.3929,1.5273,1.6271,1.6658,1.7129,1.7559,1.7978,1.8008,1.8008,1.8008,1.8008,1.8008,1.8008,1.8008,1.8008,1.8008,1.8008,1.8008,1.8008,1.8008,1.8008,1.8008,1.8008,1.8008,1.8008,1.8008,1.8042,0.0,1.811,1.8144,1.8178,1.8178,1.8279,1.8371,1.8371,1.8472,1.865,1.8898,1.9386,1.9998,2.0494,2.1479,2.2494,2.2494,2.2341,2.2249,2.2714,2.2909,2.2969,2.2878,2.2671,2.2463,2.2384,2.2094,2.1846,2.1846,2.2187,2.2279,2.1616,2.1803,2.176,2.0666,2.0484,2.0484,2.0484,2.0128,2.0009,2.042,2.0096,1.9846,1.9846,1.9846,1.9748,1.9485,1.9008,1.8741,1.8741,1.8741,1.8741,1.8741,1.865,1.8607,1.8607,1.8549,1.8448,1.8371,1.8303,1.8212,1.8008,1.8008,1.8008,0.0,0.871,0.8789,0.8778,0.858,0.8277,0.7817,0.7057,0.0,0.598,0.5517,0.5331,0.5802,0.6572,0.7432,0.8336,0.95,1.0616,1.1528,1.2041,1.2798,1.4007,1.5322,1.6279,1.6658,1.7148,1.7588,1.7978,1.8008,1.8008,1.8008,1.8008,1.8008,1.8008,1.8008,1.8008,1.8008,1.8008,1.8008,1.8008,1.8008,1.8008,1.8008,1.8008,1.8008,1.8008,1.8042,1.8144,1.8303,1.8303,1.8381,1.8516,1.8516,1.8516,1.8516,1.8516,1.865,1.8908,1.9584,1.9966,2.0376,2.1741,2.2586,2.3108,2.3108,2.3108,2.3108,2.3108,2.3108,2.3108,2.3108,2.3108,2.3108,2.3108,2.3108,2.3108,2.3108,2.3108,2.2914,2.2237,2.2101,2.1896,2.1219,2.1092,2.1135,2.1155,2.1123,2.1135,2.1155,2.1123,2.1092,2.1092,2.1092,2.1092,2.1092,1.9977,1.9231,1.9231,1.9231,1.9231,1.9164,1.9008,1.8875,1.8875,1.8674,1.8583,1.8516,1.8371,1.8202,1.8008,1.8008,1.8008,0.783,0.0,0.8757,0.8538,0.8447,0.8277,0.0,0.7301,0.6914,0.6816,0.6426,0.6228,0.6709,0.7213,0.7954,0.9123,0.9863,1.0703,1.1904,1.2983,1.3899,1.4561,1.5781,1.659,1.6687,1.7389,1.79,1.8008,1.8008,1.8008,1.8008,1.8008,1.8008,1.8008,1.8008,1.8008,1.8008,1.8008,1.8008,1.8008,1.8008,1.8008,1.8008,1.8168,1.8245,1.8236,1.8347,1.8414,1.8448,1.8448,1.8482,1.8516,1.8516,1.8583,1.8741,1.8741,1.8875,1.9131,1.9813,2.0387,2.1092,2.2433,2.2975,2.3108,2.3108,2.3108,2.3108,2.3108,2.3108,2.3108,2.3108,2.3108,2.3108,2.3108,2.3108,2.3108,2.3108,2.3108,2.2914,2.2237,2.2101,2.1896,2.1219,2.1092,2.1282,2.1803,2.1439,2.1282,2.1803,2.1408,2.1092,2.1092,2.1092,2.1092,2.1092,2.0805,2.0613,2.0613,2.0613,2.0387,1.9879,1.9813,1.9781,1.9781,1.9616,1.9231,1.8741,1.8549,1.8381,1.8245,1.8245,1.8144,0.7369,0.786,0.8264,0.8119,0.8086,0.7969,0.7525,0.7252,0.7041,0.6826,0.6758,0.6852,0.7291,0.7876,0.8655,0.9737,1.0479,1.1349,1.2613,1.3724,1.459,1.5019,1.6024,1.6775,1.7012,1.7627,1.8008,1.8008,1.8008,1.8008,1.8008,1.8008,1.8008,1.8008,1.8008,1.8008,1.8008,1.8008,1.8042,1.8144,1.8144,1.8178,1.8245,1.8347,1.8371,1.8414,1.8482,1.8549,1.865,1.865,1.8674,1.8774,1.8774,1.8841,1.8942,1.8942,1.9198,1.9649,2.0323,2.1219,2.2125,2.2854,2.2884,2.2689,2.3017,2.2884,2.272,2.3005,2.2884,2.272,2.3005,2.2884,2.272,2.3035,2.3108,2.3108,2.3108,2.3108,2.2914,2.2237,2.2341,2.2249,2.1282,2.1596,2.2032,2.2082,2.2051,2.2156,2.2494,2.2249,2.2002,2.2002,2.2002,2.2002,2.2002,2.2002,2.1753,2.1123,2.1092,2.0933,2.0581,2.0549,2.0549,2.0549,2.0452,2.015,1.9726,1.932,1.9031,1.8888,1.8539,1.8337,0.708,0.7398,0.7695,0.7695,0.7695,0.7627,0.7363,0.7295,0.7197,0.6865,0.7119,0.7505,0.7909,0.8646,0.9482,1.0361,1.1281,1.2289,1.3437,1.4287,1.4971,1.5459,1.62,1.6872,1.7344,1.7764,1.8008,1.8008,1.8008,1.8008,1.8008,1.8008,1.8008,1.8008,1.8008,1.8008,1.8042,1.8042,1.8144,1.8337,1.8337,1.8371,1.8516,1.8516,1.8549,1.8549,1.8583,0.0,1.8841,1.8841,1.8942,1.9108,1.9108,1.9164,1.9264,1.9264,1.9682,2.0355,2.1028,2.2063,2.3065,2.2975,2.2555,2.2206,2.2781,2.2555,2.2237,2.2914,2.2689,2.239,2.2944,2.2689,2.2402,2.2975,2.3108,2.3108,2.3108,2.3108,2.2944,2.2359,2.272,2.2732,2.1596,2.2353,2.2914,2.2329,2.275,2.3108,2.3108,2.3108,2.3108,2.3108,2.3108,2.3108,2.3108,2.3108,2.2628,2.1471,2.1408,2.1345,2.125,2.125,2.1187,2.1092,2.1187,2.1112,2.0824,2.0279,1.9933,1.9759,1.9021,1.8674,0.6992,0.7398,0.7695,0.7695,0.7695,0.7788,0.8131,0.8199,0.8277,0.8545,0.8662,0.8821,0.9233,0.9746,1.0391,1.1263,1.2426,1.3408,1.3929,1.4473,1.5107,1.5899,1.6416,1.6872,1.7344,1.7764,1.8008,1.8008,1.8008,1.8008,1.8008,1.8008,1.8008,1.8008,1.8008,1.8076,1.8236,1.8236,1.8337,1.8482,1.8482,1.8482,1.8516,1.8674,1.8741,1.8774,0.0,1.9042,1.9031,1.9031,1.9075,1.9108,1.9108,1.9462,1.9944,1.9944,2.0355,2.1028,2.171,2.2463,2.3017,2.2433,2.2175,2.2113,2.2237,2.2175,2.2237,2.2914,2.3035,2.2975,2.3078,2.3005,2.2975,2.3078,2.3108,2.3108,2.3108,2.3108,2.3078,2.2975,2.3035,2.3035,2.2823,2.2944,2.3078,2.2944,2.3035,2.3108,2.3108,2.3108,2.3108,2.3108,2.3108,2.3108,2.3108,2.3108,2.3017,2.2823,2.2793,2.2537,2.1959,2.1959,2.1678,2.1092,2.1647,2.1647,2.106,2.0965,2.0782,2.06,1.9922,1.954,0.6973,0.7578,0.8076,0.8076,0.8076,0.8135,0.8346,0.8571,0.8838,0.924,0.9531,0.9824,1.0225,1.0704,1.1302,1.2152,1.3154,1.3968,1.4424,1.5059,1.5743,1.6348,1.6816,1.7246,1.7676,1.79,1.8042,1.8144,1.8076,1.8042,1.8178,1.8168,1.8168,1.8168,1.8245,1.8381,1.8573,1.8573,1.8607,1.864,1.864,1.8707,1.8841,1.8908,1.8975,1.8975,0.0,1.9108,1.9108,1.9108,1.9297,1.9584,1.9231,1.9715,2.0677,2.1049,2.1396,2.1741,2.2402,2.2841,2.2975,2.2329,2.1865,2.1616,2.199,2.1865,2.1772,2.2823,2.2841,2.2647,2.3017,2.2811,2.2647,2.3005,2.3108,2.3108,2.3108,2.3108,2.3108,2.3108,2.3108,2.3108,2.3108,2.3108,2.3108,2.3108,2.3108,2.3108,2.3108,2.3108,2.3108,2.3108,2.3108,2.3108,2.3108,2.3108,2.3108,2.3108,2.3108,2.2944,2.2647,2.2647,2.2506,2.2187,2.2463,2.2494,2.2199,2.1803,2.1604,2.1499,2.0814,2.0291,0.6973,0.7739,0.8395,0.8395,0.8473,0.859,0.8796,0.9089,0.9453,0.9962,1.0352,1.0733,1.1143,1.1682,1.2259,1.292,1.374,1.4404,1.4736,1.5557,1.6261,1.6648,1.7119,1.7582,1.8037,1.8076,1.8144,1.8337,1.8212,1.8178,1.8337,1.8347,1.8347,1.8347,1.8448,1.8617,1.8808,1.8808,1.8808,1.8875,1.8875,1.8942,1.9108,1.9264,1.9231,1.9098,1.9264,1.933,1.933,1.9164,1.9584,2.0258,1.9584,2.0161,2.1408,2.2082,2.2329,2.239,2.2914,2.3108,2.2944,2.2144,2.1616,2.1408,2.1772,2.1616,2.1596,2.2763,2.272,2.2463,2.2975,2.272,2.2463,2.2975,2.3108,2.3108,2.3108,2.3108,2.3108,2.3108,2.3108,2.3108,2.3108,2.3108,2.3108,2.3108,2.3108,2.3108,2.3108,2.3108,2.3108,2.3108,2.3108,2.3108,2.3108,2.3108,2.3108,2.3108,2.3108,2.3108,2.3108,2.3108,2.3108,2.3108,2.3108,2.3108,2.3108,2.2586,2.2329,2.2329,2.1647,2.106,0.6973,0.7739,0.8395,0.8395,0.8688,0.917,0.998,1.0185,1.0449,1.1271,1.1489,1.1633,1.2028,1.2788,1.3389,1.3447,1.418,1.4746,1.4813,1.5557,1.6261,1.6648,1.7119,1.7648,1.823,1.8269,1.8337,1.8482,1.8482,1.8482,1.8482,1.8482,1.8482,1.8482,1.8482,1.8617,1.8808,1.8808,1.8875,1.9065,1.9065,1.9108,1.9108,1.9748,1.9682,1.9131,1.9748,2.0042,1.9966,1.9363,1.9846,2.0965,2.0291,2.0858,2.2113,2.2781,2.3035,2.3035,2.3065,2.3108,2.2884,2.1596,2.1553,2.1916,2.1345,2.1585,2.2175,2.2914,2.3078,2.3035,2.3078,2.3078,2.3035,2.3078,2.3108,2.3108,2.3108,2.3108,2.3108,2.3108,2.3108,2.3108,2.3108,2.3108,2.3108,2.3108,2.3108,2.3108,2.3108,2.3108,2.3108,2.3108,2.3108,2.3108,2.3108,2.3108,2.3108,2.3108,2.3108,2.3108,2.3108,2.3108,2.3108,2.3108,2.3108,2.3108,2.3108,2.3035,2.3035,2.3005,2.2341,2.2021,0.7641,0.8336,0.8913,0.9442,0.9883,1.0205,1.0293,1.0714,1.1271,1.1855,1.1973,1.2197,1.2866,1.3291,1.3682,1.4219,1.457,1.4873,1.5137,1.5928,1.6543,1.6677,1.7442,1.8067,1.8293,1.8371,1.8516,1.8674,1.8583,1.8549,1.8674,1.8684,1.8684,1.8684,1.8808,1.8908,1.8975,1.8975,1.9231,1.9715,1.9715,1.9715,1.9748,2.042,2.0355,1.9748,2.042,2.0484,2.0096,2.0291,2.0645,2.1123,2.127,2.1667,2.2175,2.2841,2.3108,2.3108,2.3108,2.3108,2.2944,2.2021,2.1896,2.2039,2.1803,2.2166,2.2819,2.3468,2.3885,2.4073,2.3766,2.3665,2.3722,2.4073,2.4148,2.4148,2.4148,2.4148,2.4148,2.4148,2.4148,2.4148,2.4148,2.4148,2.4148,2.4148,2.4148,2.4148,2.4148,2.386,2.3665,2.3665,2.3321,2.3108,2.3108,2.3108,2.3108,2.3108,2.3108,2.3108,2.3108,2.3108,2.3108,2.3108,2.3108,2.3108,2.3108,2.3108,2.3108,2.3095,2.2841,2.2494,0.8033,0.8779,0.9357,1.0098,1.0811,1.125,1.0967,1.1369,1.1917,1.232,1.2515,1.2827,1.3549,1.3818,1.4102,1.4687,1.4959,1.5145,1.5371,1.6202,1.676,1.6697,1.7645,1.8303,1.8371,1.8516,1.8674,1.8875,1.8774,1.8741,1.8875,1.8875,1.8875,1.8875,1.9042,1.9108,1.9108,1.9108,1.9419,2.0096,2.0323,2.042,2.0452,2.1112,2.106,2.0452,2.1112,2.1144,2.0762,2.0996,2.1219,2.1471,2.2144,2.2433,2.2463,2.2944,2.3108,2.3108,2.3108,2.2944,2.272,2.2237,2.2101,2.2137,2.2318,2.2832,2.3438,2.4079,2.4531,2.4738,2.4556,2.4381,2.4356,2.47,2.4788,2.4788,2.4788,2.4788,2.4788,2.4788,2.4788,2.4788,2.4788,2.4852,2.4885,2.482,2.4852,2.4885,2.482,2.4494,2.4255,2.4255,2.3873,2.3572,2.3396,2.3384,2.3296,2.3108,2.3283,2.3296,2.3108,2.3108,2.3108,2.3108,2.3108,2.3108,2.3108,2.3108,2.3108,2.3108,2.3108,2.2841,0.8042,0.9004,0.9728,1.0186,1.127,1.2203,1.2213,1.2213,1.234,1.2803,1.3223,1.3643,1.4036,1.4492,1.4813,1.4823,1.5299,1.5643,1.5439,1.6315,1.6918,1.6728,1.7645,1.8337,1.8482,1.8674,1.8875,1.9108,1.9108,1.9108,1.9108,1.9108,1.9108,1.9108,1.9108,1.9108,1.9108,1.9108,1.9462,2.0139,2.0773,2.1092,2.1123,2.1803,2.1741,2.1155,2.1834,2.2113,2.2039,2.1365,2.1491,2.2175,2.2811,2.3095,2.3108,2.3108,2.3108,2.3108,2.3108,2.2659,2.2101,2.2101,2.2113,2.2209,2.2826,2.3477,2.413,2.4669,2.48,2.4926,2.5473,2.5222,2.4813,2.4813,2.4813,2.4813,2.4833,2.4833,2.4833,2.4833,2.4833,2.4833,2.4833,2.4994,2.5045,2.4865,2.4994,2.5045,2.482,2.48,2.48,2.4788,2.4788,2.4562,2.4054,2.4004,2.3766,2.3158,2.369,2.3753,2.3133,2.312,2.312,2.312,2.3108,2.3108,2.3108,2.3108,2.3108,2.3108,2.3108,2.3108,0.8545,0.9443,1.0264,1.1038,1.1709,1.2291,1.2617,1.2686,1.2803,1.3232,1.3739,1.4261,1.4658,1.4846,1.5061,1.5367,1.5593,1.5672,1.5614,1.6416,1.7012,1.7044,1.7875,1.8506,1.8674,1.8875,1.9042,1.9108,1.9108,1.9108,1.9108,1.9108,1.9108,1.9108,1.9108,1.9108,1.9108,1.9584,2.0128,2.0805,2.1491,2.1803,2.1834,2.2494,2.2433,2.1834,2.2494,2.2555,2.207,2.1896,2.2218,2.2781,2.2494,2.2689,2.3108,2.3108,2.3108,2.3108,2.3108,2.2659,2.2175,2.2647,2.2763,2.2853,2.351,2.4359,2.5159,2.5322,2.5661,2.6047,2.632,2.6245,2.6131,2.6131,2.6131,2.6164,2.6324,2.6357,2.6357,2.6357,2.6357,2.6357,2.6357,2.6391,2.6411,2.6357,2.6265,2.6013,2.5443,2.536,2.5222,2.4825,2.4788,2.4725,2.4594,2.4569,2.4474,2.4299,2.4449,2.4318,2.3766,2.4086,2.4299,2.4299,2.3941,2.374,2.374,2.3308,2.3108,2.3108,2.3108,2.3108,0.8747,0.9756,1.0714,1.143,1.2031,1.2598,1.3037,1.3135,1.3326,1.3949,1.4389,1.4788,1.5263,1.537,1.545,1.5719,1.5817,1.5906,1.6047,1.6718,1.7251,1.7463,1.814,1.8684,1.8774,1.8975,1.9108,1.9108,1.9108,1.9108,1.9108,1.9108,1.9108,1.9108,1.9363,1.9485,1.9485,2.0161,2.0826,2.1491,2.1928,2.2237,2.2525,2.2914,2.2871,2.2525,2.2914,2.2884,2.2494,2.2494,2.275,2.3078,2.2659,2.275,2.3108,2.3108,2.3108,2.3108,2.3108,2.2659,2.2242,2.3175,2.3256,2.3207,2.4302,2.5084,2.5669,2.5929,2.6291,2.6624,2.6773,2.6829,2.6829,2.6829,2.6829,2.6841,2.6977,2.699,2.699,2.699,2.699,2.699,2.699,2.7079,2.7079,2.7024,2.6829,2.6519,2.6076,2.6005,2.5824,2.5498,2.5473,2.5385,2.5146,2.5134,2.5046,2.48,2.5008,2.4983,2.4644,2.4757,2.4788,2.4788,2.4494,2.433,2.433,2.3948,2.3659,2.3446,2.3446,2.3321,0.8731,0.9961,1.1064,1.1498,1.2302,1.3071,1.3467,1.3619,1.39,1.4794,1.5048,1.5253,1.5805,1.5914,1.5914,1.5914,1.6009,1.6209,1.6577,1.7124,1.7603,1.7902,1.8456,1.8808,1.8841,1.9008,1.9108,1.9108,1.9108,1.9108,1.9108,1.9108,1.9131,1.9198,1.9781,2.0128,2.0193,2.0869,2.1491,2.2101,2.2175,2.2525,2.3108,2.3108,2.3108,2.3108,2.3108,2.3108,2.3108,2.3108,2.3108,2.3108,2.3108,2.3108,2.3108,2.3108,2.3108,2.3108,2.3108,2.2659,2.2321,2.3605,2.3596,2.3421,2.514,2.5703,2.5887,2.654,2.6726,2.676,2.6977,2.7024,2.7024,2.7045,2.7045,2.7024,2.7045,2.7045,2.7045,2.7045,2.7045,2.7045,2.7045,2.7214,2.7235,2.7045,2.6863,2.676,2.6726,2.6624,2.6568,2.6568,2.6521,2.6285,2.5745,2.5707,2.5473,2.5008,2.541,2.5674,2.5674,2.5222,2.4938,2.4938,2.4888,2.4863,2.4863,2.4813,2.4537,2.4067,2.4067,2.3766,0.8888,1.0205,1.151,1.1717,1.2645,1.3639,1.4047,1.4402,1.4735,1.4951,1.538,1.5764,1.6017,1.6066,1.6066,1.6066,1.6085,1.6238,1.6696,1.7185,1.7697,1.8234,1.8598,1.8875,1.9008,1.9075,1.9108,1.9108,1.9108,1.9108,1.9108,1.9108,1.933,1.9879,2.0031,2.0355,2.0869,2.1553,2.1947,2.2113,2.2616,2.2944,2.3108,2.3108,2.3108,2.3108,2.3108,2.3108,2.3108,2.3108,2.3108,2.3108,2.3108,2.3108,2.3108,2.3108,2.3108,2.3108,2.3108,2.2659,2.2321,2.3722,2.4021,2.4149,2.562,2.6373,2.6722,2.6871,2.6943,2.6977,2.7167,2.7248,2.7268,2.7369,2.7302,2.7268,2.7369,2.7403,2.7403,2.7403,2.7403,2.7403,2.7403,2.7436,2.7403,2.7268,2.7201,2.71,2.6943,2.6909,2.6875,2.6875,2.676,2.6595,2.6481,2.6366,2.626,2.6147,2.6248,2.6311,2.6311,2.6197,2.6135,2.6135,2.5661,2.5435,2.5435,2.5021,2.4725,2.4644,2.4644,2.4311,0.9007,1.025,1.1547,1.2293,1.3316,1.418,1.441,1.4969,1.5449,1.5523,1.579,1.6048,1.621,1.6239,1.6239,1.6239,1.6239,1.6475,1.7153,1.7451,1.7873,1.863,1.8864,1.8975,1.9108,1.9108,1.9108,1.9108,1.9108,1.9108,1.9108,1.9396,1.9748,2.0107,2.073,2.1227,2.1585,2.2249,2.2586,2.2586,2.2944,2.3108,2.3108,2.3108,2.3108,2.3108,2.3108,2.3108,2.3108,2.3108,2.3108,2.3108,2.3108,2.3108,2.3108,2.321,2.3168,2.3138,2.3288,2.3228,2.3269,2.4374,2.4893,2.5297,2.6276,2.678,2.7024,2.7113,2.7146,2.718,2.7335,2.7403,2.7403,2.7503,2.7469,2.7403,2.7503,2.749,2.749,2.749,2.749,2.749,2.749,2.749,2.7503,2.7403,2.7335,2.7268,2.7146,2.7045,2.6943,2.6875,2.676,2.6692,2.6624,2.6521,2.6499,2.6499,2.6499,2.6499,2.6499,2.6499,2.6499,2.6499,2.6197,2.6047,2.6047,2.5737,2.546,2.5197,2.5197,2.4908,0.9125,1.0387,1.166,1.2839,1.3831,1.4544,1.4615,1.5255,1.5871,1.6075,1.6114,1.6153,1.6374,1.6413,1.6413,1.6413,1.6413,1.6674,1.7471,1.7657,1.8008,1.8891,1.9056,1.9142,1.9264,1.9164,1.9142,1.9264,1.9164,1.9164,1.9264,1.9813,2.0193,2.0452,2.151,2.2175,2.2267,2.2811,2.3108,2.3108,2.3108,2.3108,2.3108,2.3108,2.3108,2.3108,2.3108,2.3108,2.3108,2.3108,2.3108,2.3108,2.3108,2.3108,2.3168,2.333,2.33,2.3241,2.3611,2.396,2.4396,2.5217,2.5833,2.6347,2.6912,2.7079,2.7113,2.7302,2.7335,2.7369,2.7469,2.749,2.749,2.749,2.749,2.749,2.749,2.749,2.749,2.749,2.749,2.749,2.749,2.749,2.749,2.749,2.7403,2.7335,2.7335,2.718,2.7011,2.6863,2.6794,2.6692,2.6602,2.6521,2.6499,2.6499,2.6499,2.6499,2.6499,2.6499,2.6499,2.6499,2.6499,2.6499,2.6499,2.6499,2.6248,2.5749,2.5749,2.546,0.9219,1.096,1.2552,1.2796,1.3522,1.4262,1.4685,1.5138,1.5578,1.6004,1.6114,1.6153,1.6374,1.6413,1.6413,1.6413,1.6413,1.656,1.7037,1.7451,1.7884,1.8413,1.8859,1.933,1.9911,1.9419,1.933,1.9901,1.9429,1.9363,1.9944,2.0063,2.0634,2.1791,2.2009,2.239,2.2944,2.3078,2.3108,2.3108,2.3108,2.3108,2.3108,2.3108,2.3108,2.3108,2.3108,2.3108,2.3108,2.3108,2.3108,2.3108,2.3108,2.321,2.336,2.3403,2.3463,2.3603,2.4179,2.4415,2.4659,2.5858,2.6324,2.6492,2.722,2.7436,2.7436,2.7469,2.7469,2.7503,2.749,2.749,2.749,2.749,2.749,2.749,2.749,2.749,2.749,2.749,2.749,2.749,2.749,2.749,2.749,2.749,2.7503,2.7469,2.7469,2.7469,2.7423,2.739,2.7134,2.6943,2.6943,2.6671,2.6499,2.6499,2.6499,2.6499,2.6499,2.6499,2.6499,2.6499,2.6499,2.6499,2.6499,2.6499,2.6449,2.6386,2.6386,2.6072,0.921,1.0712,1.2021,1.2689,1.333,1.3936,1.4399,1.5057,1.5622,1.5817,1.6102,1.6306,1.6374,1.6413,1.6506,1.6786,1.6842,1.7013,1.7443,1.7922,1.8391,1.8912,1.9361,1.9901,2.0613,2.0063,1.9781,2.0074,1.9846,1.9781,2.0063,2.0826,2.1479,2.207,2.2451,2.2811,2.3108,2.3108,2.3108,2.3108,2.3108,2.3108,2.3108,2.3108,2.3108,2.3108,2.3108,2.3108,2.3108,2.321,2.3271,2.3271,2.336,2.345,2.3522,2.3641,2.3641,2.3705,2.4512,2.4926,2.5265,2.6258,2.6772,2.7084,2.7411,2.749,2.749,2.749,2.749,2.749,2.749,2.749,2.749,2.749,2.749,2.749,2.749,2.749,2.749,2.749,2.749,2.749,2.749,2.749,2.749,2.749,2.749,2.749,2.749,2.749,2.7469,2.7403,2.7268,2.7079,2.6841,2.6692,2.6589,2.6499,2.6499,2.6499,2.6499,2.6499,2.6499,2.6499,2.6499,2.6499,2.6499,2.6499,2.6499,2.6499,2.6499,2.6361,0.9149,1.0429,1.1502,1.2299,1.304,1.37,1.422,1.4862,1.5423,1.5645,1.5988,1.6236,1.6236,1.633,1.6591,1.7101,1.7202,1.7389,1.7893,1.8331,1.8816,1.9393,1.9852,2.042,2.1282,2.0741,2.042,2.0602,2.0452,2.042,2.0602,2.1542,2.2175,2.2341,2.2841,2.3108,2.3108,2.3108,2.3108,2.3108,2.3108,2.3108,2.3108,2.3108,2.3138,2.3168,2.3108,2.3138,2.3198,2.333,2.3433,2.3463,2.3569,2.3628,2.3688,2.3832,2.3909,2.4073,2.4927,2.5501,2.5979,2.6667,2.7183,2.749,2.749,2.749,2.749,2.749,2.749,2.749,2.749,2.749,2.749,2.749,2.749,2.749,2.749,2.749,2.749,2.749,2.749,2.749,2.749,2.749,2.749,2.749,2.749,2.749,2.749,2.749,2.7469,2.7369,2.7302,2.7167,2.6897,2.6794,2.6726,2.6636,2.6602,2.6555,2.6555,2.6521,2.6499,2.6499,2.6499,2.6499,2.6499,2.6499,2.6499,2.6499,2.6499,2.6499,0.9052,1.0419,1.1618,1.1427,1.2452,1.366,1.425,1.4376,1.4627,1.5519,1.5711,1.5732,1.5732,1.6112,1.6591,1.7101,1.7202,1.7407,1.8018,1.8373,1.8846,1.9495,1.9894,2.0602,2.1916,2.1428,2.1313,2.1959,2.1396,2.1333,2.1947,2.207,2.2402,2.3035,2.3065,2.3108,2.3108,2.3108,2.3108,2.3108,2.3108,2.3108,2.3108,2.3108,2.3198,2.3373,2.3168,2.321,2.3403,2.3403,2.345,2.3599,2.3599,2.373,2.3891,2.3891,2.4346,2.5001,2.5576,2.6151,2.6726,2.7301,2.7477,2.749,2.749,2.749,2.749,2.749,2.749,2.749,2.749,2.749,2.749,2.749,2.749,2.749,2.749,2.749,2.749,2.749,2.749,2.749,2.749,2.749,2.749,2.749,2.749,2.749,2.749,2.749,2.749,2.749,2.7369,2.7302,2.7268,2.7079,2.6977,2.6977,2.6794,2.6679,2.6679,2.6555,2.6499,2.6499,2.6499,2.6499,2.6499,2.6499,2.6499,2.6499,2.6499,2.6499,0.8134,0.917,1.031,1.1001,1.209,1.3221,1.4126,1.4819,1.5262,1.5252,1.5745,1.6159,1.6213,1.6605,1.7112,1.7672,1.8093,1.8429,1.8655,1.9329,1.9901,2.0209,2.092,2.1741,2.2647,2.2156,2.1834,2.207,2.1896,2.1865,2.2082,2.2525,2.2841,2.3078,2.3108,2.3108,2.3108,2.3108,2.3108,2.3108,2.3108,2.3168,2.33,2.33,2.339,2.3509,2.3437,2.345,2.3539,2.3671,2.376,2.3789,2.3878,2.3966,2.4076,2.4471,2.4762,2.5136,2.6078,2.6536,2.6798,2.734,2.749,2.749,2.749,2.749,2.749,2.749,2.749,2.749,2.749,2.749,2.749,2.749,2.749,2.749,2.749,2.749,2.749,2.749,2.749,2.749,2.749,2.749,2.749,2.749,2.749,2.749,2.749,2.749,2.749,2.749,2.7469,2.7403,2.7302,2.7248,2.7146,2.7024,2.6943,2.6909,2.6909,2.6726,2.6624,2.6624,2.6521,2.6499,2.6499,2.6499,2.6499,2.6499,2.6499,2.6499,0.7514,0.8405,0.9434,1.0286,1.1566,1.2885,1.3813,1.468,1.5291,1.5263,1.5764,1.6214,1.6255,1.6934,1.7698,1.8286,1.8735,1.9066,1.9251,1.9984,2.0591,2.088,2.1613,2.2359,2.3035,2.2689,2.2433,2.2433,2.2433,0.0,2.2433,2.2854,2.3108,2.3108,2.3108,2.3108,2.3108,2.3108,2.3108,2.3108,2.3168,2.3271,2.3403,2.3463,2.3539,2.3688,2.3688,2.3688,2.37,2.3832,2.392,2.3979,2.4054,2.423,2.4452,2.4861,2.524,2.5685,2.6444,2.6837,2.7027,2.7372,2.749,2.749,2.749,2.749,2.749,2.749,2.749,2.749,2.749,2.749,2.749,2.749,2.749,2.749,2.749,2.749,2.749,2.749,2.749,2.749,2.749,2.749,2.749,2.749,2.749,2.749,2.749,2.749,2.749,2.749,2.749,2.7469,2.7369,2.7369,2.7302,2.718,2.7113,2.7113,2.7113,2.6829,2.6679,2.6679,2.6555,2.6499,2.6499,2.6499,2.6499,2.6499,2.6499,2.6499,0.0,0.0,0.0,0.9256,1.0891,1.2627,1.3318,1.3917,1.4583,1.5568,1.5798,1.5808,1.582,1.7068,1.8262,1.8881,1.8989,1.9225,1.9721,2.022,2.0762,2.1425,2.1851,2.2378,2.3035,2.3108,2.3108,2.3108,2.3108,2.3108,2.3108,2.3108,2.3108,2.3108,2.3108,2.3108,2.3108,2.3108,2.3108,2.3108,2.33,2.3403,2.3433,2.3539,2.373,2.392,2.392,2.392,2.392,2.392,2.3979,2.4083,2.4109,2.4478,2.4992,2.5031,2.5751,2.6706,2.6719,2.7066,2.749,2.749,2.749,2.749,2.749,2.749,2.749,2.749,2.749,2.749,2.749,2.749,2.749,2.749,2.749,2.749,2.749,2.749,2.749,2.749,2.749,2.749,2.749,2.749,2.749,2.749,2.749,2.749,2.749,2.749,2.749,2.749,2.749,2.749,2.749,2.749,2.749,2.749,2.7369,2.7302,2.7302,2.693,2.6714,2.6714,2.6555,2.6499,2.6499,2.6499,2.6499,2.6499,2.6499,2.6499,0.6787,0.0,0.0,0.0,0.0,0.0,1.2956,1.3742,1.4357,1.5073,1.5491,1.5853,1.6302,1.7015,1.7726,1.8326,1.9069,1.963,1.9773,2.0293,2.0877,2.1443,2.1923,2.2479,2.304,2.3108,2.3108,0.0,2.3108,2.3108,2.3108,2.3108,2.3108,2.3108,2.3241,2.3313,2.3313,2.342,2.3467,2.3467,2.3509,2.3628,2.3772,2.3789,2.3907,2.4037,2.4037,2.4037,2.4037,2.4037,2.4054,2.4122,2.457,2.4861,2.5097,2.5921,2.6431,2.6771,2.7144,2.7392,2.749,2.749,2.749,2.749,2.749,2.749,2.749,2.749,2.749,2.749,2.749,2.749,2.749,2.749,2.749,2.749,2.749,2.749,2.749,2.749,2.749,2.749,2.749,2.749,2.749,2.749,2.749,2.749,2.749,2.749,2.749,2.749,2.749,2.749,2.749,2.749,2.7469,2.7369,2.7403,2.7403,2.7302,2.7045,2.6909,2.6909,2.6636,2.6499,2.6499,2.6499,2.6499,2.6499,2.6499,2.6499,0.6599,0.6991,0.7566,0.8225,0.0,0.0,1.1883,1.2793,1.3618,1.4455,1.4841,1.5285,1.6086,1.6638,1.716,1.7768,1.8581,1.9221,1.9421,1.9962,2.0541,2.1106,2.1631,2.2096,2.2393,2.2418,2.2518,2.2744,2.2757,2.2857,2.3095,2.3108,2.3138,2.321,2.333,2.3433,2.348,2.3569,2.3599,2.3599,2.3688,2.3802,2.3891,2.3949,2.4037,2.4083,2.4083,2.4083,2.4109,2.4374,2.4478,2.4504,2.4861,2.5293,2.579,2.6457,2.6831,2.7079,2.7372,2.749,2.749,2.749,2.749,2.749,2.749,2.749,2.749,2.749,2.749,2.749,2.749,2.749,2.749,2.749,2.749,2.749,2.749,2.749,2.749,2.749,2.749,2.749,2.749,2.749,2.749,2.749,2.749,2.749,2.749,2.749,2.749,2.749,2.749,2.749,2.749,2.749,2.7469,2.7403,2.7469,2.7436,2.7302,2.7113,2.6943,2.6875,2.6636,2.6499,2.6499,2.6499,2.6499,2.6499,2.6499,2.6499,0.6687,0.6991,0.7331,0.7381,0.8515,0.0,1.0382,1.1309,1.2366,1.3569,1.3808,1.4173,1.5311,1.5919,1.6434,1.7033,1.7513,1.8091,1.8807,1.9334,1.9861,2.0515,2.0981,2.1292,2.1468,2.1458,2.1631,2.2184,2.2284,2.2518,2.307,2.3108,2.321,2.3403,2.3433,2.3522,2.3628,2.3658,2.3658,2.3658,2.3848,2.392,2.392,2.4067,2.4083,2.4083,2.4083,2.4122,2.4243,2.4796,2.4992,2.5005,2.5136,2.5803,2.6719,2.6771,2.7092,2.749,2.749,2.749,2.749,2.749,2.749,2.749,2.749,2.749,2.749,2.749,2.749,2.749,2.749,2.749,2.749,2.749,2.749,2.749,2.749,2.749,2.749,2.749,2.749,2.749,2.749,2.749,2.749,2.749,2.749,2.749,2.749,2.749,2.749,2.749,2.749,2.749,2.749,2.749,2.749,2.7503,2.749,2.7436,2.7302,2.7113,2.6909,2.6726,2.6589,2.6499,2.6499,2.6499,2.6499,2.6499,2.6499,2.6499,0.7244,0.7003,0.6853,0.7294,0.7643,0.0,0.9177,0.9579,1.0182,1.1754,1.2093,1.2558,1.4123,1.45,1.4752,1.5299,1.5475,1.6204,1.8091,1.8455,1.8882,1.9861,1.9698,2.0024,2.1355,2.1119,2.1081,2.1606,2.2071,2.2518,2.307,2.3241,2.3373,2.3403,2.3641,2.3832,2.3832,2.3936,2.3995,2.3995,2.4024,2.4067,2.4067,2.4083,2.4083,2.4083,2.4083,2.4387,2.4835,2.4953,2.4992,2.5083,2.6012,2.651,2.6758,2.7196,2.7398,2.749,2.749,2.749,2.749,2.749,2.749,2.749,2.749,2.749,2.749,2.749,2.749,2.749,2.749,2.749,2.749,2.749,2.749,2.749,2.749,2.749,2.749,2.749,2.749,2.749,2.749,2.749,2.749,2.749,2.749,2.749,2.749,2.749,2.749,2.749,2.749,2.749,2.749,2.749,2.7469,2.7335,2.7436,2.7436,2.7302,2.7113,2.6977,2.6943,2.6636,2.6499,2.6499,2.6499,2.6499,2.6499,2.6499,2.6499,0.7926,0.7428,0.7066,0.7331,0.7406,0.0,0.0,0.8487,0.9013,1.0119,1.0346,1.0875,1.2549,1.2885,1.3179,1.3964,1.4103,1.4595,1.6019,1.687,1.7754,1.8882,1.8818,1.9006,1.9773,1.9674,1.9876,2.0682,2.1542,2.2163,2.2483,2.2878,2.3118,2.3205,2.3647,2.392,2.4008,2.4054,2.4083,2.4083,2.4083,2.4083,2.4083,2.4083,2.4083,2.4109,2.4426,2.473,2.5044,2.562,2.5855,2.5908,2.6484,2.6844,2.7131,2.7385,2.749,2.749,2.749,2.749,2.749,2.749,2.749,2.749,2.749,2.749,2.749,2.749,2.749,2.749,2.749,2.749,2.749,2.749,2.749,2.749,2.749,2.749,2.749,2.749,2.749,2.749,2.749,2.749,2.749,2.749,2.749,2.749,2.749,2.749,2.749,2.749,2.749,2.749,2.749,2.749,2.7469,2.7403,2.7469,2.7436,2.7302,2.7113,2.6909,2.6739,2.6602,2.6499,2.6499,2.6499,2.6499,2.6499,2.6499,2.6499,0.8788,0.8187,0.7678,0.7456,0.7406,0.7369,0.0,0.0,0.0,0.8661,0.8774,0.9252,1.085,1.1183,1.1528,1.2526,1.2674,1.293,1.3618,1.4784,0.0,1.7574,1.7728,0.0,1.8086,1.8293,1.8861,1.9953,2.0893,2.1557,2.1882,2.2516,2.2897,2.2998,2.3609,2.3979,2.4083,2.4083,2.4083,2.4083,2.4083,2.4083,2.4083,2.4083,2.4083,2.4122,2.4756,2.5057,2.524,2.6274,2.6771,2.6831,2.6831,2.7118,2.749,2.749,2.749,2.749,2.749,2.749,2.749,2.749,2.749,2.749,2.749,2.749,2.749,2.749,2.749,2.749,2.749,2.749,2.749,2.749,2.749,2.749,2.749,2.749,2.749,2.749,2.749,2.749,2.749,2.749,2.749,2.749,2.749,2.749,2.749,2.749,2.749,2.749,2.749,2.749,2.749,2.749,2.749,2.749,2.749,2.7469,2.7335,2.7146,2.6909,2.6568,2.6521,2.6521,2.6499,2.6499,2.6499,2.6499,2.6499,2.6499,1.0006,0.9327,0.8674,0.7653,0.7406,0.7269,0.679,0.0,0.695,0.7478,0.0,0.7974,0.9237,0.0,0.0,1.0352,1.0467,1.0823,1.1842,1.2132,1.3192,1.577,1.5603,0.0,0.0,1.8203,1.8956,2.0092,2.0297,2.0821,2.1843,2.2588,2.2969,2.2998,2.3696,2.4083,2.4083,2.4083,2.4083,2.4083,2.4083,2.4083,2.4083,2.4083,2.4083,2.4122,2.4756,2.5262,2.5772,2.6444,2.6974,2.7398,2.7398,2.7438,2.749,2.749,2.749,2.749,2.749,2.749,2.749,2.749,2.749,2.749,2.749,2.749,2.749,2.749,2.749,2.749,2.749,2.749,2.749,2.749,2.749,2.749,2.749,2.749,2.749,2.749,2.749,2.749,2.749,2.749,2.749,2.749,2.749,2.749,2.749,2.749,2.749,2.749,2.749,2.749,2.749,2.749,2.749,2.749,2.749,2.749,2.7503,2.7335,2.7066,2.6692,2.6692,2.6624,2.6499,2.6499,2.6499,2.6499,2.6499,2.6499,1.1663,1.0695,0.983,0.9053,0.8377,0.7776,0.7191,0.7066,0.7041,0.6953,0.0,0.0,0.0,0.0,0.0,0.0,0.917,0.9429,1.02,1.0263,1.1409,1.4567,0.0,0.0,0.0,0.0,0.0,0.0,1.9484,2.0101,2.0655,2.1913,2.2644,2.2644,2.36,2.4083,2.4083,2.4083,2.4083,2.4083,2.4083,2.4083,2.4083,2.4083,2.4295,2.4648,2.521,2.5785,2.636,2.6935,2.7314,2.749,2.749,2.749,2.749,2.749,2.749,2.749,2.749,2.749,2.749,2.749,2.749,2.749,2.749,2.749,2.749,2.749,2.749,2.749,2.749,2.749,2.749,2.749,2.749,2.749,2.749,2.749,2.749,2.749,2.749,2.749,2.749,2.749,2.749,2.749,2.749,2.749,2.749,2.749,2.749,2.749,2.749,2.749,2.749,2.749,2.749,2.749,2.749,2.7469,2.7403,2.7335,2.7167,2.6875,2.676,2.6692,2.6624,2.6521,2.6521,2.6624,2.6521,2.6499,1.3174,1.2137,1.1219,1.0546,0.9554,0.8589,0.8001,0.7638,0.731,0.6917,0.6769,0.0,0.0,0.0,0.7593,0.0,0.0,0.8292,0.879,0.8867,1.0006,1.3061,0.0,0.0,0.0,0.0,0.0,0.0,0.0,1.9354,1.9786,2.1302,2.2231,2.2375,2.3511,2.4083,2.4083,2.4083,2.4083,2.4083,2.4083,2.4083,2.4096,2.4282,2.4583,2.5044,2.5733,2.6295,2.6745,2.7288,2.749,2.749,2.749,2.749,2.749,2.749,2.749,2.749,2.749,2.749,2.749,2.749,2.749,2.749,2.749,2.749,2.749,2.749,2.749,2.749,2.749,2.749,2.749,2.749,2.749,2.749,2.749,2.749,2.749,2.749,2.749,2.749,2.749,2.749,2.749,2.749,2.749,2.749,2.749,2.749,2.749,2.749,2.749,2.749,2.749,2.749,2.749,2.749,2.749,2.7469,2.7369,2.7335,2.7268,2.7079,2.693,2.6829,2.6794,2.6692,2.6705,2.6794,2.6589,2.6521,1.4337,1.3584,1.286,1.1814,1.0684,0.9705,0.9164,0.8241,0.75,0.7474,0.7062,0.6727,0.6808,0.6825,0.0,0.0,0.0,0.0,0.0,0.7926,0.8815,1.095,0.0,0.0,0.0,0.0,0.0,0.0,0.0,0.0,1.9747,2.091,2.1799,2.2375,2.3511,2.4083,2.4083,2.4083,2.4083,2.4083,2.4083,2.4083,2.4109,2.4717,2.4979,2.5057,2.6183,2.6693,2.6745,2.7288,2.749,2.749,2.749,2.749,2.749,2.749,2.749,2.749,2.749,2.749,2.749,2.749,2.749,2.749,2.749,2.749,2.749,2.749,2.749,2.749,2.749,2.749,2.749,2.749,2.749,2.749,2.749,2.749,2.749,2.749,2.749,2.749,2.749,2.749,2.749,2.749,2.749,2.749,2.749,2.749,2.749,2.749,2.749,2.749,2.749,2.749,2.749,2.749,2.749,2.749,2.749,2.749,2.7436,2.7302,2.7268,2.7167,2.699,2.699,2.699,2.6977,2.6636,2.6555,0.0,0.0,1.4155,1.343,1.2395,1.1439,1.093,0.9957,0.9056,0.8754,0.826,0.7788,0.7458,0.7503,0.0,0.0,0.0,0.0,0.0,0.0,0.7675,0.0,0.0,0.0,0.0,0.0,0.0,0.0,0.0,0.0,0.0,2.0347,2.142,2.2361,2.3132,2.372,2.4083,2.4083,2.4083,2.4083,2.4083,2.4083,2.4109,2.473,2.5201,2.5576,2.6379,2.6883,2.7249,2.7425,2.749,2.749,2.749,2.749,2.749,2.749,2.749,2.749,2.749,2.749,2.749,2.749,2.749,2.749,2.749,2.749,2.749,2.749,2.749,2.749,2.749,2.749,2.749,2.749,2.749,2.749,2.749,2.749,2.749,2.749,2.749,2.749,2.749,2.749,2.749,2.749,2.749,2.749,2.749,2.749,2.749,2.749,2.749,2.749,2.749,2.749,2.749,2.749,2.749,2.749,2.749,2.749,2.7503,2.7436,2.7335,2.7268,2.7214,2.7045,2.7079,2.718,2.6943,2.6841,1.6986,1.6158,0.0,1.4796,1.3828,0.0,1.2623,1.1556,1.0544,1.0251,0.9475,0.8753,0.8402,0.8089,0.0,0.0,0.0,0.0,0.0,0.6775,0.0,0.0,0.0,0.0,0.0,0.0,0.0,0.0,0.0,0.0,0.0,0.0,2.0818,2.1786,2.2714,2.3378,2.377,2.3979,2.4083,2.4083,2.4083,2.4217,2.4439,2.5014,2.5589,2.6164,2.6726,2.7183,2.749,2.749,2.749,2.749,2.749,2.749,2.749,2.749,2.749,2.749,2.749,2.749,2.7529,2.7771,2.7837,2.7863,2.8085,2.815,2.8111,2.7889,2.7981,2.8098,2.7889,2.7837,2.7837,2.7837,2.7646,2.749,2.749,2.749,2.749,2.749,2.749,2.749,2.749,2.749,2.749,2.749,2.749,2.749,2.749,2.749,2.749,2.749,2.749,2.749,2.749,2.749,2.749,2.749,2.749,2.749,2.749,2.749,2.7594,2.7837,2.7527,2.7473,2.7702,2.7338,2.7248,2.7369,2.7248,2.718]}]]